[[{"header":{"parameterUnit":"m.s-1","parameterCategory":1,"la1":30.6,"la2":29.2853,"lo1":-89.7004,"lo2":-87.6739,"dy":0.0162,"dx":0.0183,"nx":112,"ny":82,"refTime":"2024-03-24T12:00:00:Z","depth":0,"parameterNumber":2,"parameterNumberName":"U-component_of_WINDS"},"data":[0.0,0.0,0.0,0.0,0.0,0.0,0.0,0.0,0.0,0.0,0.0,0.0,0.0,0.0,0.0,0.0,0.0,0.0,0.0,0.0,0.0,0.0,0.0,0.0,0.0,0.0,0.0,0.0,0.0,0.0,0.0,0.0,0.0,0.0,0.0,0.0,0.0,0.0,0.0,0.0,0.0,0.0,0.0,0.0,0.0,0.0,0.0,0.0,0.0,0.0,0.0,0.0,0.0,0.0,0.0,0.0,0.0,0.0,0.0,0.0,0.0,0.0,0.0,0.0,0.0,0.0,0.0,0.0,0.0,0.0,0.0,0.0,0.0,0.0,0.0,0.0,0.0,0.0,0.0,0.0,0.0,0.0,0.0,0.0,0.0,0.0,0.0,0.0,0.0,0.0,0.0,3.4174,3.4119,3.4041,3.4041,3.3986,3.4264,3.5015,0.0,0.0,0.0,0.0,0.0,0.0,0.0,0.0,0.0,0.0,0.0,0.0,0.0,0.0,0.0,0.0,0.0,0.0,0.0,0.0,0.0,0.0,0.0,0.0,0.0,0.0,0.0,0.0,0.0,0.0,0.0,0.0,0.0,0.0,0.0,0.0,0.0,0.0,0.0,0.0,0.0,0.0,0.0,0.0,0.0,0.0,0.0,0.0,0.0,0.0,0.0,0.0,0.0,0.0,0.0,0.0,0.0,0.0,0.0,0.0,0.0,0.0,0.0,0.0,0.0,0.0,0.0,0.0,0.0,0.0,0.0,0.0,0.0,0.0,0.0,0.0,0.0,0.0,0.0,0.0,0.0,0.0,0.0,0.0,0.0,0.0,0.0,0.0,0.0,0.0,0.0,0.0,0.0,0.0,0.0,0.0,0.0,0.0,0.0,0.0,0.0,0.0,0.0,0.0,3.5114,3.5826,3.551,3.525,3.525,3.4814,3.4827,3.5407,0.0,0.0,0.0,0.0,0.0,0.0,0.0,0.0,0.0,0.0,0.0,0.0,0.0,0.0,0.0,0.0,0.0,0.0,0.0,0.0,0.0,0.0,0.0,0.0,0.0,0.0,0.0,0.0,0.0,0.0,0.0,0.0,0.0,0.0,0.0,0.0,0.0,0.0,0.0,0.0,0.0,0.0,0.0,0.0,0.0,0.0,0.0,0.0,0.0,0.0,0.0,0.0,0.0,0.0,0.0,0.0,0.0,0.0,0.0,0.0,0.0,0.0,0.0,0.0,0.0,0.0,0.0,0.0,0.0,0.0,0.0,0.0,0.0,0.0,0.0,0.0,0.0,0.0,0.0,0.0,0.0,0.0,0.0,0.0,0.0,0.0,0.0,0.0,0.0,0.0,0.0,0.0,0.0,0.0,0.0,0.0,0.0,0.0,0.0,0.0,0.0,0.0,0.0,3.5495,3.5732,3.5845,3.5635,3.5374,3.5079,3.4845,3.511,3.6095,3.4991,0.0,0.0,0.0,0.0,0.0,0.0,0.0,0.0,0.0,0.0,0.0,0.0,0.0,0.0,0.0,0.0,0.0,0.0,0.0,0.0,0.0,0.0,0.0,0.0,0.0,0.0,0.0,0.0,0.0,0.0,0.0,0.0,0.0,0.0,0.0,0.0,0.0,0.0,0.0,0.0,0.0,0.0,0.0,0.0,0.0,0.0,0.0,0.0,0.0,0.0,0.0,0.0,0.0,0.0,0.0,0.0,0.0,0.0,0.0,0.0,0.0,0.0,0.0,0.0,0.0,0.0,0.0,0.0,0.0,0.0,0.0,0.0,0.0,0.0,0.0,0.0,0.0,0.0,0.0,0.0,0.0,0.0,0.0,0.0,0.0,0.0,0.0,0.0,0.0,0.0,0.0,0.0,0.0,0.0,0.0,0.0,0.0,0.0,0.0,0.0,0.0,0.0,3.6286,3.6136,3.5905,3.5797,3.5536,3.5148,3.4999,3.5404,3.6559,3.5659,0.0,0.0,0.0,0.0,0.0,0.0,0.0,0.0,0.0,0.0,0.0,0.0,0.0,0.0,0.0,0.0,0.0,0.0,0.0,0.0,0.0,0.0,0.0,0.0,0.0,0.0,0.0,0.0,0.0,0.0,0.0,0.0,0.0,0.0,0.0,0.0,0.0,0.0,0.0,0.0,0.0,0.0,0.0,0.0,0.0,0.0,0.0,0.0,0.0,0.0,0.0,0.0,0.0,0.0,0.0,0.0,0.0,0.0,0.0,0.0,0.0,0.0,0.0,0.0,0.0,0.0,0.0,0.0,0.0,0.0,0.0,0.0,0.0,0.0,0.0,0.0,0.0,0.0,0.0,0.0,0.0,0.0,0.0,0.0,0.0,0.0,0.0,0.0,0.0,0.0,0.0,0.0,0.0,0.0,0.0,0.0,0.0,0.0,0.0,0.0,0.0,0.0,3.6229,3.6227,3.699,3.6646,3.6314,3.6273,3.5824,3.5794,3.6363,3.6329,0.0,0.0,0.0,0.0,0.0,0.0,0.0,0.0,0.0,0.0,0.0,0.0,0.0,0.0,0.0,0.0,0.0,0.0,0.0,0.0,0.0,0.0,0.0,0.0,0.0,0.0,0.0,0.0,0.0,0.0,0.0,0.0,0.0,0.0,0.0,0.0,0.0,0.0,0.0,0.0,0.0,0.0,0.0,0.0,0.0,0.0,0.0,0.0,0.0,0.0,0.0,0.0,0.0,0.0,0.0,0.0,0.0,0.0,0.0,0.0,0.0,0.0,0.0,0.0,0.0,0.0,0.0,0.0,0.0,0.0,0.0,0.0,0.0,0.0,0.0,0.0,0.0,0.0,0.0,0.0,0.0,0.0,0.0,0.0,0.0,0.0,0.0,0.0,0.0,0.0,0.0,0.0,0.0,0.0,0.0,0.0,0.0,0.0,0.0,0.0,0.0,0.0,3.685,3.6889,0.0,3.7214,3.7146,3.7319,3.7159,3.7251,3.7726,0.0,0.0,0.0,0.0,0.0,0.0,0.0,0.0,0.0,0.0,0.0,0.0,0.0,0.0,0.0,0.0,0.0,0.0,0.0,0.0,0.0,0.0,0.0,0.0,0.0,0.0,0.0,0.0,0.0,0.0,0.0,0.0,0.0,0.0,0.0,0.0,0.0,0.0,0.0,0.0,0.0,0.0,0.0,0.0,0.0,0.0,0.0,0.0,0.0,0.0,0.0,0.0,0.0,0.0,0.0,0.0,0.0,0.0,0.0,0.0,0.0,0.0,0.0,0.0,0.0,0.0,0.0,0.0,0.0,0.0,0.0,0.0,0.0,0.0,0.0,0.0,0.0,0.0,0.0,0.0,0.0,0.0,0.0,0.0,0.0,0.0,0.0,0.0,0.0,0.0,0.0,0.0,0.0,0.0,0.0,0.0,0.0,0.0,0.0,0.0,0.0,0.0,3.7244,3.7171,3.7231,0.0,3.7634,3.7706,3.7879,3.791,3.802,3.8357,0.0,0.0,0.0,0.0,0.0,0.0,0.0,0.0,0.0,0.0,0.0,0.0,0.0,0.0,0.0,0.0,0.0,0.0,0.0,0.0,0.0,0.0,0.0,0.0,0.0,0.0,0.0,0.0,0.0,0.0,0.0,0.0,0.0,0.0,0.0,0.0,0.0,0.0,0.0,0.0,0.0,0.0,0.0,0.0,0.0,0.0,0.0,0.0,0.0,0.0,0.0,0.0,0.0,0.0,0.0,0.0,0.0,0.0,0.0,0.0,0.0,0.0,0.0,0.0,0.0,0.0,0.0,0.0,0.0,0.0,0.0,0.0,0.0,0.0,0.0,0.0,0.0,0.0,0.0,0.0,0.0,0.0,0.0,0.0,0.0,0.0,0.0,0.0,0.0,0.0,0.0,0.0,0.0,0.0,0.0,0.0,0.0,0.0,0.0,0.0,0.0,0.0,3.7413,3.7114,3.7088,3.7843,3.791,3.791,3.791,3.791,3.791,0.0,0.0,0.0,0.0,0.0,0.0,0.0,0.0,0.0,0.0,0.0,0.0,0.0,0.0,0.0,0.0,0.0,0.0,0.0,0.0,0.0,0.0,0.0,0.0,0.0,0.0,0.0,0.0,0.0,0.0,0.0,0.0,0.0,0.0,0.0,0.0,0.0,0.0,0.0,0.0,0.0,0.0,0.0,0.0,0.0,0.0,0.0,0.0,0.0,0.0,0.0,0.0,0.0,0.0,0.0,0.0,0.0,0.0,0.0,0.0,0.0,0.0,0.0,0.0,0.0,0.0,0.0,0.0,0.0,0.0,0.0,0.0,0.0,0.0,0.0,0.0,0.0,0.0,0.0,0.0,0.0,0.0,0.0,0.0,0.0,0.0,0.0,0.0,0.0,0.0,0.0,0.0,0.0,0.0,0.0,0.0,0.0,0.0,0.0,0.0,0.0,0.0,0.0,3.7717,3.7656,3.7855,3.8599,3.8667,3.887,3.9423,3.9457,3.9457,3.9457,0.0,0.0,0.0,0.0,0.0,0.0,0.0,0.0,0.0,0.0,0.0,0.0,0.0,0.0,0.0,0.0,0.0,0.0,0.0,0.0,0.0,0.0,0.0,0.0,0.0,0.0,0.0,0.0,0.0,0.0,0.0,0.0,0.0,0.0,0.0,0.0,0.0,0.0,0.0,0.0,0.0,0.0,0.0,0.0,0.0,0.0,0.0,0.0,0.0,0.0,0.0,0.0,0.0,0.0,0.0,0.0,0.0,0.0,0.0,0.0,0.0,0.0,0.0,0.0,0.0,0.0,0.0,0.0,0.0,0.0,0.0,0.0,0.0,0.0,0.0,0.0,0.0,0.0,0.0,0.0,0.0,0.0,0.0,0.0,0.0,0.0,0.0,0.0,0.0,0.0,0.0,0.0,0.0,0.0,0.0,0.0,0.0,0.0,0.0,0.0,0.0,0.0,3.8275,3.8328,3.8633,3.9356,3.9423,3.9626,4.0079,4.0113,4.0113,4.0113,0.0,0.0,0.0,0.0,0.0,0.0,0.0,0.0,0.0,0.0,0.0,0.0,0.0,0.0,0.0,0.0,0.0,0.0,0.0,0.0,0.0,0.0,0.0,0.0,0.0,0.0,0.0,0.0,0.0,0.0,0.0,0.0,0.0,0.0,0.0,0.0,0.0,0.0,0.0,0.0,0.0,0.0,0.0,0.0,0.0,0.0,0.0,0.0,0.0,0.0,0.0,0.0,0.0,0.0,0.0,0.0,0.0,0.0,0.0,0.0,0.0,0.0,0.0,0.0,0.0,0.0,0.0,0.0,0.0,0.0,0.0,0.0,0.0,0.0,0.0,0.0,0.0,0.0,0.0,0.0,0.0,0.0,0.0,0.0,0.0,0.0,0.0,0.0,0.0,0.0,0.0,0.0,0.0,0.0,0.0,0.0,0.0,0.0,0.0,0.0,0.0,0.0,3.9017,3.9119,3.9356,4.0045,4.0113,4.0113,4.0113,4.0113,4.0113,4.0113,0.0,0.0,0.0,0.0,0.0,0.0,0.0,0.0,0.0,0.0,0.0,0.0,0.0,0.0,0.0,0.0,0.0,0.0,0.0,0.0,0.0,0.0,0.0,0.0,0.0,0.0,0.0,0.0,0.0,0.0,0.0,0.0,0.0,0.0,0.0,0.0,0.0,0.0,0.0,0.0,0.0,0.0,0.0,0.0,0.0,0.0,0.0,0.0,0.0,0.0,0.0,0.0,0.0,0.0,0.0,0.0,0.0,0.0,0.0,0.0,2.4422,0.0,0.0,0.0,0.0,0.0,0.0,0.0,0.0,0.0,0.0,0.0,0.0,0.0,0.0,0.0,0.0,0.0,0.0,0.0,0.0,0.0,0.0,0.0,0.0,0.0,0.0,0.0,0.0,0.0,0.0,0.0,0.0,0.0,0.0,0.0,0.0,0.0,0.0,0.0,0.0,0.0,3.9762,3.9876,3.9943,4.0079,4.0113,4.0113,4.0113,4.0113,4.0113,4.0113,4.0113,0.0,0.0,0.0,0.0,0.0,0.0,0.0,0.0,0.0,0.0,0.0,0.0,0.0,0.0,0.0,0.0,0.0,0.0,0.0,0.0,0.0,0.0,0.0,0.0,0.0,0.0,0.0,0.0,0.0,0.0,0.0,0.0,0.0,0.0,0.0,0.0,0.0,0.0,0.0,0.0,0.0,0.0,0.0,0.0,0.0,0.0,0.0,0.0,0.0,0.0,0.0,0.0,0.0,0.0,0.0,0.0,0.0,0.0,0.0,0.0,2.5557,0.0,0.0,0.0,0.0,0.0,0.0,0.0,0.0,0.0,0.0,0.0,0.0,0.0,0.0,0.0,0.0,0.0,0.0,0.0,0.0,0.0,0.0,0.0,0.0,0.0,0.0,0.0,0.0,0.0,0.0,0.0,0.0,0.0,0.0,0.0,0.0,0.0,0.0,0.0,0.0,4.0045,4.0113,4.0113,4.0113,4.0113,4.0113,4.0113,4.0113,4.0113,4.0113,4.0113,0.0,0.0,0.0,0.0,0.0,0.0,0.0,0.0,0.0,0.0,0.0,0.0,0.0,0.0,0.0,0.0,0.0,0.0,0.0,0.0,0.0,0.0,0.0,0.0,0.0,0.0,0.0,0.0,0.0,0.0,0.0,0.0,0.0,0.0,0.0,0.0,0.0,0.0,0.0,0.0,0.0,0.0,0.0,0.0,0.0,0.0,0.0,0.0,0.0,0.0,0.0,0.0,0.0,2.6609,2.6965,2.7569,2.7717,2.7792,2.7783,2.7598,2.7246,2.6728,2.6101,0.0,0.0,0.0,0.0,0.0,0.0,0.0,0.0,0.0,0.0,0.0,0.0,0.0,0.0,0.0,0.0,0.0,0.0,0.0,0.0,0.0,0.0,0.0,0.0,3.5972,3.6648,0.0,0.0,0.0,0.0,0.0,0.0,0.0,0.0,0.0,0.0,0.0,0.0,4.0113,4.0113,4.0113,4.0113,4.0113,4.0113,4.0113,4.0113,4.0113,4.0113,4.0113,4.0113,0.0,0.0,0.0,0.0,0.0,0.0,0.0,0.0,0.0,0.0,0.0,0.0,0.0,0.0,0.0,0.0,0.0,0.0,0.0,0.0,0.0,0.0,0.0,0.0,0.0,0.0,0.0,0.0,0.0,0.0,0.0,0.0,2.265,2.2328,0.0,0.0,0.0,0.0,0.0,0.0,0.0,0.0,0.0,0.0,0.0,0.0,0.0,2.6372,2.754,2.7799,2.8205,2.867,2.8995,2.9073,2.9058,2.9732,3.0049,3.0099,3.0573,0.0,2.7108,2.6849,0.0,0.0,0.0,0.0,0.0,0.0,0.0,0.0,0.0,0.0,0.0,0.0,0.0,0.0,0.0,0.0,0.0,0.0,0.0,0.0,0.0,0.0,3.5273,3.6276,3.7144,3.7707,0.0,3.755,3.764,3.7741,3.8362,0.0,0.0,0.0,0.0,0.0,0.0,0.0,4.0113,4.0113,4.0113,4.0113,4.0113,4.0113,4.0113,4.0113,4.0113,4.0113,4.0113,4.0113,4.0113,4.0113,0.0,0.0,0.0,0.0,0.0,0.0,0.0,0.0,0.0,0.0,0.0,0.0,0.0,0.0,0.0,0.0,0.0,0.0,0.0,0.0,0.0,0.0,0.0,0.0,0.0,0.0,0.0,0.0,0.0,2.283,2.3243,2.3071,2.3041,2.298,0.0,0.0,0.0,0.0,0.0,0.0,0.0,0.0,0.0,2.677,2.7464,2.8019,2.8394,2.9172,2.969,2.9879,3.0426,3.0603,3.0535,3.0893,3.1072,3.1086,3.1341,3.076,2.9587,2.9001,2.8319,2.7653,0.0,0.0,0.0,0.0,2.7957,2.832,2.9154,2.9623,0.0,3.0209,0.0,0.0,0.0,0.0,0.0,0.0,0.0,0.0,0.0,0.0,3.6468,3.7246,3.799,3.8531,3.8531,3.8848,3.9005,0.0,3.9119,3.9626,3.9626,0.0,0.0,0.0,0.0,4.0113,4.0113,4.0113,4.0113,4.0113,4.0113,4.0113,4.0113,4.0113,4.0113,4.0113,4.0113,4.0113,4.0113,4.0113,4.0113,0.0,0.0,0.0,0.0,0.0,0.0,0.0,0.0,0.0,0.0,0.0,0.0,0.0,0.0,0.0,0.0,0.0,0.0,0.0,0.0,0.0,0.0,0.0,0.0,0.0,0.0,0.0,0.0,2.3425,2.3879,2.3879,2.3999,2.3879,0.0,0.0,0.0,0.0,0.0,0.0,2.7503,2.7993,2.8221,2.8186,2.9103,2.9585,2.9594,3.0552,3.1091,3.127,3.1764,3.2019,3.2019,3.2019,3.2019,3.2019,3.2019,3.2019,3.1927,3.0887,3.0167,2.9651,2.9646,2.9598,2.9676,3.0268,3.0559,3.088,3.1935,3.242,3.2573,3.2773,3.2463,3.2018,3.2041,0.0,0.0,0.0,0.0,3.4387,3.6298,3.6926,3.7247,3.801,3.8734,3.9288,3.9288,3.9694,3.9943,0.0,3.9728,4.0113,4.0113,0.0,0.0,0.0,0.0,4.0113,4.0113,4.0113,4.0113,4.0113,4.0113,4.0113,4.0113,4.0113,4.0113,4.0113,4.0113,4.0113,4.0113,4.0113,4.0113,4.0113,0.0,0.0,0.0,0.0,0.0,0.0,0.0,0.0,0.0,0.0,0.0,0.0,0.0,0.0,0.0,0.0,0.0,0.0,0.0,0.0,0.0,0.0,0.0,0.0,0.0,0.0,0.0,0.0,0.0,2.4545,2.5124,0.0,0.0,0.0,0.0,2.6441,2.6531,2.7113,2.8445,2.8578,2.9122,3.0324,3.0414,3.1059,3.2303,3.2362,3.2736,3.3335,3.3395,3.3395,3.3395,3.3395,3.3395,3.3395,3.3395,3.3395,3.3291,3.1827,3.1208,3.1169,3.1043,3.1002,3.1003,3.1166,3.1623,3.2121,3.2342,3.2774,3.338,3.4069,3.4274,3.4245,3.4293,3.4335,0.0,0.0,3.5475,3.5691,3.6553,3.7269,3.7937,3.8756,3.9525,4.0045,4.0045,4.0079,4.0079,0.0,4.0079,4.0113,4.0113,0.0,4.0113,4.0113,4.0113,4.0113,4.0113,4.0113,4.0113,4.0113,4.0113,4.0113,4.0113,4.0113,4.0113,4.0113,4.0113,4.0113,4.0113,4.0113,4.0113,4.0113,4.0113,0.0,0.0,0.0,0.0,0.0,0.0,0.0,0.0,0.0,0.0,0.0,0.0,0.0,0.0,0.0,0.0,0.0,0.0,0.0,0.0,0.0,0.0,0.0,0.0,0.0,0.0,0.0,0.0,2.5854,2.6494,0.0,2.6554,2.6764,2.7183,2.7829,2.8291,2.8919,2.9774,3.0628,3.1316,3.1764,3.2198,3.2647,3.3155,3.3574,3.3919,3.4158,3.4592,3.4801,3.4801,3.4801,3.4801,3.4801,3.4801,3.4801,3.4757,3.421,3.3487,3.2701,3.2661,3.2656,3.2684,3.3183,3.3498,3.3751,3.4282,3.4609,3.4831,3.5068,3.5177,3.509,3.4593,3.4813,3.5265,3.5539,3.5934,3.6583,3.7825,3.7977,3.8001,3.8745,3.877,3.875,3.9236,3.9328,3.9493,3.999,4.0113,4.0113,4.0113,4.0113,4.0113,4.0113,4.0113,4.0269,4.0743,4.0798,4.098,4.1454,4.1521,4.1318,4.0832,4.0798,4.0608,4.0146,4.0113,4.0113,4.0113,4.0113,4.0113,4.0113,4.0113,4.0113,0.0,0.0,0.0,0.0,0.0,0.0,0.0,0.0,0.0,0.0,0.0,0.0,0.0,0.0,0.0,0.0,0.0,0.0,0.0,0.0,0.0,0.0,0.0,0.0,0.0,0.0,2.6512,2.7213,2.8051,2.8513,2.8304,2.865,2.9175,2.9864,3.0313,3.0851,3.148,3.2333,3.2946,3.3155,3.362,3.3949,3.4173,3.4637,3.4847,3.4847,3.528,3.5519,3.5519,3.5519,3.5519,3.5519,3.5519,3.5639,3.5848,3.5848,3.5429,3.4771,3.4352,3.4173,3.4235,3.4683,3.4835,3.491,3.5386,3.5562,3.5562,3.5562,3.5562,3.5512,3.5239,3.5528,3.5992,3.6278,3.6511,3.6939,3.82,3.8123,3.7922,3.8687,3.8867,3.8962,3.9158,3.9411,3.9776,4.0294,4.0428,4.0472,4.0472,4.0675,4.0844,4.0844,4.0844,4.1014,4.1508,4.1576,4.1745,4.2266,4.23,4.2097,4.161,4.1576,4.1339,4.0878,4.0844,4.0844,4.0844,4.0844,4.0844,4.0844,4.0608,4.0337,4.0113,0.0,0.0,0.0,0.0,0.0,0.0,0.0,0.0,0.0,0.0,0.0,0.0,0.0,0.0,0.0,0.0,0.0,0.0,0.0,0.0,0.0,0.0,0.0,2.7495,2.7645,2.7914,2.8607,2.9804,3.0342,2.9788,3.0837,3.1839,3.2482,3.2542,3.2841,3.3484,3.3544,3.3859,3.4488,3.4518,3.4847,3.5519,3.5519,3.5549,3.5579,3.5579,3.5579,3.5579,3.5579,3.5579,3.5579,3.5579,3.5938,3.6523,3.6523,3.6866,3.7268,3.6041,3.5579,3.5579,3.5579,3.5549,3.5519,3.5519,3.5519,3.5519,3.5519,3.5519,3.5635,3.6368,3.6615,3.6753,3.7548,3.7222,3.6799,3.7638,3.771,3.7795,3.8593,3.985,4.0692,3.9932,4.0383,4.0939,4.0968,4.1088,4.1206,4.1225,4.1813,4.23,4.23,4.23,0.0,4.2333,4.2333,4.232,4.2367,4.2367,4.2367,4.2333,4.2333,4.232,4.23,4.23,4.23,4.23,4.23,4.23,4.23,4.161,4.0865,4.018,0.0,0.0,0.0,0.0,0.0,0.0,0.0,0.0,0.0,0.0,0.0,0.0,0.0,0.0,0.0,0.0,0.0,0.0,0.0,0.0,0.0,2.7171,2.7931,2.7645,2.8453,2.9458,3.0568,3.1435,3.2078,3.2392,3.2736,3.3036,3.3215,3.3679,3.4039,3.4218,3.4697,3.504,3.522,3.522,3.5549,3.6224,3.6224,3.6447,3.6896,3.6896,3.6896,3.6896,3.6896,3.6896,3.6896,3.6896,3.6985,3.7165,3.7165,3.7255,3.7375,3.6998,3.6896,3.6896,3.6896,3.6596,3.6224,3.6224,3.5908,3.5519,3.5519,3.5519,3.5628,3.6323,3.6539,3.6679,3.7316,3.7353,3.737,3.8182,3.7934,3.7676,3.8461,3.8521,3.8483,3.8853,3.9093,3.9439,4.0023,4.0582,4.1213,4.1863,4.2164,4.23,4.23,4.23,0.0,4.3017,4.3085,4.3335,4.389,4.3958,4.3721,4.3152,4.3085,4.2861,4.2333,4.23,4.23,4.23,4.23,4.23,4.23,4.2097,4.1894,0.0,0.0,0.0,0.0,0.0,0.0,0.0,0.0,0.0,0.0,0.0,0.0,0.0,0.0,0.0,0.0,0.0,0.0,0.0,0.0,0.0,0.0,2.8966,2.9774,2.9668,3.0073,3.0881,3.2183,3.2946,3.3484,3.3889,3.4173,3.4352,3.4352,3.4697,3.4937,3.4937,3.5549,3.5908,3.5908,3.6178,3.6477,3.6866,3.6866,3.7045,3.7387,3.7387,3.7387,3.7387,3.7387,3.7387,3.7387,3.7387,3.7554,3.7823,3.7823,3.7973,0.0,0.0,0.0,0.0,0.0,3.7195,3.6866,3.6866,3.6626,3.6297,3.6297,3.6297,3.6387,3.6746,3.6866,3.6956,3.7315,3.7387,3.7507,3.7983,3.796,3.7944,3.8409,3.8673,3.8804,3.892,3.9227,3.9612,4.01,4.0764,0.0,4.296,4.2931,4.2842,4.3206,4.3247,4.3416,4.3842,4.4167,4.4553,4.5007,4.5345,4.521,4.4437,4.437,0.0,0.0,0.0,4.3247,4.3247,4.3247,0.0,0.0,0.0,4.2625,4.23,0.0,0.0,0.0,4.1014,4.1014,0.0,0.0,0.0,0.0,0.0,0.0,0.0,0.0,0.0,0.0,0.0,0.0,0.0,0.0,0.0,0.0,3.0837,3.1959,3.2632,3.2213,3.2273,3.3455,3.4188,3.4607,3.4607,3.516,3.5533,3.5609,3.5609,3.5639,3.5729,0.0,0.0,0.0,0.0,3.7434,3.7524,3.7524,3.7554,3.7644,3.7644,3.7644,3.7644,3.7644,3.7644,3.7644,3.7644,3.7973,3.8512,3.8512,3.8871,3.9272,3.8075,3.7644,3.7644,3.7644,3.7584,3.7524,3.7524,0.0,0.0,3.7387,3.7387,3.7417,3.7494,3.7524,3.7524,3.7597,3.7644,3.7644,3.7644,3.8063,3.8512,3.8512,3.9612,4.0436,3.9661,4.019,4.0801,4.0801,4.126,4.2202,4.3894,4.3826,4.3823,4.4724,4.4838,4.4838,4.4838,4.5399,4.5838,4.5838,0.0,0.0,4.5872,4.5838,4.5534,4.4871,4.477,4.4702,4.4702,4.4635,4.4262,4.3558,4.3524,4.32,4.257,4.257,4.257,4.257,4.2401,4.23,0.0,0.0,0.0,0.0,0.0,0.0,0.0,0.0,0.0,0.0,0.0,0.0,0.0,0.0,0.0,3.0283,3.1898,3.3335,3.4009,3.4009,3.4009,3.4278,3.4891,3.531,3.531,3.5429,3.5729,3.6284,3.6314,3.6507,3.7015,3.7165,3.7225,3.7225,3.7327,3.7674,3.8182,3.8212,3.8482,3.9002,0.0,0.0,3.9002,3.9002,3.9002,3.9002,3.9002,3.9092,3.9212,3.9212,3.9272,3.9361,3.9122,3.9002,3.9002,3.9002,3.8661,3.8212,3.8212,3.7853,3.7387,3.7387,3.7387,3.7494,3.8033,3.8212,0.0,3.8853,3.9002,3.9002,3.9002,3.9122,3.9212,3.9212,3.9854,4.0407,4.0254,4.0755,4.1264,4.1264,4.1384,4.1796,4.2851,4.4105,4.53,4.6229,4.636,4.636,4.636,4.6481,4.6597,4.6597,4.6733,4.6718,4.6583,4.6597,4.6515,4.6394,4.5805,4.55,4.55,4.4905,4.4547,4.4364,4.4364,4.4296,4.4161,4.4161,4.4161,4.4141,4.2875,4.23,0.0,0.0,0.0,0.0,0.0,0.0,0.0,0.0,0.0,0.0,0.0,2.8201,2.85,0.0,3.1719,3.2392,3.335,3.4061,3.425,3.4677,3.4997,3.4997,3.531,3.5519,3.5519,3.5789,3.6118,3.6464,3.6776,3.7075,3.7387,3.7734,3.7913,3.7913,3.8242,3.8554,3.8901,3.8901,3.908,3.9391,3.9391,3.9571,3.99,3.99,4.0079,4.0397,4.0397,4.0397,4.0397,4.0397,4.0397,4.0397,4.0397,4.0008,3.9391,3.9391,3.9182,3.8901,3.8901,3.8691,3.8404,3.8404,3.8404,3.8464,3.8811,3.8901,3.905,3.969,3.99,3.9978,4.0307,4.0397,4.0397,4.0397,4.0666,4.0894,4.0894,4.1164,4.1403,4.1403,4.1673,4.2176,4.3099,4.4281,4.5181,4.5371,4.5399,4.5557,4.6057,4.6437,4.6825,4.7316,4.7665,4.7767,4.7394,4.7022,4.68,4.68,4.6447,4.6244,4.6244,4.592,4.5684,4.5684,4.5684,4.5684,4.5684,4.5684,4.5684,4.5684,4.4905,4.4161,0.0,0.0,0.0,0.0,0.0,0.0,0.0,0.0,2.7008,2.7966,2.9129,3.0177,3.0761,3.1841,3.2955,3.4056,3.415,3.4028,3.3785,3.4426,3.4981,3.5065,3.5456,3.5522,3.5128,3.6067,3.6565,3.6296,3.6907,3.7349,3.7468,3.7991,3.8377,3.8601,3.9122,3.9451,3.9601,3.9601,3.966,3.978,3.978,4.0068,4.0576,4.0576,4.0894,4.1403,4.1403,4.1403,4.1403,4.1403,4.1403,4.1403,4.1403,4.0726,3.978,3.978,3.978,3.978,3.978,3.978,3.978,3.978,3.978,3.978,3.978,3.978,3.99,4.0427,4.0576,4.0696,4.1254,4.1403,4.1403,4.1403,4.1493,4.1583,4.1583,4.1703,4.1773,4.1773,4.2211,4.2812,4.3586,4.416,4.4483,4.4429,4.4441,4.4712,4.5457,4.6224,4.6991,4.775,4.8539,4.8766,4.8157,4.7564,4.724,4.724,4.709,4.7022,4.7022,4.6887,4.68,4.68,4.68,4.68,4.68,4.68,4.68,4.68,4.68,4.6157,2.1767,2.2443,2.3602,2.4833,2.5039,2.5508,0.0,0.0,2.7779,2.9756,3.0777,3.1481,3.2153,3.2685,3.3091,3.3235,3.301,3.2821,3.277,3.2841,3.3099,3.3574,3.5252,3.5658,3.3792,3.5857,3.6781,3.5525,3.6303,3.7137,3.7715,3.7831,3.8299,3.9254,3.9361,3.969,4.0277,4.0277,4.0576,4.1194,4.1194,4.1224,4.1283,4.1283,4.1343,4.1403,4.1403,4.1403,4.1403,4.1403,4.1403,4.1403,4.1403,4.1313,4.1194,4.1194,4.1194,4.1194,4.1194,4.1194,4.1194,4.1194,4.1194,4.1194,4.1194,4.1194,4.1194,4.1283,4.1283,4.1313,4.1373,4.1403,4.1403,4.1403,4.1852,4.2291,4.2291,4.2701,4.31,4.31,4.316,4.3229,4.3348,4.3427,4.4029,4.5684,4.5967,4.6002,4.6107,4.6924,4.7523,4.7605,4.8446,4.8984,4.8868,4.8815,4.8748,4.8748,4.8124,4.7785,4.7785,4.7158,4.68,4.68,4.68,4.68,4.68,4.68,4.68,4.68,4.68,4.6733,2.2824,2.331,2.4008,0.0,2.5558,2.6046,2.8135,2.8819,2.9316,3.0348,3.1557,3.2328,3.2045,3.2421,3.282,0.0,3.2702,3.2397,3.1865,3.2518,3.2736,3.1866,3.4168,3.5307,3.4047,3.5301,3.5929,3.5347,3.5999,3.6557,3.6857,3.7472,3.8186,3.9017,3.9654,4.0307,4.0984,4.0965,4.1134,4.1403,4.1403,4.1583,4.1972,4.1972,4.2182,4.2502,4.2502,4.2502,4.2502,4.2502,4.2502,4.2502,4.2502,4.2502,4.2432,4.1673,4.1403,4.1403,4.1403,4.1403,4.1403,4.1403,4.1403,4.1403,4.1403,4.1403,4.1493,4.1852,4.1972,4.2062,4.2432,4.2502,4.2502,4.2502,4.2731,4.291,4.291,4.313,4.329,4.329,4.329,4.3409,4.3818,4.3878,4.4298,4.549,4.501,4.4918,4.6049,4.6927,4.8007,4.9541,5.0047,5.0288,5.0288,5.0288,5.0101,4.9661,4.9357,4.8984,4.8563,4.824,4.8071,4.8071,4.8071,4.8071,4.8071,4.8071,4.8071,4.8071,4.8071,4.8071,2.3728,0.0,0.0,2.5774,2.6187,2.6761,2.8546,2.952,3.0223,3.0758,3.1831,3.2529,3.1982,3.2069,3.22,3.22,3.201,3.1626,3.113,3.1944,3.2227,3.117,3.3066,3.431,3.4009,3.4921,3.5331,3.4739,3.5377,3.5856,3.6,3.6746,3.7742,3.8985,3.946,4.0349,4.1673,4.1356,4.1426,4.1923,4.1923,4.2182,4.2661,4.2661,4.288,4.329,4.329,4.329,4.329,4.329,4.329,4.329,4.329,4.329,4.319,4.2252,4.1923,4.1923,4.1923,4.1923,4.1923,4.1923,4.1923,4.1923,4.1923,4.1923,4.2013,4.2511,4.2661,4.275,4.319,4.329,4.329,4.329,4.329,4.3349,4.3549,4.3579,4.3638,4.3818,4.3848,4.3997,4.4496,4.4586,4.4736,4.5214,4.4476,4.4345,4.5778,4.6632,4.7963,5.0124,5.061,5.0792,5.0792,5.1021,5.0964,5.0439,5.0405,5.0168,4.9627,4.9627,4.9627,4.9627,4.9627,4.9627,4.9627,4.9627,4.9627,4.9627,4.9627,4.9627,0.0,0.0,2.5042,2.6206,2.6886,2.7644,2.9057,2.9399,2.982,3.1267,3.1595,3.1823,3.2455,3.1838,3.1241,3.1241,3.0476,3.0058,3.0547,3.0667,3.1045,3.2039,3.2231,3.2521,0.0,3.4987,3.5352,3.3343,3.4137,3.4977,3.549,3.5537,3.6803,3.9498,3.855,3.941,4.2331,4.123,4.1502,4.323,4.323,4.323,4.326,4.326,4.326,4.329,4.329,4.329,4.329,4.329,4.329,4.329,4.329,4.329,4.329,4.326,4.323,4.323,4.323,4.323,4.323,4.323,4.323,4.323,4.323,4.323,4.325,4.326,4.326,4.326,4.329,4.329,4.329,4.329,4.329,4.3489,4.4117,4.4267,4.4446,4.5095,4.5244,4.5244,4.5274,4.5274,4.5274,4.5304,4.5274,4.5265,4.5297,4.6131,4.7102,4.8087,4.9118,4.9762,4.9762,5.0626,5.1201,5.1167,5.1167,5.1167,5.1133,5.1133,5.1133,5.1133,5.1133,5.1133,5.1133,5.1133,5.1133,5.1133,5.1133,5.1133,2.4908,0.0,2.618,2.7286,2.7695,2.8062,2.8886,2.9572,3.0127,3.0362,3.0903,3.1204,3.082,3.0476,3.0273,3.0273,3.0011,2.998,3.0512,3.0909,3.1411,3.2093,3.2541,0.0,0.0,0.0,0.0,3.3154,3.3762,3.4258,3.4415,3.5444,3.6668,3.8048,3.9124,4.0043,4.073,4.1084,4.1199,4.1042,4.1823,4.2569,4.329,4.329,4.329,4.329,4.329,4.329,4.329,4.329,4.329,4.329,4.329,4.329,4.329,4.329,4.329,4.329,4.329,4.329,4.329,4.329,4.329,4.329,4.329,4.329,4.329,4.329,4.329,4.329,4.329,4.3638,4.3967,4.3967,4.4296,4.4706,4.4915,4.4975,4.5035,4.5244,4.5304,4.5454,4.5882,4.5942,4.6091,4.6561,4.6395,4.6405,4.6905,4.839,4.9742,5.054,5.1582,5.2218,5.2218,5.2522,5.2486,5.1945,5.1928,5.1708,5.1235,5.1201,5.1201,5.1201,5.1201,5.1201,5.1201,5.1201,5.1201,5.1201,5.1201,5.1201,2.5728,2.6331,2.7035,2.8122,2.838,2.853,2.9082,2.9736,3.0094,2.9839,3.0113,3.0256,2.9889,2.9453,2.9327,2.9729,2.9804,3.0055,3.0783,3.1361,3.1888,3.2466,3.2842,3.309,0.0,0.0,0.0,3.3391,3.3696,3.4073,3.4452,3.5449,3.6486,3.7549,3.8564,3.9363,3.9885,4.0182,4.0397,4.0511,4.1678,4.2707,4.3668,4.3668,4.3788,4.3997,4.3997,4.3997,4.3997,4.3997,4.3997,4.3997,4.3997,4.3997,4.3997,4.3997,4.3997,4.3938,4.3489,4.3439,4.3668,4.3668,4.3818,4.3997,4.3997,4.3997,4.3997,4.3997,4.3997,4.3997,4.3997,4.4326,4.4676,4.4676,4.4975,4.5364,4.5603,4.5663,4.5723,4.5963,4.6022,4.6142,4.657,4.6659,4.6779,4.7249,4.7071,4.7099,4.7548,4.8757,4.9751,5.0198,5.1192,5.199,5.2363,5.2731,5.2858,5.2757,5.2739,5.2536,5.2046,5.2013,5.2013,5.2013,5.2013,5.2013,5.2013,5.2013,5.2013,5.2013,5.2013,5.2013,2.6256,2.6959,2.762,2.8681,2.8957,2.9107,2.9654,2.9804,2.9779,2.9754,2.9283,2.9057,0.0,0.0,2.8499,2.9578,2.9804,3.0226,3.1235,3.1863,3.2416,0.0,0.0,0.0,0.0,0.0,0.0,3.3972,0.0,3.4427,3.5433,3.5533,3.6289,3.7971,3.701,3.7543,3.9689,3.8608,3.921,4.1499,4.2596,4.3527,4.4245,4.4184,4.4553,4.5304,4.5212,4.5233,4.5304,4.5304,4.5304,4.5304,4.5304,4.5304,4.5304,4.5304,4.5304,4.5125,4.3848,4.3818,4.4356,4.4356,4.4796,4.5304,4.5304,4.5304,4.5304,4.5304,4.5304,4.5304,4.5304,4.5334,4.5334,4.5334,4.5364,4.5574,4.6211,4.636,4.654,4.7189,4.7309,4.7309,4.7309,4.7309,4.7309,4.7309,4.7309,4.7309,4.7309,4.7322,4.7396,4.7396,4.8335,4.9376,5.0378,5.1377,5.2401,5.3416,5.3518,5.3518,5.3518,5.3518,5.3518,5.3518,5.3518,5.3518,5.3518,5.3518,5.3518,5.3518,5.3551,5.3551,2.7412,2.8097,2.8656,2.9402,2.9578,2.9603,2.9754,2.9804,2.9679,2.9208,2.9007,2.8831,0.0,0.0,0.0,2.9082,2.9835,0.0,3.1331,3.1863,0.0,3.304,0.0,3.3266,3.3646,3.3822,0.0,0.0,3.5082,3.5207,3.5483,3.5931,3.6371,3.6826,3.7379,3.754,3.7289,3.7375,3.8166,3.9609,4.0341,4.172,4.3602,4.2634,4.3337,4.5263,4.4291,4.4418,4.5304,4.5304,4.5304,4.5304,4.5304,4.5304,4.5304,4.5304,4.5304,4.5244,4.4915,4.4915,4.5035,4.5035,4.5155,4.5304,4.5304,4.5304,4.5304,4.5304,4.5304,4.5304,4.5304,4.5663,4.6031,4.6031,4.6441,4.683,4.701,4.707,4.71,4.7279,4.7309,4.7309,4.7309,4.7309,4.7309,4.7309,4.7309,4.7309,4.7309,4.7946,4.8439,4.8439,5.0016,5.1229,5.1488,5.2487,5.3196,5.3467,5.3518,5.3518,5.3518,5.3518,5.3518,5.3518,5.3518,5.3518,5.3518,5.3518,5.3518,5.3518,5.4059,5.4329,2.8172,2.8856,2.9377,2.9704,2.9804,2.9729,2.9478,2.9428,2.9233,2.8656,2.8355,0.0,2.8104,0.0,0.0,0.0,0.0,0.0,3.1311,3.2089,3.2717,0.0,3.3316,0.0,3.3872,3.4349,3.4853,0.0,3.5508,3.5631,3.5881,3.623,3.6405,3.6405,3.701,3.7162,3.6757,3.779,3.8668,3.9304,4.0161,4.1406,4.2975,4.225,4.2868,4.45,0.0,4.4676,4.5387,4.596,4.6172,4.6172,4.6172,4.6172,4.6172,4.6172,4.6172,4.6172,4.6172,4.6172,4.6142,4.5843,4.5933,4.6172,4.6172,4.6172,4.6172,4.6172,4.6172,4.6172,4.6172,4.6471,4.6719,4.6719,4.704,4.7309,4.7309,4.7309,4.7309,4.7309,4.7309,4.7399,4.7698,4.7728,4.7848,4.8117,4.8199,4.8199,4.8199,4.8412,4.8706,4.898,5.006,5.1136,5.2097,5.2729,5.3469,5.4413,5.4448,5.4448,5.4448,5.4448,5.4448,5.4448,5.4448,5.4448,5.4448,5.4448,5.4448,5.4481,5.4905,5.5074,2.8731,2.9383,2.9804,2.9804,2.9804,2.9628,2.9032,2.8888,2.8706,2.8021,0.0,2.7412,2.772,2.7494,2.762,2.8631,0.0,3.0809,3.1311,3.2386,3.3115,3.319,3.3621,3.3947,3.4098,3.4954,3.5533,3.5608,3.5631,3.5832,3.638,3.6405,3.643,3.6482,3.6505,3.6758,3.7287,3.8908,3.9673,3.9697,4.074,4.1645,4.2352,4.2214,4.2629,4.3551,4.4489,4.5001,4.5229,4.6344,4.6909,4.704,4.704,4.7127,4.7309,4.7309,4.7309,4.7309,4.7309,4.7309,4.7219,4.6629,4.6809,4.7309,4.7309,4.7309,4.7309,4.7309,4.7309,4.7309,4.7309,4.7309,4.7309,4.7309,4.7309,4.7309,4.7309,4.7369,4.7429,4.7429,4.7489,4.7758,4.8349,4.8438,4.8618,4.9187,4.9277,4.9307,4.9396,4.8828,4.8648,4.9217,4.9434,5.0314,5.2336,5.2637,5.3569,5.5559,5.5699,5.5699,5.5699,5.5699,5.5699,5.5699,5.5699,5.5699,5.5699,5.5699,5.5699,5.5699,5.58,5.5834,2.9327,2.9704,2.9804,2.9804,2.9804,2.9628,2.9032,2.8888,0.0,0.0,2.706,2.7035,2.6189,2.6733,2.7512,2.8147,0.0,0.0,0.0,0.0,3.3266,0.0,0.0,0.0,0.0,0.0,0.0,0.0,3.623,3.6281,3.6405,3.6405,3.6582,3.706,3.706,3.7336,3.7864,3.8641,3.9069,3.9069,3.9702,4.061,4.1703,4.0664,4.1413,4.3456,4.2617,0.0,4.3858,4.4069,4.4794,4.5734,4.5734,4.6366,4.7309,4.7309,4.7309,4.7309,4.7309,4.7309,4.7279,4.716,4.7219,4.7309,4.7309,4.7309,4.7309,4.7309,4.7309,4.7309,4.7309,4.7309,4.7309,4.7309,4.7309,4.7309,4.7309,4.7728,4.8139,4.8139,4.8588,4.8977,4.9097,4.9127,4.9179,4.9277,4.9277,4.9486,4.9979,4.9494,4.9157,4.9299,5.0031,5.1067,5.2397,5.3266,5.432,5.5628,5.5699,5.5699,5.5699,5.5699,5.5699,5.5699,5.5699,5.5699,5.5699,5.5699,5.5699,5.5699,5.6325,5.663,2.9478,2.9804,2.9804,2.9804,2.9804,2.9553,2.8681,0.0,0.0,0.0,2.6013,2.5912,2.5636,2.6306,0.0,2.7971,0.0,0.0,0.0,0.0,0.0,0.0,0.0,0.0,0.0,0.0,0.0,0.0,3.6405,3.6405,3.6405,3.6658,3.706,3.7588,3.7939,3.8215,3.8492,3.9019,3.9321,3.9321,3.9572,4.0032,4.0592,3.9981,4.0364,4.1517,4.1566,0.0,4.2593,4.3952,4.4863,4.5457,4.6144,4.6748,4.7309,4.7309,4.7309,4.7309,4.7309,4.7309,4.7309,4.7309,4.7309,4.7309,4.7309,4.7309,4.7309,4.7309,4.7309,4.7309,4.7309,4.7309,4.7399,4.7728,4.8087,4.8349,4.8349,4.8588,4.8828,4.8828,4.9067,4.9396,4.9703,4.9763,4.9883,5.0242,5.0272,5.0391,5.0697,5.0481,5.0272,5.0272,5.0714,5.1458,5.2617,5.3708,5.4796,5.5892,5.6511,5.6833,5.6833,5.6833,5.6833,5.6833,5.6833,5.6833,5.6833,5.6833,5.6833,5.6867,5.7205,5.7374,2.9478,2.9804,2.9804,2.9804,2.9804,2.9503,2.8373,2.7688,0.0,0.0,2.5093,2.4917,2.536,0.0,2.6683,0.0,2.9408,3.0658,0.0,0.0,0.0,0.0,0.0,0.0,0.0,0.0,0.0,0.0,3.6505,3.6581,3.6581,3.7085,3.7613,3.8165,3.8668,3.8944,3.907,3.9471,3.9697,3.9697,3.9697,3.9697,3.9697,3.9697,3.9697,3.9774,4.0769,0.0,4.1344,4.3361,4.4326,4.4674,4.5689,4.6388,4.6909,4.6909,4.7062,4.7309,4.7309,4.7309,4.7309,4.7309,4.7309,4.7309,4.7309,4.7309,4.7309,4.7309,4.7399,4.7519,4.7519,4.7608,4.7848,4.8409,4.8917,4.9277,4.9277,4.9396,4.9486,4.9486,4.9606,4.9875,5.0338,5.0405,5.0607,5.1116,5.1206,5.1206,5.1206,5.1206,5.1206,5.1206,5.1206,5.1658,5.279,5.3935,5.5084,5.6145,5.7279,5.79,5.79,5.79,5.79,5.79,5.79,5.79,5.79,5.79,5.79,5.79,5.79,5.79,2.9478,2.9804,2.9804,2.9804,2.9804,2.9503,2.8373,0.0,0.0,2.5218,2.4842,2.4816,2.4867,2.5335,0.0,0.0,0.0,3.0231,0.0,0.0,0.0,0.0,0.0,0.0,0.0,0.0,0.0,3.6405,3.6859,3.7135,3.7135,3.7638,3.8191,3.8793,3.8869,3.9145,3.9622,3.9672,3.9697,3.9697,3.9697,3.9697,3.9697,3.9697,3.9697,3.9723,3.9801,0.0,0.0,4.0134,4.092,4.1961,4.2084,4.3551,4.5576,4.5576,4.6299,4.7309,4.7309,4.7309,4.7309,4.7309,4.7309,4.7309,4.7309,4.7309,4.7309,4.7309,4.7728,4.8229,4.8229,4.8648,4.9127,4.9187,4.9269,4.9277,4.9277,4.9733,5.0129,5.0129,5.0607,5.1026,5.1086,5.1116,5.1116,5.1176,5.1206,5.1206,5.1206,5.1206,5.1206,5.1206,5.1206,5.1658,5.279,5.3935,5.5084,5.6145,5.7279,5.79,5.79,5.79,5.79,5.79,5.79,5.79,5.79,5.79,5.79,5.79,5.79,5.79,2.8976,2.9528,2.9804,2.9804,2.9528,2.9057,2.8273,0.0,2.5988,2.4992,2.4249,2.3973,2.465,2.4967,2.5661,2.7344,2.8549,0.0,3.0331,0.0,0.0,0.0,0.0,0.0,0.0,0.0,0.0,3.6859,3.7713,3.8215,3.8215,3.8441,3.8818,3.9371,3.9396,3.9471,3.9697,3.9697,3.9697,3.9697,3.9697,3.9697,3.9697,3.9697,3.9697,3.9697,3.9697,0.0,0.0,4.0542,4.1144,4.1739,4.3289,4.4512,4.5508,4.6255,4.6866,4.7309,4.7309,4.7549,4.7908,4.7908,4.8147,4.8438,4.8027,4.8177,4.8498,4.8498,4.8708,4.8887,4.8887,4.9374,4.9853,4.9853,5.0152,5.0451,5.0451,5.0607,5.0817,5.0817,5.1026,5.1206,5.1206,5.1206,5.1206,5.1206,5.1206,5.1206,5.1206,5.1206,5.1206,5.1206,5.1206,5.1386,5.1842,5.2923,5.4062,5.5186,5.6263,5.717,5.7863,5.79,5.79,5.79,5.79,5.79,5.79,5.79,5.79,5.79,5.79,5.79,2.8605,2.9333,2.9804,2.9804,2.9333,2.8756,0.0,0.0,2.546,2.4917,2.3898,2.3446,2.4591,2.4816,2.5343,2.7035,2.8204,2.9157,2.993,3.1286,0.0,0.0,0.0,0.0,0.0,3.6431,3.6859,3.7387,3.8341,3.8969,3.9145,3.9145,3.9321,3.9697,3.9697,3.9697,3.9697,3.9697,3.9697,3.9697,3.9697,3.9697,3.9697,3.9697,3.9697,3.9697,3.9697,0.0,0.0,4.0668,4.1019,4.1219,4.3002,4.3952,4.4373,4.5275,4.6216,4.7044,4.7044,4.7711,4.8588,4.8588,4.9037,4.9464,4.9015,4.9067,4.9277,4.9277,4.9426,4.9606,4.9816,5.0182,5.0518,5.0518,5.0877,5.1206,5.1206,5.1206,5.1206,5.1206,5.1206,5.1206,5.1206,5.1206,5.1206,5.1206,5.1206,5.1206,5.1206,5.1206,5.1206,5.1206,5.1206,5.1206,5.1206,5.2553,5.3742,5.4547,5.5929,5.7057,5.7863,5.79,5.79,5.79,5.79,5.79,5.79,5.79,5.79,5.79,5.79,5.79,2.8605,2.9333,2.9804,2.9804,2.9333,2.8756,0.0,0.0,2.546,2.4917,2.3898,2.3446,2.4591,2.4816,2.5343,2.7035,2.8204,2.9308,3.0437,3.1516,0.0,0.0,0.0,0.0,0.0,3.6533,3.7412,3.7965,3.8567,0.0,3.9647,3.9697,3.9697,3.9697,3.9697,3.9697,3.9697,3.9697,3.9697,3.9697,3.9697,3.9697,3.9697,3.9697,3.9697,3.9697,3.9697,3.9697,0.0,3.9723,3.9723,3.9723,3.9749,4.0542,4.164,4.164,4.3647,4.6408,4.6408,4.7678,4.9299,4.9299,4.9703,5.0196,5.0166,4.9763,4.9277,4.9277,4.9733,5.0338,5.0996,5.1176,5.1176,5.1176,5.1176,5.1206,5.1206,5.1206,5.1206,5.1206,5.1206,5.1206,5.1206,5.1206,5.1206,5.1206,5.1206,5.1206,5.1206,5.1206,5.1206,5.1206,5.1206,5.1206,5.1206,5.3296,5.4589,5.461,5.6677,5.7881,5.79,5.79,5.79,5.79,5.79,5.79,5.79,5.79,5.79,5.79,5.79,5.79,2.706,2.7921,2.8549,2.819,2.7964,2.767,2.7135,2.5988,2.4892,2.4365,2.3637,2.3446,2.4591,2.4816,2.5343,2.7035,2.8204,2.9183,0.0,0.0,0.0,0.0,0.0,0.0,0.0,0.0,3.799,3.8567,3.9145,3.9521,3.9697,3.9697,3.9697,3.9697,3.9697,3.9697,3.9697,3.9697,3.9697,3.9697,3.9697,3.9697,3.9697,3.9697,3.9697,0.0,3.9697,3.9697,3.9697,3.9697,3.9697,3.98,4.0642,4.1244,4.1866,4.4069,4.551,4.6582,4.7904,4.9049,4.992,4.992,5.0338,5.0877,5.0877,5.0727,5.0601,5.0601,5.0727,5.0936,5.1146,5.1206,5.1206,5.1206,5.1206,5.1206,5.1206,5.1206,5.1206,5.1206,5.1206,5.1206,5.1206,5.1206,5.1206,5.1206,5.1206,5.1206,5.1206,5.1206,5.1206,5.1206,5.1206,5.1206,5.1206,5.1865,5.2945,5.4505,5.5268,5.6315,5.7845,5.79,5.79,5.79,5.79,5.79,5.79,5.79,5.79,5.79,5.79,5.79,0.0,2.7153,2.777,2.762,2.7311,0.0,2.6575,2.5477,2.439,2.4079,2.3537,2.3446,2.4591,2.4816,2.5268,2.6758,2.7896,2.8881,0.0,0.0,0.0,0.0,0.0,0.0,0.0,3.7563,3.8241,3.8843,3.9396,3.9697,3.9697,3.9697,3.9697,3.9697,3.9697,3.9697,3.9697,3.9697,3.9697,3.9697,3.9697,3.9697,3.9697,3.9697,3.9697,3.9697,3.9697,3.9697,0.0,3.9697,3.9697,3.98,4.0567,4.1024,4.1484,4.4007,4.556,4.6614,4.8325,4.9664,5.0578,5.0578,5.0877,5.1206,5.1206,5.1206,5.1206,5.1206,5.1206,5.1206,5.1206,5.1206,5.1206,5.1206,5.1206,5.1206,5.1206,5.1206,5.1206,5.1206,5.1206,5.1206,5.1206,5.1206,5.1206,5.1206,5.1206,5.1206,5.1206,5.1206,5.1206,5.1206,5.1206,5.1206,5.1206,5.1588,5.2642,5.4484,5.5002,5.6008,5.7827,5.79,5.79,5.79,5.79,5.79,5.79,5.79,5.79,5.79,5.79,5.79,0.0,2.6708,2.7236,2.7695,2.7085,2.6373,2.6323,2.5125,0.0,2.3954,2.3487,2.3471,2.4641,2.4842,2.5193,2.6424,2.7487,2.8549,0.0,3.0884,0.0,0.0,3.4929,0.0,3.6457,3.7436,3.8266,3.8919,3.9421,3.9697,3.9697,3.9697,3.9697,3.9697,3.9697,3.9697,3.9697,3.9697,3.9697,3.9697,3.9697,3.9697,3.9697,3.9697,3.9697,0.0,3.9697,3.9697,3.9697,3.9697,3.9697,3.9697,3.9747,4.0074,4.0658,4.216,4.4221,4.6512,4.7876,4.962,5.1206,5.1206,5.1206,5.1206,5.1206,5.1206,5.1206,5.1206,5.1206,5.1206,5.1206,5.1206,5.1206,5.1206,5.1206,5.1206,5.1206,5.1206,5.1206,5.1206,5.1206,5.1206,5.1206,5.1206,5.1206,5.1206,5.1206,5.1206,5.1206,5.1206,5.1206,5.1206,5.1206,5.1206,5.1206,5.2237,5.3374,5.4526,5.5631,5.6701,5.7845,5.79,5.79,5.79,5.79,5.79,5.79,5.79,5.79,5.79,5.79,5.79,2.4356,0.0,2.5318,2.5034,2.5084,2.5084,0.0,2.428,2.3879,0.0,0.0,2.3572,2.5134,2.5067,2.5444,2.7419,2.8298,2.9107,3.0236,0.0,0.0,3.5029,3.5755,3.6582,3.7538,3.7864,3.8417,3.9421,3.9622,3.9697,3.9697,3.9697,3.9697,3.9697,3.9697,3.9697,3.9697,3.9697,3.9697,3.9697,3.9697,3.9697,3.9697,3.9697,3.9697,3.9697,3.9697,3.9697,3.9697,3.9697,3.9697,3.9747,4.0149,4.04,4.0759,4.2997,4.4871,4.6567,4.8366,4.9948,5.1206,5.1206,5.1206,5.1206,5.1206,5.1206,5.1206,5.1206,5.1206,5.1206,5.1206,5.1206,5.1206,5.1206,5.1206,5.1206,5.1206,5.1206,5.1206,5.1206,5.1206,5.1206,5.1206,5.1206,5.1206,5.1206,5.1206,5.1206,5.1206,5.1206,5.1206,5.1206,5.1206,5.1206,5.1206,5.2237,5.3374,5.4526,5.5631,5.6701,5.7845,5.79,5.79,5.79,5.79,5.79,5.79,5.79,5.79,5.79,5.79,5.79,2.3512,2.4189,2.4791,2.4757,2.4766,2.4716,2.4415,0.0,0.0,0.0,0.0,2.3547,2.4967,2.5193,2.5737,2.7444,2.8624,0.0,0.0,0.0,0.0,3.5433,3.6031,3.6808,0.0,3.8015,3.8467,3.9597,3.9697,3.9697,3.9697,3.9697,3.9697,3.9697,3.9697,3.9697,3.9697,3.9697,3.9697,3.9697,3.9697,3.9697,3.9697,3.9697,3.9697,3.9697,3.9697,3.9697,3.9697,3.9697,3.9848,4.0099,4.04,4.0827,4.1517,4.3466,4.525,4.6906,4.8599,5.0095,5.1206,5.1206,5.1206,5.1206,5.1206,5.1206,5.1206,5.1206,5.1206,5.1206,5.1206,5.1206,5.1206,5.1206,5.1206,5.1206,5.1206,5.1206,5.1206,5.1206,5.1206,5.1206,5.1206,5.1206,5.1206,5.1206,5.1206,5.1206,5.1206,5.1206,5.1206,5.1206,5.1206,5.1206,5.1206,5.2237,5.3374,5.4526,5.5134,5.6217,5.7827,5.79,5.79,5.79,5.79,5.79,5.79,5.79,5.79,5.7934,5.8254,5.8389,2.3221,2.4064,2.4967,2.5184,2.4958,2.4691,2.4691,0.0,0.0,0.0,0.0,0.0,0.0,2.5485,0.0,0.0,0.0,0.0,3.2914,3.4073,3.4929,3.5558,3.6157,0.0,3.7914,3.809,3.8567,3.9622,3.9697,3.9697,3.9697,3.9697,3.9697,3.9697,3.9697,3.9697,3.9697,3.9697,3.9697,3.9697,3.9697,3.9697,3.9697,3.9697,3.9697,3.9697,0.0,0.0,3.9697,3.9697,4.0023,4.0499,4.0575,4.1254,4.2377,4.3806,4.5494,4.7325,4.8964,5.0239,5.1206,5.1206,5.1206,5.1206,5.1206,5.1206,5.1206,5.1206,5.1206,5.1206,5.1206,5.1206,5.1206,5.1206,5.1206,5.1206,5.1206,5.1206,5.1206,5.1206,5.1206,5.1206,5.1206,5.1206,5.1206,5.1206,5.1206,5.1206,5.1206,5.1206,5.1206,5.1206,5.1206,5.1206,5.1206,5.2086,5.3143,5.4274,5.4505,5.551,5.7554,5.7628,5.7701,5.79,5.79,5.7967,5.8051,5.8051,5.8137,5.8254,5.8896,5.9148,2.3712,2.4657,2.5159,2.3838,2.3813,2.413,2.413,0.0,0.0,0.0,0.0,0.0,0.0,2.6608,2.701,0.0,0.0,3.1783,0.0,0.0,3.5102,3.613,0.0,3.7336,3.7939,3.8442,3.9019,3.9647,3.9697,3.9697,3.9697,3.9697,3.9697,3.9697,3.9697,3.9697,3.9697,3.9697,3.9697,3.9697,3.9697,3.9697,3.9697,3.9697,3.9697,3.9697,0.0,3.9697,3.9697,3.9697,4.0023,4.0549,4.1001,4.1605,4.2427,4.4222,4.5818,4.7453,4.9993,5.1035,5.1206,5.1206,5.1206,5.1206,5.1206,5.1206,5.1206,5.1206,5.1206,5.1206,5.1206,5.1206,5.1206,5.1206,5.1206,5.1206,5.1206,5.1206,5.1206,5.1206,5.1206,5.1206,5.1206,5.1206,5.1206,5.1206,5.1206,5.1206,5.1206,5.1206,5.1206,5.1206,5.1206,5.1206,5.1206,5.1363,5.1949,5.3099,5.4062,5.5166,5.6398,5.6456,5.6925,5.7881,5.79,5.822,5.881,5.881,5.9167,5.9776,5.9877,5.9945,2.3436,2.4315,2.4967,2.4214,2.4908,2.5762,2.5762,0.0,0.0,0.0,0.0,0.0,0.0,0.0,2.8524,3.0733,0.0,3.2792,3.4126,3.4803,3.5431,0.0,0.0,3.7387,3.7939,3.8567,3.912,3.9647,3.9697,3.9697,3.9697,3.9697,3.9697,3.9697,3.9697,3.9697,3.9697,3.9697,3.9697,3.9697,3.9697,3.9697,3.9697,3.9697,3.9697,3.9697,0.0,3.9697,3.9722,4.0023,4.0449,4.0976,4.1555,4.2135,4.2803,4.4404,4.5899,4.7376,4.9406,5.0603,5.1206,5.1206,5.1206,5.1206,5.1206,5.1206,5.1206,5.1206,5.1206,5.1206,5.1206,5.1206,5.1206,5.1206,5.1206,5.1206,5.1206,5.1206,5.1206,5.1206,5.1206,5.1206,5.1206,5.1206,5.1206,5.1206,5.1206,5.1206,5.1206,5.1206,5.1206,5.1206,5.1206,5.1206,5.1206,5.1206,5.1681,5.2812,5.3977,5.5105,5.6165,5.6204,5.692,5.8472,5.849,5.8863,5.9607,5.9607,5.9776,6.0114,6.0554,6.0757,2.3271,2.4139,2.5017,2.5168,0.0,2.6984,2.7236,0.0,0.0,0.0,0.0,0.0,0.0,2.8875,0.0,3.1918,3.2792,3.3621,3.4552,3.5157,3.5732,3.6331,3.6984,3.7538,3.7965,3.8642,3.9271,3.9672,3.9697,3.9697,3.9697,3.9697,3.9697,3.9697,3.9697,3.9697,3.9697,3.9697,3.9697,3.9697,3.9697,3.9697,3.9697,3.9697,3.9697,3.9697,3.9697,3.9772,3.9923,4.035,4.0901,4.1553,4.2009,4.2732,4.3602,4.4643,4.6109,4.7732,4.8812,5.0095,5.1206,5.1206,5.1206,5.1206,5.1206,5.1206,5.1206,5.1206,5.1206,5.1206,5.1206,5.1206,5.1206,5.1206,5.1206,5.1206,5.1206,5.1206,5.1206,5.1206,5.1206,5.1206,5.1206,5.1206,5.1206,5.1206,5.1206,5.1206,5.1206,5.1206,5.1206,5.1206,5.1206,5.1265,5.1415,5.1415,5.1867,5.2901,5.3915,5.4938,5.6019,5.6514,5.7537,5.9197,5.925,5.9622,6.0385,6.0385,6.0452,6.0655,6.1264,6.1569,2.3763,2.4732,2.5678,2.6248,2.6055,0.0,2.706,0.0,0.0,0.0,0.0,0.0,0.0,3.0909,3.1993,3.2169,3.3119,3.4048,3.4628,0.0,3.5732,3.6331,3.7287,3.7965,3.8015,3.8994,3.9647,3.9697,3.9697,3.9697,3.9697,3.9697,3.9697,3.9697,3.9697,3.9697,3.9697,3.9697,3.9697,3.9697,3.9697,3.9697,3.9697,3.9697,3.9697,3.9697,3.9697,3.9973,4.045,4.0474,4.1153,4.2135,4.2187,4.3283,4.486,4.4968,4.6707,4.9063,4.9161,5.0095,5.1206,5.1206,5.1206,5.1206,5.1206,5.1206,5.1206,5.1206,5.1206,5.1206,5.1206,5.1206,5.1206,5.1206,5.1206,5.1206,5.1206,5.1206,5.1206,5.1206,5.1206,5.1206,5.1206,5.1206,5.1206,5.1206,5.1206,5.1206,5.1206,5.1206,5.1206,5.1206,5.1206,5.1445,5.2067,5.2127,5.2444,5.314,5.3722,5.4555,5.5708,5.7417,5.8873,5.9994,6.0013,6.0419,6.1231,6.1231,6.1569,6.2265,6.2299,6.2313,2.3371,2.4506,2.5636,2.5879,0.0,0.0,0.0,0.0,0.0,0.0,0.0,0.0,0.0,0.0,3.242,3.3144,3.3922,3.4577,3.5107,3.5705,3.6155,3.638,3.7361,3.8015,3.8015,3.9019,3.9697,3.9697,3.9697,3.9697,3.9697,3.9697,3.9697,3.9697,3.9697,3.9697,3.9697,3.9697,3.9697,3.9697,3.9697,3.9697,3.9697,3.9697,3.9697,3.9722,4.0049,4.0299,4.0549,4.1254,4.1808,4.2238,4.2562,4.3121,4.3742,4.3742,4.5502,4.7884,4.7884,4.9357,5.1206,5.1206,5.1206,5.1206,5.1206,5.1206,5.1206,5.1206,5.1206,5.1206,5.1206,5.1206,5.1206,5.1206,5.1206,5.1206,5.1206,5.1206,5.1206,5.1206,5.1206,5.1206,5.1206,5.1206,5.1206,5.1206,5.1206,5.1206,5.1206,5.1535,5.1828,5.1828,5.2187,5.2546,5.2785,5.2815,5.2929,5.3198,5.4081,5.5153,5.6263,5.7715,5.9239,6.0805,6.0858,6.1231,6.1975,6.1975,6.211,6.24,6.24,6.24,2.3371,2.4465,2.5653,0.0,0.0,0.0,0.0,0.0,0.0,0.0,0.0,0.0,0.0,0.0,0.0,0.0,3.4477,3.5082,3.5458,3.6006,3.6405,3.6405,3.7361,3.8015,3.8015,3.9019,3.9697,3.9697,3.9697,3.9697,3.9697,3.9697,3.9697,3.9697,3.9697,3.9697,3.9697,3.9697,3.9697,3.9697,3.9697,3.9697,3.9697,3.9697,3.9697,3.9722,4.0275,4.06,4.0826,4.1808,4.2313,4.2487,4.2864,4.3014,4.3014,4.3014,4.4725,4.7094,4.7094,4.8886,5.1206,5.1206,5.1206,5.1206,5.1206,5.1206,5.1206,5.1206,5.1206,5.1206,5.1206,5.1206,5.1206,5.1206,5.1206,5.1206,5.1206,5.1206,5.1206,5.1206,5.1206,5.1206,5.1206,5.1206,5.1206,5.1206,5.1206,5.1265,5.1475,5.1917,5.2276,5.2486,5.2929,5.3288,5.3503,5.3528,5.3593,5.3827,5.4969,5.5888,5.648,5.819,5.9755,6.1059,6.1461,6.1907,6.24,6.24,6.24,6.24,6.24,6.24,2.3979,2.4782,2.5753,0.0,0.0,0.0,0.0,0.0,0.0,0.0,0.0,0.0,0.0,0.0,0.0,3.3897,3.4803,3.5508,3.5508,3.6006,3.6405,3.6405,3.7337,3.799,3.8015,3.9019,3.9697,3.9697,3.9697,3.9697,3.9697,3.9697,3.9697,3.9697,3.9697,3.9697,3.9697,3.9697,3.9697,3.9697,3.9697,3.9697,3.9697,3.9697,3.9697,3.9747,4.0248,4.08,4.1378,4.1959,4.2512,4.3014,4.3014,4.3014,4.3014,4.3014,4.4752,4.7094,4.712,4.8886,5.1206,5.1206,5.1206,5.1206,5.1206,5.1206,5.1206,5.1206,5.1206,5.1206,5.1206,5.1206,5.1206,5.1206,5.1206,5.1206,5.1206,5.1206,5.1206,5.1206,5.1206,5.1206,5.1206,5.1206,5.1206,5.1206,5.1206,5.1445,5.2127,5.2217,5.2486,5.3169,5.3228,5.3473,5.4162,5.4221,5.4491,5.5149,5.6299,5.6681,5.6023,5.8959,6.0586,6.0586,6.1777,6.24,6.24,6.24,6.24,6.24,6.24,6.24,2.3487,2.4782,0.0,2.5929,0.0,0.0,0.0,0.0,0.0,0.0,0.0,0.0,0.0,0.0,0.0,3.4402,3.5054,3.5656,3.6056,3.6281,3.6405,3.6405,3.7009,3.7588,3.7965,3.8693,3.9296,3.9672,3.9697,3.9697,3.9697,3.9697,3.9697,3.9697,3.9697,3.9697,3.9697,3.9697,3.9697,3.9697,3.9697,3.9697,3.9697,3.9697,3.9898,4.03,4.0826,4.1378,4.1984,4.2537,4.2864,4.3014,4.3014,4.3014,4.3101,4.4071,4.5555,4.7223,4.8239,4.9727,5.1206,5.1206,5.1206,5.1206,5.1206,5.1206,5.1206,5.1206,5.1206,5.1206,5.1206,5.1206,5.1206,5.1206,5.1206,5.1206,5.1206,5.1206,5.1206,5.1206,5.1206,5.1206,5.1206,5.1206,5.1206,5.1206,5.1618,5.2336,5.3473,5.3623,5.3862,5.4521,5.461,5.467,5.488,5.491,5.497,5.5179,5.5526,5.6018,5.6658,5.9217,6.0586,6.0586,6.1777,6.24,6.24,6.24,6.24,6.24,6.24,6.24,2.4431,2.5603,0.0,2.6892,2.8197,2.9628,3.0281,0.0,0.0,0.0,0.0,3.2717,3.3316,3.3847,0.0,3.4929,3.5481,3.5981,3.6331,3.6405,3.6405,3.6405,3.6859,3.7387,3.7939,3.8567,3.912,3.9647,3.9697,3.9697,3.9697,3.9697,3.9697,3.9697,3.9697,3.9697,3.9697,3.9697,3.9697,3.9697,3.9697,3.9697,3.9697,3.9923,4.0199,4.0524,4.1329,4.1982,4.2537,4.2864,4.3014,4.3014,4.3014,4.3014,4.3101,4.3907,4.5422,4.7223,4.8088,4.963,5.1206,5.1206,5.1206,5.1206,5.1206,5.1206,5.1206,5.1206,5.1206,5.1206,5.1206,5.1206,5.1206,5.1206,5.1206,5.1206,5.1206,5.1206,5.1206,5.1206,5.1206,5.1206,5.1206,5.1206,5.1295,5.1535,5.2396,5.3294,5.4102,5.4431,5.476,5.5149,5.5179,5.5179,5.5179,5.5179,5.5179,5.5179,5.5179,5.572,5.6967,5.888,5.987,5.987,6.1521,6.24,6.24,6.24,6.24,6.24,6.24,6.24,2.608,0.0,0.0,2.858,2.8982,0.0,3.106,3.1863,3.2441,3.2989,0.0,3.3316,3.3796,3.4377,3.4929,3.5408,3.6006,3.6405,3.6405,3.6405,3.6405,3.6405,3.6833,3.7337,3.7939,3.8517,3.907,3.9647,3.9697,3.9697,3.9697,3.9697,3.9697,3.9697,3.9697,3.9697,3.9697,3.9697,3.9697,3.9697,3.9697,3.9697,3.9722,4.0275,4.0576,4.0727,4.1808,4.2537,4.3014,4.3014,4.3014,4.3014,4.3014,4.3014,4.3014,4.3129,4.4833,4.712,4.7248,4.9014,5.1206,5.1206,5.1206,5.1206,5.1206,5.1206,5.1206,5.1206,5.1206,5.1206,5.1206,5.1206,5.1206,5.1206,5.1206,5.1206,5.1206,5.1206,5.1206,5.1206,5.1206,5.1206,5.1206,5.1236,5.1558,5.2276,5.3414,5.4221,5.4281,5.482,5.5179,5.5179,5.5179,5.5179,5.5179,5.5179,5.5179,5.5179,5.5179,5.572,5.6967,5.8154,5.8857,5.8969,6.1235,6.24,6.24,6.24,6.24,6.24,6.24,6.24,2.5209,2.6515,0.0,0.0,2.9578,3.0959,3.1331,3.2164,3.2939,3.3065,3.342,3.3746,3.3872,3.4678,3.5357,3.5483,3.6006,3.6405,3.6405,3.6405,3.6405,3.6405,3.6482,3.6959,3.7914,3.8115,3.8617,3.9622,3.9697,3.9697,3.9697,3.9697,3.9697,3.9697,3.9697,3.9697,3.9697,3.9697,3.9697,3.9697,3.9697,3.9697,3.9722,4.0275,4.0978,4.1858,4.2537,4.2889,4.3014,4.3014,4.3014,4.3014,4.3014,4.3014,4.3129,4.4155,4.5634,4.7248,4.8364,4.9824,5.1206,5.1206,5.1206,5.1206,5.1206,5.1206,5.1206,5.1206,5.1206,5.1206,5.1206,5.1206,5.1206,5.1206,5.1206,5.1206,5.1206,5.1206,5.1206,5.1206,5.1206,5.1206,5.1206,5.1648,5.2396,5.3593,5.4012,5.4401,5.491,5.5089,5.5179,5.5179,5.5179,5.5179,5.5179,5.5179,5.5179,5.5179,5.5179,5.572,5.6967,5.8154,5.9236,6.0204,6.1656,6.24,6.24,6.24,6.24,6.24,6.24,6.24,2.5862,0.0,0.0,2.8775,0.0,3.1406,3.1406,3.2286,3.309,3.309,3.3542,3.3972,3.4248,3.4954,3.5583,3.5881,3.6205,3.6405,3.6405,3.6405,3.6405,3.6405,3.6405,3.6708,3.7538,3.7839,3.8366,3.9245,3.9546,3.9697,3.9697,3.9697,3.9697,3.9697,3.9697,3.9697,3.9697,3.9697,3.9697,3.9697,3.9697,3.9973,4.0474,4.075,4.1505,4.2587,4.2889,4.3014,4.3014,4.3014,4.3014,4.3014,4.3014,4.3014,4.3073,4.3769,4.5342,4.7197,4.7934,4.9504,5.1206,5.1206,5.1206,5.1206,5.1206,5.1206,5.1206,5.1206,5.1206,5.1206,5.1206,5.1206,5.1206,5.1206,5.1206,5.1206,5.1206,5.1206,5.1206,5.1206,5.1206,5.1295,5.1594,5.2516,5.3414,5.4102,5.4491,5.479,5.5149,5.5179,5.5179,5.5179,5.5179,5.5179,5.5179,5.5179,5.5179,5.5179,5.5179,5.572,5.6967,5.7598,5.879,6.0565,6.1777,6.24,6.24,6.24,6.24,6.24,6.24,6.24,2.649,0.0,2.8373,2.9503,3.0608,0.0,3.1406,3.2286,3.309,3.309,3.3596,3.4173,3.4628,3.523,3.5807,3.6306,3.6405,3.6405,3.6405,3.6405,3.6405,3.6405,3.6405,3.6607,3.716,3.7688,3.8241,3.8843,3.9396,3.9697,3.9697,3.9697,3.9697,3.9697,3.9697,3.9697,3.9697,3.9697,3.9697,3.9697,3.9697,4.0275,4.1302,4.1302,4.1904,4.3014,4.3014,4.3014,4.3014,4.3014,4.3014,4.3014,4.3014,4.3014,4.3014,4.3014,4.4725,4.7094,4.7094,4.8886,5.1206,5.1206,5.1206,5.1206,5.1206,5.1206,5.1206,5.1206,5.1206,5.1206,5.1206,5.1206,5.1206,5.1206,5.1206,5.1206,5.1206,5.1206,5.1206,5.1206,5.1295,5.1594,5.2426,5.3473,5.4251,5.4371,5.485,5.5179,5.5179,5.5179,5.5179,5.5179,5.5179,5.5179,5.5179,5.5179,5.5179,5.5179,5.5179,5.572,5.6967,5.7015,5.8062,6.0247,6.146,6.2169,6.24,6.24,6.24,6.24,6.24,6.2468,0.0,0.0,2.8373,0.0,3.0608,3.1406,0.0,0.0,3.309,0.0,3.3897,3.4603,3.4678,3.5554,3.6306,3.6405,3.6405,3.6405,3.6405,3.6405,3.6405,3.6405,3.6405,3.6607,3.716,3.7688,3.8241,3.8843,3.9396,3.9697,3.9697,3.9697,3.9697,3.9697,3.9697,3.9697,3.9697,3.9697,3.9697,3.9697,3.9697,4.0275,4.1302,4.1302,4.1904,4.3014,4.3014,4.3014,4.3014,4.3014,4.3014,4.3014,4.3014,4.3014,4.3014,4.3014,4.4725,4.7094,4.7094,4.8886,5.1206,5.1206,5.1206,5.1206,5.1206,5.1206,5.1206,5.1206,5.1206,5.1206,5.1206,5.1206,5.1206,5.1206,5.1206,5.1206,5.1206,5.1206,5.1206,5.1206,5.1678,5.2456,5.3713,5.4102,5.4401,5.497,5.5119,5.5179,5.5179,5.5179,5.5179,5.5179,5.5179,5.5179,5.5179,5.5179,5.5179,5.5179,5.5179,5.572,5.6967,5.7015,5.7644,5.9014,6.0225,6.1358,6.24,6.24,6.24,6.24,6.24,6.2753,2.5862,2.7143,2.8373,0.0,3.0608,3.1406,3.1406,0.0,3.309,3.309,3.3947,3.4703,3.4703,3.5629,3.6405,3.6405,3.6405,3.6405,3.6405,3.6405,3.6405,3.6405,3.6405,3.6482,3.6733,3.7513,3.8115,3.8366,3.9195,3.9697,3.9697,3.9697,3.9697,3.9697,3.9697,3.9697,3.9697,3.9697,3.9697,3.9697,3.9998,4.0549,4.1327,4.1656,4.2261,4.3014,4.3014,4.3014,4.3014,4.3014,4.3014,4.3014,4.3014,4.3014,4.3014,4.3014,4.4725,4.7094,4.7094,4.8886,5.1206,5.1206,5.1206,5.1206,5.1206,5.1206,5.1206,5.1206,5.1206,5.1206,5.1206,5.1206,5.1206,5.1206,5.1206,5.1206,5.1206,5.1206,5.1295,5.1708,5.2306,5.3054,5.4042,5.4521,5.485,5.5149,5.5179,5.5179,5.5179,5.5179,5.5179,5.5179,5.5179,5.5179,5.5179,5.5179,5.5179,5.5179,5.5179,5.5456,5.5992,5.5986,5.6566,5.7761,5.9631,6.087,6.1399,6.207,6.24,6.2415,6.2821,6.3193,0.0,0.0,2.777,2.9051,3.0281,3.1235,0.0,0.0,3.309,0.0,3.3847,3.4527,3.4678,3.5629,3.6405,3.6405,3.6405,3.6405,3.6405,3.6405,3.6405,3.6405,3.6405,3.6405,3.6405,3.7261,3.7864,3.799,3.8919,3.9546,3.9697,3.9697,3.9697,3.9697,3.9697,3.9697,3.9697,3.9697,3.9697,3.9697,4.0249,4.0775,4.1327,4.1934,4.2487,4.3014,4.3014,4.3014,4.3014,4.3014,4.3014,4.3014,4.3014,4.3014,4.3042,4.3379,4.5021,4.7146,4.7503,4.921,5.1206,5.1206,5.1206,5.1206,5.1206,5.1206,5.1206,5.1206,5.1206,5.1206,5.1206,5.1206,5.1206,5.1206,5.1206,5.1206,5.1206,5.1325,5.1648,5.2306,5.2995,5.3653,5.4341,5.488,5.5179,5.5179,5.5179,5.5179,5.5179,5.5179,5.5179,5.5179,5.5179,5.5179,5.5179,5.5179,5.5179,5.5179,5.5179,5.5179,5.5179,5.5179,5.5626,5.6517,5.86,5.9978,6.0586,6.1797,6.2502,6.2685,6.324,6.368,0.0,2.5335,0.0,2.777,2.9408,0.0,0.0,0.0,3.309,3.309,3.3567,3.4098,3.4603,3.5629,3.6405,3.6405,3.6405,3.6405,3.6405,3.6405,3.6405,3.6405,3.6405,3.6405,3.6405,3.6909,3.7437,3.7965,3.8592,3.917,3.9672,3.9697,3.9697,3.9697,3.9697,3.9697,3.9697,3.9697,3.9697,3.9697,4.0249,4.0775,4.1327,4.1934,4.2487,4.3014,4.3014,4.3014,4.3014,4.3014,4.3014,4.3014,4.3014,4.3014,4.3156,4.4427,4.5846,4.7274,4.8638,5.0017,5.1206,5.1206,5.1206,5.1206,5.1206,5.1206,5.1206,5.1206,5.1206,5.1206,5.1206,5.1206,5.1206,5.1206,5.1206,5.1206,5.1206,5.1708,5.2336,5.3019,5.3683,5.4371,5.5029,5.5179,5.5179,5.5179,5.5179,5.5179,5.5179,5.5179,5.5179,5.5179,5.5179,5.5179,5.5179,5.5179,5.5179,5.5179,5.5179,5.5179,5.5179,5.5179,5.5229,5.528,5.6541,5.8305,6.0586,6.1797,6.2753,6.3443,6.3477,6.4241,0.0,0.0,0.0,2.7168,2.8574,2.976,3.0683,3.1738,3.2616,3.3014,3.3542,3.4073,3.4603,3.5305,3.5956,3.6331,3.6405,3.6405,3.6405,3.6405,3.6405,3.6405,3.6405,3.6405,3.6405,3.6884,3.7412,3.7965,3.8567,3.9145,3.9672,3.9697,3.9697,3.9697,3.9697,3.9697,3.9697,3.9697,3.9697,3.9697,4.0575,4.1127,4.1326,4.2283,4.2813,4.3014,4.3014,4.3014,4.3014,4.3014,4.3014,4.3014,4.3014,4.3014,4.3156,4.4508,4.5899,4.7299,4.8713,5.0095,5.1206,5.1206,5.1206,5.1206,5.1206,5.1206,5.1206,5.1206,5.1206,5.1206,5.1206,5.1206,5.1206,5.1206,5.1206,5.1295,5.1768,5.2037,5.2516,5.3623,5.4042,5.4431,5.5089,5.5179,5.5179,5.5179,5.5179,5.5179,5.5179,5.5179,5.5179,5.5179,5.5179,5.5179,5.5179,5.5179,5.5179,5.5179,5.5179,5.5179,5.5179,5.5179,5.5179,5.5179,5.7158,5.8587,5.9434,6.1132,6.2492,6.3511,6.4478,6.5189,2.4023,0.0,0.0,0.0,0.0,2.8806,3.0507,0.0,3.2164,3.2939,3.3391,3.3796,3.4327,3.4879,3.5481,3.6256,3.6405,3.6405,3.6405,3.6405,3.6405,3.6405,3.6405,3.6405,3.6405,3.6708,3.7235,3.7939,3.8366,0.0,3.9647,3.9697,3.9697,3.9697,3.9697,3.9697,3.9697,3.9697,3.9697,3.9697,4.0775,4.1302,4.1352,4.2484,4.3014,4.3014,4.3014,4.3014,4.3014,4.3014,4.3014,4.3014,4.3014,4.3295,4.3824,4.5209,4.6604,4.8013,4.9382,5.046,5.1206,5.1206,5.1206,5.1206,5.1206,5.1206,5.1206,5.1206,5.1206,5.1206,5.1206,5.1206,5.1206,5.1206,5.1355,5.1738,5.2396,5.2546,5.2875,5.3982,5.4401,5.467,5.5119,5.5179,5.5179,5.5179,5.5179,5.5179,5.5179,5.5179,5.5179,5.5179,5.5179,5.5179,5.5179,5.5179,5.5179,5.5179,5.5179,5.5179,5.5179,5.5179,5.5179,5.5179,5.7181,5.8501,5.9187,6.1259,6.2974,6.4275,6.5222,6.5852,0.0,0.0,0.0,0.0,0.0,0.0,3.0658,3.1286,3.1612,3.2813,3.304,3.3215,3.3796,3.4327,3.5077,3.618,3.6405,3.6405,3.6405,3.6405,3.6405,3.6405,3.6405,3.6405,3.6405,3.6405,3.6833,3.7914,3.8015,3.8492,3.9647,3.9697,3.9697,3.9697,3.9697,3.9697,3.9697,3.9697,3.9697,3.9697,4.0775,4.1302,4.1352,4.2484,4.3014,4.3014,4.3014,4.3014,4.3014,4.3014,4.3014,4.3014,4.3014,4.3824,4.5182,4.6578,4.8013,4.9382,5.0722,5.1206,5.1206,5.1206,5.1206,5.1206,5.1206,5.1206,5.1206,5.1206,5.1206,5.1206,5.1206,5.1206,5.1206,5.1206,5.1738,5.2396,5.3079,5.3228,5.3438,5.4102,5.476,5.5179,5.5179,5.5179,5.5179,5.5179,5.5179,5.5179,5.5179,5.5179,5.5179,5.5179,5.5179,5.5179,5.5179,5.5179,5.5179,5.5179,5.5179,5.5179,5.5179,5.5179,5.5209,5.5209,5.6451,5.8044,5.9969,6.2344,6.4235,6.5717,6.5717,6.6102,2.3095,0.0,0.0,0.0,0.0,0.0,2.7971,2.8725,2.9553,3.1482,3.1884,3.2286,3.3646,3.4327,3.4929,3.5631,3.613,3.6405,3.6405,3.6405,3.6405,3.6405,3.6405,3.6405,3.6405,3.6405,3.6833,0.0,3.8015,3.8492,3.9647,3.9697,3.9697,3.9697,3.9697,3.9697,3.9697,3.9697,3.9697,3.9697,4.0775,4.1302,4.1352,4.2484,4.3014,4.3014,4.3014,4.3014,4.3014,4.3014,4.3014,4.3014,4.3014,4.3824,4.5182,4.6578,4.8013,4.9382,5.0722,5.1206,5.1206,5.1206,5.1206,5.1206,5.1206,5.1206,5.1206,5.1206,5.1206,5.1206,5.1206,5.1206,5.1325,5.1828,5.2067,5.2516,5.3683,5.3922,5.4132,5.479,5.5059,5.5179,5.5179,5.5179,5.5179,5.5179,5.5179,5.5179,5.5179,5.5179,5.5179,5.5179,5.5179,5.5179,5.5179,5.5179,5.5179,5.5179,5.5179,5.5179,5.5179,5.5179,5.5444,5.5923,5.8016,5.9879,6.1442,6.2475,6.3914,6.5717,6.6237,6.6609,0.0,0.0,0.0,0.0,0.0,0.0,2.7795,2.8398,2.9132,3.1587,3.211,3.2411,3.3391,3.3997,3.4527,3.5079,3.5631,3.613,3.638,3.6405,3.6405,3.6405,3.6405,3.6405,3.6405,3.6405,3.6758,3.7588,3.7864,3.8492,3.9647,3.9697,3.9697,3.9697,3.9697,3.9697,3.9697,3.9697,3.9697,3.9697,4.0775,4.1302,4.1352,4.2484,4.3014,4.3014,4.3014,4.3014,4.3014,4.3014,4.3014,4.3014,4.3014,4.4155,4.5978,4.6785,4.8364,5.0167,5.0941,5.1206,5.1206,5.1206,5.1206,5.1206,5.1206,5.1206,5.1206,5.1206,5.1206,5.1206,5.1206,5.1206,5.1355,5.2037,5.2396,5.2905,5.3982,5.4431,5.473,5.5119,5.5179,5.5179,5.5179,5.5179,5.5179,5.5179,5.5179,5.5179,5.5179,5.5179,5.5179,5.5179,5.5179,5.5179,5.5179,5.5179,5.5179,5.5179,5.5179,5.5179,5.5179,5.5474,5.5803,5.6192,5.8359,6.0572,6.2742,6.3616,6.4753,6.617,6.6609,6.6791,0.0,0.0,0.0,0.0,0.0,0.0,2.8574,2.8925,2.9383,3.2009,3.2537,3.2612,3.2788,3.3244,3.3796,3.4327,3.4979,3.5656,3.6329,3.6405,3.6405,3.6405,3.6405,3.6405,3.6405,3.6405,3.6607,3.716,3.7764,3.8567,3.9647,3.9697,3.9697,3.9697,3.9697,3.9697,3.9697,3.9697,3.9697,3.9697,4.0775,4.1302,4.1352,4.2484,4.3014,4.3014,4.3014,4.3014,4.3014,4.3014,4.3014,4.3014,4.3014,4.4589,4.6863,4.6863,4.8614,5.0988,5.0988,5.1082,5.1206,5.1206,5.1206,5.1206,5.1206,5.1206,5.1206,5.1206,5.1206,5.1206,5.1206,5.1236,5.1498,5.2157,5.2815,5.3473,5.4162,5.479,5.5179,5.5179,5.5179,5.5179,5.5179,5.5179,5.5179,5.5179,5.5179,5.5179,5.5179,5.5179,5.5179,5.5179,5.5179,5.5179,5.5179,5.5179,5.5179,5.5179,5.5179,5.5209,5.5299,5.5893,5.6282,5.6402,5.8341,6.0932,6.4123,6.5282,6.617,6.6791,6.6791,6.6791,0.0,0.0,0.0,0.0,0.0,0.0,2.572,2.6389,2.7361,2.8775,2.9076,2.9503,3.0859,3.1537,3.2064,3.2595,3.39,3.5228,3.6256,3.6405,3.6405,3.6405,3.6405,3.6405,3.6405,3.6405,3.6607,3.716,3.814,3.9019,3.9672,3.9697,3.9697,3.9697,3.9697,3.9697,3.9697,3.9697,3.9697,3.9697,4.0775,4.1302,4.1352,4.2484,4.3014,4.3014,4.3014,4.3014,4.3014,4.3014,4.3014,4.3014,4.3014,4.3989,4.5395,4.5395,4.7171,4.9606,4.9606,5.0287,5.1206,5.1206,5.1206,5.1206,5.1206,5.1206,5.1206,5.1206,5.1206,5.1206,5.1206,5.1618,5.2187,5.2869,5.3503,5.4192,5.485,5.5089,5.5179,5.5179,5.5179,5.5179,5.5179,5.5179,5.5179,5.5179,5.5179,5.5179,5.5179,5.5179,5.5179,5.5179,5.5179,5.5179,5.5179,5.5179,5.5179,5.5179,5.5179,5.5444,5.5983,5.6132,5.6701,5.7723,6.0652,6.3525,6.6238,6.6449,6.6677,6.6791,6.6791,6.6791,0.0,0.0,0.0,2.5301,0.0,0.0,0.0,2.6666,2.7361,2.9026,2.9126,2.9302,3.0387,3.0608,3.0859,3.1662,3.2721,3.3771,3.4622,3.5703,3.6405,3.6405,3.6405,3.6405,3.6405,3.6405,3.6733,3.7538,3.8115,3.8818,3.9647,3.9697,3.9697,3.9697,3.9697,3.9697,3.9697,3.9697,3.9823,4.0124,4.0926,4.1453,4.1781,4.2637,4.3014,4.3014,4.3014,4.3014,4.3014,4.3014,4.3014,4.3014,4.3014,4.3824,4.5102,4.5793,4.7376,4.9308,4.9969,5.065,5.1206,5.1206,5.1206,5.1206,5.1206,5.1206,5.1206,5.1206,5.1206,5.1206,5.1206,5.1708,5.2366,5.3049,5.3713,5.4401,5.5059,5.5179,5.5179,5.5179,5.5179,5.5179,5.5179,5.5179,5.5179,5.5179,5.5179,5.5179,5.5179,5.5179,5.5179,5.5179,5.5179,5.5179,5.5179,5.5179,5.5179,5.5179,5.5534,5.5863,5.6192,5.6795,5.7914,5.9501,6.1813,6.3952,6.5855,6.6503,6.6791,6.6791,6.6791,6.6791,0.0,0.0,0.0,0.0,0.0,2.649,0.0,0.0,0.0,2.9478,2.9453,0.0,0.0,0.0,0.0,0.0,0.0,0.0,0.0,3.4421,0.0,3.5904,3.618,3.6331,3.623,3.613,3.6582,3.7764,3.7764,3.8241,3.9471,3.9647,3.9697,3.9697,3.9697,3.9697,3.9697,3.9697,3.9973,4.0499,4.1051,4.163,4.2238,4.2763,4.3014,4.3014,4.3014,4.3014,4.3014,4.3014,4.3014,4.3014,4.3014,4.3657,4.4779,4.6188,4.758,4.9014,5.0335,5.0988,5.1206,5.1206,5.1206,5.1206,5.1206,5.1206,5.1206,5.1206,5.1206,5.1206,5.1206,5.1798,5.2516,5.3079,5.3803,5.4551,5.5089,5.5179,5.5179,5.5179,5.5179,5.5179,5.5179,5.5179,5.5179,5.5179,5.5179,5.5179,5.5179,5.5179,5.5179,5.5179,5.5179,5.5179,5.5179,5.5179,5.5179,5.5179,5.5833,5.6252,5.6372,5.7603,5.9266,6.1344,6.2439,6.3764,6.526,6.6299,6.6791,6.6791,6.6791,6.6791,0.0,0.0,0.0,0.0,2.7519,0.0,0.0,0.0,2.7236,2.7027,0.0,0.0,0.0,0.0,0.0,0.0,0.0,0.0,3.0864,3.2365,3.3643,3.4123,3.5502,3.6205,3.5656,3.518,3.5554,3.7185,3.686,3.7287,3.8894,3.9421,3.9697,3.9697,3.9697,3.9697,3.9697,3.9697,3.9973,4.0499,4.1051,4.163,4.2238,4.2763,4.3014,4.3014,4.3014,4.3014,4.3014,4.3014,4.3014,4.3014,4.3014,4.3073,4.3381,4.4725,4.6135,4.7529,4.8964,5.0215,5.1206,5.1206,5.1206,5.1206,5.1206,5.1206,5.1206,5.1206,5.1206,5.1206,5.1206,5.2127,5.3109,5.3198,5.4186,5.5089,5.5179,5.5179,5.5179,5.5179,5.5179,5.5179,5.5179,5.5179,5.5179,5.5179,5.5179,5.5179,5.5179,5.5179,5.5179,5.5179,5.5179,5.5179,5.5179,5.5179,5.5179,5.5179,5.5833,5.6432,5.6974,5.8291,6.0167,6.2706,6.29,6.4184,6.6567,6.6728,6.6791,6.6791,6.6791,6.6791,0.0,0.0,0.0,0.0,0.0,0.0,2.6866,0.0,2.6876,0.0,0.0,0.0,0.0,0.0,0.0,0.0,2.8499,0.0,0.0,0.0,3.2089,0.0,0.0,0.0,3.5004,3.4828,3.5403,3.7085,3.6708,3.7135,3.8793,3.9421,3.9697,3.9697,3.9697,3.9697,3.9697,3.9697,4.0124,4.0976,4.1175,4.1779,4.2663,4.2889,4.3014,4.3014,4.3014,4.3014,4.3014,4.3014,4.3014,4.3014,4.3014,4.3464,4.4318,4.5714,4.7094,4.8514,4.9873,5.0722,5.1206,5.1206,5.1206,5.1206,5.1206,5.1206,5.1206,5.1206,5.1206,5.1295,5.1678,5.2486,5.3318,5.3683,5.4491,5.5179,5.5179,5.5179,5.5179,5.5179,5.5179,5.5179,5.5179,5.5179,5.5179,5.5179,5.5179,5.5179,5.5179,5.5179,5.5179,5.5179,5.5179,5.5179,5.5179,5.5179,5.5384,5.5773,5.6735,5.7603,5.8231,5.88,5.997,6.1796,6.2585,6.3905,6.569,6.6461,6.6791,6.6791,6.6791,6.6791,2.8932,0.0,0.0,0.0,0.0,0.0,0.0,0.0,0.0,0.0,0.0,0.0,0.0,0.0,0.0,0.0,0.0,2.8047,0.0,2.9032,0.0,0.0,0.0,0.0,0.0,3.3975,3.455,3.6383,3.6155,3.6733,3.8567,3.932,3.9697,3.9697,3.9697,3.9697,3.9697,3.9697,4.0249,4.1302,4.1302,4.1879,4.3014,4.3014,4.3014,4.3014,4.3014,4.3014,4.3014,4.3014,4.3014,4.3014,4.3014,4.4071,4.5714,4.6707,4.8013,4.9382,5.0722,5.1206,5.1206,5.1206,5.1206,5.1206,5.1206,5.1206,5.1206,5.1206,5.1206,5.1355,5.2037,5.2695,5.3378,5.4042,5.47,5.5179,5.5179,5.5179,5.5179,5.5179,5.5179,5.5179,5.5179,5.5179,5.5179,5.5179,5.5179,5.5179,5.5179,5.5179,5.5179,5.5179,5.5179,5.5179,5.5179,5.5179,5.5564,5.6402,5.7483,5.8384,5.9069,5.9099,5.9709,6.0963,6.2316,6.3647,6.4891,6.6192,6.6791,6.6791,6.6791,6.6791,0.0,0.0,0.0,2.8649,0.0,0.0,0.0,0.0,2.7921,0.0,0.0,0.0,0.0,0.0,0.0,0.0,0.0,0.0,0.0,0.0,0.0,0.0,0.0,0.0,0.0,3.216,3.2416,0.0,3.4753,3.5707,3.7914,3.9094,3.9697,3.9697,3.9697,3.9697,3.9697,3.9697,4.0249,4.1302,4.1302,4.1879,4.3014,4.3014,4.3014,4.3014,4.3014,4.3014,4.3014,4.3014,4.3014,4.3014,4.3014,4.467,4.7043,4.7069,4.8013,4.9382,5.0722,5.1206,5.1206,5.1206,5.1206,5.1206,5.1206,5.1206,5.1206,5.1206,5.1206,5.1355,5.2037,5.2695,5.3378,5.4042,5.47,5.5179,5.5179,5.5179,5.5179,5.5179,5.5179,5.5179,5.5179,5.5179,5.5179,5.5179,5.5179,5.5179,5.5179,5.5179,5.5179,5.5179,5.5179,5.5179,5.5179,5.5179,5.5718,5.6974,5.7696,5.8384,5.9069,5.9099,5.9709,6.0963,6.2316,6.3647,6.4891,6.6192,6.6791,6.6791,6.6791,6.6791,0.0,0.0,3.1486,2.9679,0.0,0.0,0.0,0.0,0.0,0.0,0.0,0.0,0.0,0.0,0.0,0.0,0.0,0.0,0.0,0.0,0.0,0.0,0.0,0.0,0.0,0.0,0.0,0.0,3.5403,0.0,3.7939,3.9069,3.9697,3.9697,3.9697,3.9697,3.9697,3.9697,4.0249,4.1302,4.1302,4.1879,4.3014,4.3014,4.3014,4.3014,4.3014,4.3014,4.3014,4.3014,4.3014,4.3014,4.3014,4.4671,4.7094,4.7094,4.8539,5.0603,5.1035,5.1206,5.1206,5.1206,5.1206,5.1206,5.1206,5.1206,5.1206,5.1206,5.1505,5.2007,5.2665,5.3354,5.4042,5.47,5.5029,5.5179,5.5179,5.5179,5.5179,5.5179,5.5179,5.5179,5.5179,5.5179,5.5179,5.5179,5.5179,5.5179,5.5179,5.5179,5.5179,5.5179,5.5179,5.5179,5.5179,5.5957,5.6825,5.7723,5.8411,5.886,5.9099,5.9099,5.9285,5.9705,6.1903,6.322,6.3671,6.5767,6.6791,6.6791,6.6791,6.6791,3.1527,3.1938,0.0,3.0432,3.008,0.0,2.8222,0.0,0.0,0.0,0.0,0.0,0.0,0.0,0.0,0.0,0.0,0.0,0.0,2.7185,0.0,0.0,0.0,0.0,0.0,0.0,0.0,0.0,0.0,0.0,0.0,3.8793,3.9496,3.9697,3.9697,3.9697,3.9697,3.9697,4.0249,4.1302,4.1302,4.1879,4.3014,4.3014,4.3014,4.3014,4.3014,4.3014,4.3014,4.3014,4.3014,4.3045,4.3519,4.5102,4.7094,4.7094,4.8837,5.1206,5.1206,5.1206,5.1206,5.1206,5.1206,5.1206,5.1206,5.1206,5.1236,5.1475,5.1887,5.2396,5.3324,5.3892,5.4371,5.5029,5.5179,5.5179,5.5179,5.5179,5.5179,5.5179,5.5179,5.5179,5.5179,5.5179,5.5179,5.5179,5.5179,5.5179,5.5179,5.5179,5.5179,5.5179,5.5179,5.5299,5.5564,5.6705,5.7663,5.8055,5.874,5.9099,5.9099,5.9099,5.9312,5.9758,6.1903,6.3212,6.3662,6.5789,6.6791,6.6791,6.6791,6.6791]},{"header":{"parameterUnit":"m.s-1","parameterCategory":1,"la1":30.6,"la2":29.2853,"lo1":-89.7004,"lo2":-87.6739,"dy":0.0162,"dx":0.0183,"nx":112,"ny":82,"refTime":"2024-03-24T12:00:00:Z","depth":0,"parameterNumber":3,"parameterNumberName":"V-component_of_WINDS"},"data":[0.0,0.0,0.0,0.0,0.0,0.0,0.0,0.0,0.0,0.0,0.0,0.0,0.0,0.0,0.0,0.0,0.0,0.0,0.0,0.0,0.0,0.0,0.0,0.0,0.0,0.0,0.0,0.0,0.0,0.0,0.0,0.0,0.0,0.0,0.0,0.0,0.0,0.0,0.0,0.0,0.0,0.0,0.0,0.0,0.0,0.0,0.0,0.0,0.0,0.0,0.0,0.0,0.0,0.0,0.0,0.0,0.0,0.0,0.0,0.0,0.0,0.0,0.0,0.0,0.0,0.0,0.0,0.0,0.0,0.0,0.0,0.0,0.0,0.0,0.0,0.0,0.0,0.0,0.0,0.0,0.0,0.0,0.0,0.0,0.0,0.0,0.0,0.0,0.0,0.0,0.0,1.2438,1.2587,1.2685,1.2685,1.2834,1.2981,1.3092,0.0,0.0,0.0,0.0,0.0,0.0,0.0,0.0,0.0,0.0,0.0,0.0,0.0,0.0,0.0,0.0,0.0,0.0,0.0,0.0,0.0,0.0,0.0,0.0,0.0,0.0,0.0,0.0,0.0,0.0,0.0,0.0,0.0,0.0,0.0,0.0,0.0,0.0,0.0,0.0,0.0,0.0,0.0,0.0,0.0,0.0,0.0,0.0,0.0,0.0,0.0,0.0,0.0,0.0,0.0,0.0,0.0,0.0,0.0,0.0,0.0,0.0,0.0,0.0,0.0,0.0,0.0,0.0,0.0,0.0,0.0,0.0,0.0,0.0,0.0,0.0,0.0,0.0,0.0,0.0,0.0,0.0,0.0,0.0,0.0,0.0,0.0,0.0,0.0,0.0,0.0,0.0,0.0,0.0,0.0,0.0,0.0,0.0,0.0,0.0,0.0,0.0,0.0,0.0,1.2824,1.3039,1.3876,1.4421,1.4421,1.5251,1.5415,1.4553,0.0,0.0,0.0,0.0,0.0,0.0,0.0,0.0,0.0,0.0,0.0,0.0,0.0,0.0,0.0,0.0,0.0,0.0,0.0,0.0,0.0,0.0,0.0,0.0,0.0,0.0,0.0,0.0,0.0,0.0,0.0,0.0,0.0,0.0,0.0,0.0,0.0,0.0,0.0,0.0,0.0,0.0,0.0,0.0,0.0,0.0,0.0,0.0,0.0,0.0,0.0,0.0,0.0,0.0,0.0,0.0,0.0,0.0,0.0,0.0,0.0,0.0,0.0,0.0,0.0,0.0,0.0,0.0,0.0,0.0,0.0,0.0,0.0,0.0,0.0,0.0,0.0,0.0,0.0,0.0,0.0,0.0,0.0,0.0,0.0,0.0,0.0,0.0,0.0,0.0,0.0,0.0,0.0,0.0,0.0,0.0,0.0,0.0,0.0,0.0,0.0,0.0,0.0,1.2919,1.3293,1.3984,1.4511,1.5038,1.5618,1.6133,1.6024,1.5136,1.474,0.0,0.0,0.0,0.0,0.0,0.0,0.0,0.0,0.0,0.0,0.0,0.0,0.0,0.0,0.0,0.0,0.0,0.0,0.0,0.0,0.0,0.0,0.0,0.0,0.0,0.0,0.0,0.0,0.0,0.0,0.0,0.0,0.0,0.0,0.0,0.0,0.0,0.0,0.0,0.0,0.0,0.0,0.0,0.0,0.0,0.0,0.0,0.0,0.0,0.0,0.0,0.0,0.0,0.0,0.0,0.0,0.0,0.0,0.0,0.0,0.0,0.0,0.0,0.0,0.0,0.0,0.0,0.0,0.0,0.0,0.0,0.0,0.0,0.0,0.0,0.0,0.0,0.0,0.0,0.0,0.0,0.0,0.0,0.0,0.0,0.0,0.0,0.0,0.0,0.0,0.0,0.0,0.0,0.0,0.0,0.0,0.0,0.0,0.0,0.0,0.0,0.0,1.3929,1.4417,1.5287,1.5635,1.6125,1.6954,1.726,1.7053,1.623,1.6699,0.0,0.0,0.0,0.0,0.0,0.0,0.0,0.0,0.0,0.0,0.0,0.0,0.0,0.0,0.0,0.0,0.0,0.0,0.0,0.0,0.0,0.0,0.0,0.0,0.0,0.0,0.0,0.0,0.0,0.0,0.0,0.0,0.0,0.0,0.0,0.0,0.0,0.0,0.0,0.0,0.0,0.0,0.0,0.0,0.0,0.0,0.0,0.0,0.0,0.0,0.0,0.0,0.0,0.0,0.0,0.0,0.0,0.0,0.0,0.0,0.0,0.0,0.0,0.0,0.0,0.0,0.0,0.0,0.0,0.0,0.0,0.0,0.0,0.0,0.0,0.0,0.0,0.0,0.0,0.0,0.0,0.0,0.0,0.0,0.0,0.0,0.0,0.0,0.0,0.0,0.0,0.0,0.0,0.0,0.0,0.0,0.0,0.0,0.0,0.0,0.0,0.0,1.6012,1.6773,1.7077,1.8072,1.8728,1.8807,1.973,1.9866,1.8804,1.8786,0.0,0.0,0.0,0.0,0.0,0.0,0.0,0.0,0.0,0.0,0.0,0.0,0.0,0.0,0.0,0.0,0.0,0.0,0.0,0.0,0.0,0.0,0.0,0.0,0.0,0.0,0.0,0.0,0.0,0.0,0.0,0.0,0.0,0.0,0.0,0.0,0.0,0.0,0.0,0.0,0.0,0.0,0.0,0.0,0.0,0.0,0.0,0.0,0.0,0.0,0.0,0.0,0.0,0.0,0.0,0.0,0.0,0.0,0.0,0.0,0.0,0.0,0.0,0.0,0.0,0.0,0.0,0.0,0.0,0.0,0.0,0.0,0.0,0.0,0.0,0.0,0.0,0.0,0.0,0.0,0.0,0.0,0.0,0.0,0.0,0.0,0.0,0.0,0.0,0.0,0.0,0.0,0.0,0.0,0.0,0.0,0.0,0.0,0.0,0.0,0.0,0.0,1.6915,1.757,0.0,1.9115,1.9751,2.074,2.1184,2.0942,1.9823,0.0,0.0,0.0,0.0,0.0,0.0,0.0,0.0,0.0,0.0,0.0,0.0,0.0,0.0,0.0,0.0,0.0,0.0,0.0,0.0,0.0,0.0,0.0,0.0,0.0,0.0,0.0,0.0,0.0,0.0,0.0,0.0,0.0,0.0,0.0,0.0,0.0,0.0,0.0,0.0,0.0,0.0,0.0,0.0,0.0,0.0,0.0,0.0,0.0,0.0,0.0,0.0,0.0,0.0,0.0,0.0,0.0,0.0,0.0,0.0,0.0,0.0,0.0,0.0,0.0,0.0,0.0,0.0,0.0,0.0,0.0,0.0,0.0,0.0,0.0,0.0,0.0,0.0,0.0,0.0,0.0,0.0,0.0,0.0,0.0,0.0,0.0,0.0,0.0,0.0,0.0,0.0,0.0,0.0,0.0,0.0,0.0,0.0,0.0,0.0,0.0,0.0,1.7914,1.8331,1.8996,0.0,2.0328,2.0767,2.1814,2.1915,2.1566,2.0799,0.0,0.0,0.0,0.0,0.0,0.0,0.0,0.0,0.0,0.0,0.0,0.0,0.0,0.0,0.0,0.0,0.0,0.0,0.0,0.0,0.0,0.0,0.0,0.0,0.0,0.0,0.0,0.0,0.0,0.0,0.0,0.0,0.0,0.0,0.0,0.0,0.0,0.0,0.0,0.0,0.0,0.0,0.0,0.0,0.0,0.0,0.0,0.0,0.0,0.0,0.0,0.0,0.0,0.0,0.0,0.0,0.0,0.0,0.0,0.0,0.0,0.0,0.0,0.0,0.0,0.0,0.0,0.0,0.0,0.0,0.0,0.0,0.0,0.0,0.0,0.0,0.0,0.0,0.0,0.0,0.0,0.0,0.0,0.0,0.0,0.0,0.0,0.0,0.0,0.0,0.0,0.0,0.0,0.0,0.0,0.0,0.0,0.0,0.0,0.0,0.0,0.0,1.958,2.0546,2.1386,2.1876,2.1915,2.1915,2.1915,2.1915,2.1915,0.0,0.0,0.0,0.0,0.0,0.0,0.0,0.0,0.0,0.0,0.0,0.0,0.0,0.0,0.0,0.0,0.0,0.0,0.0,0.0,0.0,0.0,0.0,0.0,0.0,0.0,0.0,0.0,0.0,0.0,0.0,0.0,0.0,0.0,0.0,0.0,0.0,0.0,0.0,0.0,0.0,0.0,0.0,0.0,0.0,0.0,0.0,0.0,0.0,0.0,0.0,0.0,0.0,0.0,0.0,0.0,0.0,0.0,0.0,0.0,0.0,0.0,0.0,0.0,0.0,0.0,0.0,0.0,0.0,0.0,0.0,0.0,0.0,0.0,0.0,0.0,0.0,0.0,0.0,0.0,0.0,0.0,0.0,0.0,0.0,0.0,0.0,0.0,0.0,0.0,0.0,0.0,0.0,0.0,0.0,0.0,0.0,0.0,0.0,0.0,0.0,0.0,0.0,2.1069,2.1495,2.1855,2.2285,2.2324,2.2441,2.2732,2.2752,2.2752,2.2752,0.0,0.0,0.0,0.0,0.0,0.0,0.0,0.0,0.0,0.0,0.0,0.0,0.0,0.0,0.0,0.0,0.0,0.0,0.0,0.0,0.0,0.0,0.0,0.0,0.0,0.0,0.0,0.0,0.0,0.0,0.0,0.0,0.0,0.0,0.0,0.0,0.0,0.0,0.0,0.0,0.0,0.0,0.0,0.0,0.0,0.0,0.0,0.0,0.0,0.0,0.0,0.0,0.0,0.0,0.0,0.0,0.0,0.0,0.0,0.0,0.0,0.0,0.0,0.0,0.0,0.0,0.0,0.0,0.0,0.0,0.0,0.0,0.0,0.0,0.0,0.0,0.0,0.0,0.0,0.0,0.0,0.0,0.0,0.0,0.0,0.0,0.0,0.0,0.0,0.0,0.0,0.0,0.0,0.0,0.0,0.0,0.0,0.0,0.0,0.0,0.0,0.0,2.1987,2.2129,2.2305,2.2693,2.2732,2.2849,2.3081,2.3101,2.3101,2.3101,0.0,0.0,0.0,0.0,0.0,0.0,0.0,0.0,0.0,0.0,0.0,0.0,0.0,0.0,0.0,0.0,0.0,0.0,0.0,0.0,0.0,0.0,0.0,0.0,0.0,0.0,0.0,0.0,0.0,0.0,0.0,0.0,0.0,0.0,0.0,0.0,0.0,0.0,0.0,0.0,0.0,0.0,0.0,0.0,0.0,0.0,0.0,0.0,0.0,0.0,0.0,0.0,0.0,0.0,0.0,0.0,0.0,0.0,0.0,0.0,0.0,0.0,0.0,0.0,0.0,0.0,0.0,0.0,0.0,0.0,0.0,0.0,0.0,0.0,0.0,0.0,0.0,0.0,0.0,0.0,0.0,0.0,0.0,0.0,0.0,0.0,0.0,0.0,0.0,0.0,0.0,0.0,0.0,0.0,0.0,0.0,0.0,0.0,0.0,0.0,0.0,0.0,2.2498,2.2557,2.2693,2.3062,2.3101,2.3101,2.3101,2.3101,2.3101,2.3101,0.0,0.0,0.0,0.0,0.0,0.0,0.0,0.0,0.0,0.0,0.0,0.0,0.0,0.0,0.0,0.0,0.0,0.0,0.0,0.0,0.0,0.0,0.0,0.0,0.0,0.0,0.0,0.0,0.0,0.0,0.0,0.0,0.0,0.0,0.0,0.0,0.0,0.0,0.0,0.0,0.0,0.0,0.0,0.0,0.0,0.0,0.0,0.0,0.0,0.0,0.0,0.0,0.0,0.0,0.0,0.0,0.0,0.0,0.0,0.0,1.4493,0.0,0.0,0.0,0.0,0.0,0.0,0.0,0.0,0.0,0.0,0.0,0.0,0.0,0.0,0.0,0.0,0.0,0.0,0.0,0.0,0.0,0.0,0.0,0.0,0.0,0.0,0.0,0.0,0.0,0.0,0.0,0.0,0.0,0.0,0.0,0.0,0.0,0.0,0.0,0.0,0.0,2.2927,2.2964,2.3003,2.3081,2.3101,2.3101,2.3101,2.3101,2.3101,2.3101,2.3101,0.0,0.0,0.0,0.0,0.0,0.0,0.0,0.0,0.0,0.0,0.0,0.0,0.0,0.0,0.0,0.0,0.0,0.0,0.0,0.0,0.0,0.0,0.0,0.0,0.0,0.0,0.0,0.0,0.0,0.0,0.0,0.0,0.0,0.0,0.0,0.0,0.0,0.0,0.0,0.0,0.0,0.0,0.0,0.0,0.0,0.0,0.0,0.0,0.0,0.0,0.0,0.0,0.0,0.0,0.0,0.0,0.0,0.0,0.0,0.0,1.4718,0.0,0.0,0.0,0.0,0.0,0.0,0.0,0.0,0.0,0.0,0.0,0.0,0.0,0.0,0.0,0.0,0.0,0.0,0.0,0.0,0.0,0.0,0.0,0.0,0.0,0.0,0.0,0.0,0.0,0.0,0.0,0.0,0.0,0.0,0.0,0.0,0.0,0.0,0.0,0.0,2.3062,2.3101,2.3101,2.3101,2.3101,2.3101,2.3101,2.3101,2.3101,2.3101,2.3101,0.0,0.0,0.0,0.0,0.0,0.0,0.0,0.0,0.0,0.0,0.0,0.0,0.0,0.0,0.0,0.0,0.0,0.0,0.0,0.0,0.0,0.0,0.0,0.0,0.0,0.0,0.0,0.0,0.0,0.0,0.0,0.0,0.0,0.0,0.0,0.0,0.0,0.0,0.0,0.0,0.0,0.0,0.0,0.0,0.0,0.0,0.0,0.0,0.0,0.0,0.0,0.0,0.0,1.9466,1.9772,1.9938,2.0,2.003,1.9909,1.7603,1.6391,1.604,1.549,0.0,0.0,0.0,0.0,0.0,0.0,0.0,0.0,0.0,0.0,0.0,0.0,0.0,0.0,0.0,0.0,0.0,0.0,0.0,0.0,0.0,0.0,0.0,0.0,2.0742,2.1132,0.0,0.0,0.0,0.0,0.0,0.0,0.0,0.0,0.0,0.0,0.0,0.0,2.3101,2.3101,2.3101,2.3101,2.3101,2.3101,2.3101,2.3101,2.3101,2.3101,2.3101,2.3101,0.0,0.0,0.0,0.0,0.0,0.0,0.0,0.0,0.0,0.0,0.0,0.0,0.0,0.0,0.0,0.0,0.0,0.0,0.0,0.0,0.0,0.0,0.0,0.0,0.0,0.0,0.0,0.0,0.0,0.0,0.0,0.0,1.6607,1.723,0.0,0.0,0.0,0.0,0.0,0.0,0.0,0.0,0.0,0.0,0.0,0.0,0.0,1.8725,1.9712,2.0877,2.1182,2.0616,2.2909,2.3438,2.2448,2.2789,2.2953,2.2888,2.1782,0.0,1.8696,1.754,0.0,0.0,0.0,0.0,0.0,0.0,0.0,0.0,0.0,0.0,0.0,0.0,0.0,0.0,0.0,0.0,0.0,0.0,0.0,0.0,0.0,0.0,2.039,2.0918,2.1445,2.1798,0.0,2.168,2.1759,2.1817,2.2148,0.0,0.0,0.0,0.0,0.0,0.0,0.0,2.3101,2.3101,2.3101,2.3101,2.3101,2.3101,2.3101,2.3101,2.3101,2.3101,2.3101,2.3101,2.3101,2.3101,0.0,0.0,0.0,0.0,0.0,0.0,0.0,0.0,0.0,0.0,0.0,0.0,0.0,0.0,0.0,0.0,0.0,0.0,0.0,0.0,0.0,0.0,0.0,0.0,0.0,0.0,0.0,0.0,0.0,1.7538,1.8406,1.8683,1.8721,1.8485,0.0,0.0,0.0,0.0,0.0,0.0,0.0,0.0,0.0,2.0036,2.0672,2.1427,2.2283,2.3439,2.3855,2.3555,2.5054,2.5453,2.4921,2.51,2.519,2.5173,2.4791,2.414,2.3168,2.0758,1.9486,1.9006,0.0,0.0,0.0,0.0,1.7768,1.7482,1.7691,1.7515,0.0,1.7441,0.0,0.0,0.0,0.0,0.0,0.0,0.0,0.0,0.0,0.0,2.1055,2.1504,2.1934,2.2246,2.2246,2.2401,2.2519,0.0,2.2557,2.2849,2.2849,0.0,0.0,0.0,0.0,2.3101,2.3101,2.3101,2.3101,2.3101,2.3101,2.3101,2.3101,2.3101,2.3101,2.3101,2.3101,2.3101,2.3101,2.3101,2.3101,0.0,0.0,0.0,0.0,0.0,0.0,0.0,0.0,0.0,0.0,0.0,0.0,0.0,0.0,0.0,0.0,0.0,0.0,0.0,0.0,0.0,0.0,0.0,0.0,0.0,0.0,0.0,0.0,1.9054,2.0037,2.0037,2.0137,2.0037,0.0,0.0,0.0,0.0,0.0,0.0,2.0491,2.0879,2.1484,2.2295,2.315,2.3984,2.4833,2.5636,2.6088,2.6239,2.6683,2.6927,2.6927,2.6927,2.6927,2.6927,2.6927,2.6927,2.6671,2.3593,2.2144,2.1791,2.1465,2.1332,2.129,2.0925,2.0637,2.0439,2.032,2.0135,1.9961,2.0083,1.9918,1.9597,1.9181,0.0,0.0,0.0,0.0,2.0357,2.1036,2.1588,2.1967,2.2056,2.2363,2.2654,2.2654,2.2888,2.3003,0.0,2.2908,2.3101,2.3101,0.0,0.0,0.0,0.0,2.3101,2.3101,2.3101,2.3101,2.3101,2.3101,2.3101,2.3101,2.3101,2.3101,2.3101,2.3101,2.3101,2.3101,2.3101,2.3101,2.3101,0.0,0.0,0.0,0.0,0.0,0.0,0.0,0.0,0.0,0.0,0.0,0.0,0.0,0.0,0.0,0.0,0.0,0.0,0.0,0.0,0.0,0.0,0.0,0.0,0.0,0.0,0.0,0.0,0.0,2.0641,2.1105,0.0,0.0,0.0,0.0,2.2088,2.2163,2.2625,2.371,2.3795,2.4301,2.5361,2.5436,2.6004,2.7135,2.7185,2.7469,2.7971,2.8021,2.8021,2.8021,2.8021,2.8021,2.8021,2.8021,2.8021,2.7841,2.5373,2.4328,2.4188,2.2997,2.2524,2.2655,2.3807,2.3722,2.3177,2.4455,2.4334,2.37,2.4078,2.4194,2.3895,2.243,2.2005,0.0,0.0,2.158,2.2492,2.1451,2.2615,2.3764,2.2715,2.2791,2.3062,2.3062,2.3081,2.3081,0.0,2.3081,2.3101,2.3101,0.0,2.3101,2.3101,2.3101,2.3101,2.3101,2.3101,2.3101,2.3101,2.3101,2.3101,2.3101,2.3101,2.3101,2.3101,2.3101,2.3101,2.3101,2.3101,2.3101,2.3101,2.3101,0.0,0.0,0.0,0.0,0.0,0.0,0.0,0.0,0.0,0.0,0.0,0.0,0.0,0.0,0.0,0.0,0.0,0.0,0.0,0.0,0.0,0.0,0.0,0.0,0.0,0.0,0.0,0.0,2.1694,2.2207,0.0,2.2257,2.2433,2.2784,2.3351,2.3712,2.4239,2.4983,2.5728,2.6306,2.6683,2.7017,2.7394,2.7821,2.8172,2.843,2.8631,2.9026,2.9202,2.9202,2.9202,2.9202,2.9202,2.9202,2.9202,2.9132,2.8263,2.7482,2.6777,2.6331,2.615,2.6115,2.5925,2.5646,2.5376,2.5252,2.5001,2.4759,2.4898,2.4947,2.4799,2.3942,2.3898,2.4068,2.3662,2.4124,2.456,2.3722,2.4574,2.5391,2.424,2.464,2.5105,2.4339,2.4189,2.3994,2.3234,2.3101,2.3101,2.3101,2.3101,2.3101,2.3101,2.3101,2.322,2.3493,2.3555,2.363,2.3903,2.3942,2.3825,2.3574,2.3555,2.3415,2.312,2.3101,2.3101,2.3101,2.3101,2.3101,2.3101,2.3101,2.3101,0.0,0.0,0.0,0.0,0.0,0.0,0.0,0.0,0.0,0.0,0.0,0.0,0.0,0.0,0.0,0.0,0.0,0.0,0.0,0.0,0.0,0.0,0.0,0.0,0.0,0.0,2.2246,2.2809,2.3512,2.3873,2.3697,2.4014,2.4481,2.5059,2.5435,2.5887,2.6414,2.716,2.7645,2.7821,2.8179,2.8455,2.8674,2.9032,2.9208,2.9208,2.9603,2.9804,2.9804,2.9804,2.9804,2.9804,2.9804,2.9905,3.008,3.008,2.9729,2.9176,2.8825,2.8674,2.86,2.793,2.7678,2.7583,2.6969,2.6737,2.6737,2.6737,2.6737,2.6609,2.5927,2.5931,2.609,2.5758,2.6103,2.6379,2.5585,2.6324,2.7018,2.5911,2.6063,2.6342,2.5979,2.5594,2.5096,2.4331,2.3725,2.3337,2.3337,2.3454,2.3552,2.3552,2.3552,2.3649,2.3965,2.4004,2.4102,2.4371,2.4391,2.4274,2.4023,2.4004,2.3867,2.3571,2.3552,2.3552,2.3552,2.3552,2.3552,2.3552,2.3415,2.3259,2.3101,0.0,0.0,0.0,0.0,0.0,0.0,0.0,0.0,0.0,0.0,0.0,0.0,0.0,0.0,0.0,0.0,0.0,0.0,0.0,0.0,0.0,0.0,0.0,2.302,2.3145,2.3371,2.4004,2.5008,2.546,2.4967,2.5904,2.6776,2.7286,2.7336,2.7587,2.8097,2.8147,2.838,2.8907,2.8932,2.9208,2.9804,2.9804,2.9829,2.9854,2.9854,2.9854,2.9854,2.9854,2.9854,2.9854,2.9854,3.0156,3.0613,3.0613,3.0934,3.1306,3.0276,2.9854,2.9854,2.9854,2.9829,2.9804,2.9804,2.9804,2.9804,2.9804,2.9804,2.9605,2.851,2.8191,2.7947,2.6937,2.7386,2.7951,2.6878,2.7777,2.8707,2.7624,2.6911,2.6774,2.7896,2.7239,2.6396,2.6351,2.5056,2.3941,2.3831,2.4141,2.4391,2.4391,2.4391,0.0,2.441,2.441,2.4434,2.443,2.443,2.443,2.441,2.441,2.4434,2.4391,2.4391,2.4391,2.4391,2.4391,2.4391,2.4391,2.4023,2.3594,2.314,0.0,0.0,0.0,0.0,0.0,0.0,0.0,0.0,0.0,0.0,0.0,0.0,0.0,0.0,0.0,0.0,0.0,0.0,0.0,0.0,0.0,2.2799,2.3411,2.3145,2.3822,2.4691,2.5678,2.6407,2.6917,2.715,2.7469,2.772,2.7871,2.8229,2.853,2.8681,2.9082,2.9402,2.9553,2.9553,2.9829,3.0362,3.0362,3.0583,3.0959,3.0959,3.0959,3.0959,3.0959,3.0959,3.0959,3.0959,3.1035,3.1185,3.1185,3.126,3.1361,3.108,3.0959,3.0959,3.0959,3.0708,3.0362,3.0362,3.0131,2.9804,2.9804,2.9804,2.9796,2.9876,2.992,2.9935,3.0017,3.0282,3.0261,2.9166,2.9804,3.0442,2.9379,2.9558,2.9864,2.9444,2.906,2.8589,2.7765,2.7502,2.6764,2.4598,2.4313,2.4391,2.4391,2.4391,0.0,2.4867,2.4906,2.5019,2.5308,2.5347,2.521,2.4945,2.4906,2.4746,2.441,2.4391,2.4391,2.4391,2.4391,2.4391,2.4391,2.4274,2.4157,0.0,0.0,0.0,0.0,0.0,0.0,0.0,0.0,0.0,0.0,0.0,0.0,0.0,0.0,0.0,0.0,0.0,0.0,0.0,0.0,0.0,0.0,2.4305,2.4983,2.4867,2.5234,2.5912,2.7035,2.7645,2.8097,2.8405,2.8674,2.8825,2.8825,2.9082,2.9283,2.9283,2.9829,3.0131,3.0131,3.0357,3.0608,3.0934,3.0934,3.1085,3.1406,3.1406,3.1406,3.1406,3.1406,3.1406,3.1406,3.1406,3.1512,3.1738,3.1738,3.1863,0.0,0.0,0.0,0.0,0.0,3.121,3.0934,3.0934,3.0733,3.0457,3.0457,3.0457,3.0532,3.0834,3.0934,3.1009,3.1311,3.1406,3.1263,3.0621,3.1083,3.1593,3.0964,3.1073,3.1283,3.1202,3.0751,3.019,2.9537,2.9821,0.0,2.6487,2.5859,2.5551,2.5008,2.4937,2.5035,2.5312,2.5532,2.5723,2.5952,2.6147,2.6069,2.5688,2.5649,0.0,0.0,0.0,2.4937,2.4937,2.4937,0.0,0.0,0.0,2.4609,2.4391,0.0,0.0,0.0,2.3649,2.3649,0.0,0.0,0.0,0.0,0.0,0.0,0.0,0.0,0.0,0.0,0.0,0.0,0.0,0.0,0.0,0.0,2.5904,2.6876,2.7412,2.706,2.711,2.8072,2.8656,2.9007,2.9007,2.9503,2.9849,2.988,2.988,2.9905,2.998,0.0,0.0,0.0,0.0,3.1411,3.1486,3.1486,3.1512,3.1587,3.1587,3.1587,3.1587,3.1587,3.1587,3.1587,3.1587,3.1863,3.2315,3.2315,3.2616,3.2989,3.1984,3.1587,3.1587,3.1587,3.1537,3.1486,3.1486,0.0,0.0,3.1406,3.1406,3.1432,3.1461,3.1486,3.1486,3.1582,3.1587,3.1587,3.1587,3.1938,3.2315,3.2315,3.1899,3.1805,3.2949,3.2364,3.1591,3.1591,3.2019,3.1621,2.9156,2.819,2.7318,2.605,2.5854,2.5854,2.5854,2.6211,2.6465,2.6465,0.0,0.0,2.6484,2.6465,2.6289,2.5874,2.5815,2.5776,2.5776,2.5737,2.5523,2.518,2.516,2.4941,2.4547,2.4547,2.4547,2.4547,2.4449,2.4391,0.0,0.0,0.0,0.0,0.0,0.0,0.0,0.0,0.0,0.0,0.0,0.0,0.0,0.0,0.0,2.541,2.6766,2.7971,2.8505,2.8505,2.8505,2.8731,2.9277,2.9628,2.9628,2.9729,2.998,3.0412,3.0437,3.0633,3.106,3.1185,3.1235,3.1235,3.1356,3.1612,3.2039,3.2064,3.229,3.2763,0.0,0.0,3.2763,3.2763,3.2763,3.2763,3.2763,3.2839,3.2939,3.2939,3.2989,3.3065,3.2864,3.2763,3.2763,3.2763,3.2441,3.2064,3.2064,3.1763,3.1406,3.1406,3.1406,3.1461,3.1913,3.2064,0.0,3.2638,3.2763,3.2763,3.2763,3.2864,3.2939,3.2939,3.3146,3.3457,3.3702,3.3895,3.4015,3.4015,3.4115,3.3733,3.2254,3.0171,2.8272,2.696,2.6732,2.6732,2.6732,2.6836,2.6869,2.6869,2.6947,2.6973,2.6894,2.6869,2.6855,2.6752,2.6445,2.6269,2.6269,2.5893,2.5654,2.5581,2.5581,2.5542,2.5464,2.5464,2.5464,2.5421,2.4723,2.4391,0.0,0.0,0.0,0.0,0.0,0.0,0.0,0.0,0.0,0.0,0.0,2.3637,2.3888,0.0,2.6615,2.715,2.7953,2.8867,2.9905,2.965,2.9333,2.9333,2.9628,2.9804,2.9804,3.003,3.0306,3.0563,3.0859,3.111,3.1406,3.1662,3.1813,3.1813,3.2089,3.2386,3.2641,3.2641,3.2792,3.309,3.309,3.3241,3.3517,3.3517,3.3668,3.3897,3.3897,3.3897,3.3897,3.3897,3.3897,3.3897,3.3897,3.3571,3.309,3.309,3.2914,3.2641,3.2641,3.2466,3.2261,3.2261,3.2261,3.2311,3.2566,3.2641,3.2767,3.3341,3.3517,3.3545,3.3822,3.3897,3.3897,3.3897,3.4123,3.4276,3.4276,3.4502,3.4703,3.4703,3.4929,3.469,3.3408,3.2357,3.1088,2.9254,2.8992,2.8744,2.8086,2.8213,2.81,2.7421,2.7519,2.7578,2.7363,2.7148,2.6986,2.6986,2.6816,2.6699,2.6699,2.6479,2.6342,2.6342,2.6342,2.6342,2.6342,2.6342,2.6342,2.6342,2.5893,2.5464,0.0,0.0,0.0,0.0,0.0,0.0,0.0,0.0,2.2991,2.3492,2.4415,2.5293,2.5812,2.7015,2.8178,2.9054,2.9425,3.004,3.1299,3.0827,3.0375,3.0516,3.0182,3.0104,3.0503,3.0669,3.0988,3.1482,3.1731,3.1935,3.2036,3.2447,3.2596,3.239,3.2864,3.314,3.3266,3.3266,3.3316,3.3416,3.3416,3.3621,3.4048,3.4048,3.4276,3.4703,3.4703,3.4703,3.4703,3.4703,3.4703,3.4703,3.4703,3.4173,3.3416,3.3416,3.3416,3.3416,3.3416,3.3416,3.3416,3.3416,3.3416,3.3416,3.3416,3.3416,3.3517,3.3922,3.4048,3.4148,3.4577,3.4703,3.4703,3.4703,3.4778,3.4853,3.4853,3.4954,3.5052,3.5052,3.538,3.5331,3.4245,3.4462,3.3979,3.1618,3.1263,3.0874,2.9767,2.9732,2.9399,2.8303,2.8271,2.8191,2.7839,2.7461,2.724,2.724,2.7187,2.7148,2.7148,2.707,2.6986,2.6986,2.6986,2.6986,2.6986,2.6986,2.6986,2.6986,2.6986,2.6615,2.5485,2.5311,2.5366,2.5215,2.5286,2.5425,0.0,0.0,2.4958,2.5246,2.5854,2.6474,2.701,2.8727,3.0091,3.0222,3.1325,3.2253,3.2415,3.2343,3.2526,3.3102,3.1602,3.1203,3.2991,3.2039,3.2292,3.4683,3.4039,3.377,3.4295,3.4401,3.3996,3.3011,3.3065,3.3341,3.3796,3.3796,3.4048,3.4527,3.4527,3.4552,3.4603,3.4603,3.4653,3.4703,3.4703,3.4703,3.4703,3.4703,3.4703,3.4703,3.4703,3.4628,3.4527,3.4527,3.4527,3.4527,3.4527,3.4527,3.4527,3.4527,3.4527,3.4527,3.4527,3.4527,3.4527,3.4603,3.4603,3.4628,3.4678,3.4703,3.4703,3.4703,3.5079,3.5408,3.5408,3.583,3.6205,3.6205,3.6256,3.6234,3.6092,3.6118,3.5258,3.2549,3.2149,3.2099,3.1948,3.0948,3.0166,3.0037,2.8966,2.8281,2.8249,2.8184,2.8144,2.8144,2.7819,2.7624,2.7624,2.7226,2.6986,2.6986,2.6986,2.6986,2.6986,2.6986,2.6986,2.6986,2.6986,2.6947,2.72,2.7352,2.7316,0.0,2.7228,2.7357,2.7769,2.7229,2.704,2.8455,2.8759,2.9012,2.9785,3.0868,3.1694,0.0,3.2206,3.2788,3.3359,3.3272,3.3714,3.512,3.4168,3.3615,3.4122,3.3904,3.4208,3.5308,3.526,3.5303,3.5554,3.502,3.4648,3.4481,3.3868,3.3822,3.4352,3.4374,3.4477,3.4703,3.4703,3.4853,3.518,3.518,3.5355,3.5703,3.5703,3.5703,3.5703,3.5703,3.5703,3.5703,3.5703,3.5703,3.5604,3.4929,3.4703,3.4703,3.4703,3.4703,3.4703,3.4703,3.4703,3.4703,3.4703,3.4703,3.4778,3.5079,3.518,3.5255,3.5604,3.5703,3.5703,3.5703,3.5855,3.6006,3.6006,3.623,3.6405,3.6405,3.6405,3.6505,3.6808,3.6859,3.6598,3.5741,3.5087,3.4118,3.2507,3.2064,3.1363,3.0025,2.9406,2.907,2.907,2.907,2.8926,2.8672,2.8496,2.8281,2.8073,2.7851,2.7754,2.7754,2.7754,2.7754,2.7754,2.7754,2.7754,2.7754,2.7754,2.7754,2.8278,0.0,0.0,2.9196,2.9405,2.9624,2.9885,2.9424,2.9378,3.0893,3.0974,3.1038,3.1878,3.2563,3.2982,3.2982,3.322,3.3693,3.4574,3.4519,3.5054,3.682,3.6563,3.6155,3.5956,3.573,3.5875,3.6448,3.6594,3.6727,3.6915,3.6228,3.5816,3.5801,3.5335,3.5036,3.4929,3.5243,3.5342,3.5177,3.5177,3.5355,3.5757,3.5757,3.5981,3.6405,3.6405,3.6405,3.6405,3.6405,3.6405,3.6405,3.6405,3.6405,3.6281,3.5454,3.5177,3.5177,3.5177,3.5177,3.5177,3.5177,3.5177,3.5177,3.5177,3.5177,3.5253,3.5631,3.5757,3.5832,3.6281,3.6405,3.6405,3.6405,3.6405,3.6455,3.6582,3.6607,3.6658,3.6808,3.6833,3.6959,3.7337,3.7412,3.7538,3.7939,3.7361,3.611,3.4145,3.3841,3.3041,3.1018,3.0447,3.0218,3.0218,2.9829,2.9461,2.9121,2.9101,2.8965,2.8652,2.8652,2.8652,2.8652,2.8652,2.8652,2.8652,2.8652,2.8652,2.8652,2.8652,2.8652,0.0,0.0,2.9877,3.1093,3.19,3.2332,3.213,3.2083,3.2013,3.1818,3.1768,3.1927,3.2455,3.3331,3.3945,3.3945,3.4789,3.5663,3.6324,3.6427,3.6875,3.8182,3.8327,3.8543,0.0,3.7396,3.7051,3.9126,3.8331,3.8045,3.8688,3.8697,3.7986,3.6512,3.7512,3.7236,3.5481,3.6638,3.692,3.6355,3.6355,3.6355,3.638,3.638,3.638,3.6405,3.6405,3.6405,3.6405,3.6405,3.6405,3.6405,3.6405,3.6405,3.6405,3.638,3.6355,3.6355,3.6355,3.6355,3.6355,3.6355,3.6355,3.6355,3.6355,3.6355,3.6331,3.638,3.638,3.638,3.6405,3.6405,3.6405,3.6405,3.6405,3.6532,3.706,3.7185,3.7336,3.7839,3.7965,3.7965,3.799,3.799,3.799,3.8015,3.799,3.794,3.7841,3.6694,3.5374,3.4024,3.2588,3.174,3.174,3.0419,2.9598,2.9579,2.9579,2.9579,2.9559,2.9559,2.9559,2.9559,2.9559,2.9559,2.9559,2.9559,2.9559,2.9559,2.9559,2.9559,2.9684,0.0,3.1166,3.2482,3.3006,3.3258,3.3635,3.3242,3.3058,3.4055,3.3725,3.3499,3.438,3.4789,3.5017,3.5017,3.5294,3.5729,3.6404,3.6836,3.7434,3.829,3.8781,0.0,0.0,0.0,0.0,3.9337,3.9487,3.9627,3.9853,3.9625,3.9407,3.9228,3.8154,3.7875,3.8399,3.8019,3.8125,3.8693,3.7906,3.7127,3.6405,3.6405,3.6405,3.6405,3.6405,3.6405,3.6405,3.6405,3.6405,3.6405,3.6405,3.6405,3.6405,3.6405,3.6405,3.6405,3.6405,3.6405,3.6405,3.6405,3.6405,3.6405,3.6405,3.6405,3.6405,3.6405,3.6405,3.6405,3.6405,3.6658,3.6934,3.6934,3.721,3.7513,3.7688,3.7739,3.7789,3.7965,3.8015,3.814,3.8542,3.8592,3.8718,3.9069,3.7738,3.6789,3.7101,3.5077,3.3551,3.3412,3.2076,3.1182,3.1182,3.0745,3.0341,3.0028,2.998,2.9891,2.9618,2.9598,2.9598,2.9598,2.9598,2.9598,2.9598,2.9598,2.9598,2.9598,2.9598,2.9598,3.0628,3.1346,3.2183,3.3514,3.3859,3.4039,3.4697,3.4397,3.424,3.5286,3.4794,3.4462,3.5346,3.51,3.4951,3.5429,3.5519,3.5818,3.6686,3.7375,3.8003,3.8691,3.914,3.9391,0.0,0.0,0.0,3.975,4.0157,4.0606,4.1104,4.087,4.0789,4.0933,3.9978,3.9578,3.9885,3.953,3.931,3.9249,3.8066,3.7206,3.6683,3.6683,3.6783,3.6959,3.6959,3.6959,3.6959,3.6959,3.6959,3.6959,3.6959,3.6959,3.6959,3.6959,3.6959,3.6909,3.6532,3.6531,3.6683,3.6683,3.6808,3.6959,3.6959,3.6959,3.6959,3.6959,3.6959,3.6959,3.6959,3.7235,3.7487,3.7487,3.7739,3.8065,3.8266,3.8316,3.8366,3.8567,3.8617,3.8718,3.912,3.9195,3.9296,3.9647,3.833,3.7422,3.7737,3.6161,3.512,3.5435,3.4125,3.3042,3.2522,3.1998,3.133,3.0497,3.0449,3.0332,3.0087,3.0067,3.0067,3.0067,3.0067,3.0067,3.0067,3.0067,3.0067,3.0067,3.0067,3.0067,3.1256,3.2093,3.2916,3.4218,3.4548,3.4727,3.534,3.5519,3.5489,3.5459,3.4937,3.4667,0.0,0.0,3.3963,3.525,3.5519,3.5982,3.7225,3.7973,3.8631,0.0,0.0,0.0,0.0,0.0,0.0,4.0487,0.0,4.1074,4.2321,4.244,4.2209,4.1711,4.267,4.2202,4.008,4.1176,4.0603,3.8319,3.7273,3.6971,3.7332,3.7404,3.7633,3.8015,3.8064,3.8039,3.8015,3.8015,3.8015,3.8015,3.8015,3.8015,3.8015,3.8015,3.8015,3.7864,3.6833,3.6808,3.7261,3.7261,3.7588,3.8015,3.8015,3.8015,3.8015,3.8015,3.8015,3.8015,3.8015,3.804,3.804,3.804,3.8065,3.8241,3.8818,3.8944,3.9095,3.9597,3.9697,3.9697,3.9697,3.9697,3.9697,3.9697,3.9697,3.9697,3.9697,3.962,3.9594,3.9594,3.819,3.6703,3.5316,3.3845,3.2387,3.0995,3.0898,3.0898,3.0898,3.0898,3.0898,3.0898,3.0898,3.0898,3.0898,3.0898,3.0898,3.0898,3.0918,3.0918,3.2632,3.3484,3.4188,3.504,3.525,3.528,3.5459,3.5519,3.537,3.4847,3.4607,3.4398,0.0,0.0,0.0,3.4697,3.5595,0.0,3.7298,3.7973,0.0,3.9331,0.0,3.9601,4.0098,4.0307,0.0,0.0,4.1901,4.2051,4.2381,4.2821,4.3011,4.288,4.2295,4.2152,4.2426,4.3232,4.2902,4.1466,4.1683,4.0864,3.9259,4.0194,3.9667,3.8064,3.9013,3.8868,3.8015,3.8015,3.8015,3.8015,3.8015,3.8015,3.8015,3.8015,3.8015,3.7965,3.7688,3.7688,3.7789,3.7789,3.7889,3.8015,3.8015,3.8015,3.8015,3.8015,3.8015,3.8015,3.8015,3.8316,3.8668,3.8668,3.8969,3.9295,3.9446,3.9496,3.9521,3.9672,3.9697,3.9697,3.9697,3.9697,3.9697,3.9697,3.9697,3.9697,3.9697,3.8739,3.8058,3.8058,3.5759,3.4069,3.3677,3.2322,3.1296,3.0908,3.0898,3.0898,3.0898,3.0898,3.0898,3.0898,3.0898,3.0898,3.0898,3.0898,3.0898,3.0898,3.1211,3.1367,3.3574,3.4428,3.5011,3.54,3.5519,3.5429,3.513,3.507,3.4877,3.4188,3.3829,0.0,3.353,0.0,0.0,0.0,0.0,0.0,3.7315,3.8242,3.899,0.0,3.966,0.0,4.0367,4.0935,4.1583,0.0,4.241,4.2511,4.2761,4.313,4.329,4.329,4.267,4.2797,4.3708,4.3906,4.3658,4.3034,4.2879,4.2227,4.114,4.1883,4.1533,4.0421,0.0,4.0226,3.9541,3.8994,3.8743,3.8743,3.8743,3.8743,3.8743,3.8743,3.8743,3.8743,3.8743,3.8743,3.8718,3.8467,3.8542,3.8743,3.8743,3.8743,3.8743,3.8743,3.8743,3.8743,3.8743,3.8994,3.9245,3.9245,3.9471,3.9697,3.9697,3.9697,3.9697,3.9697,3.9697,3.9772,4.0023,4.0049,4.0149,4.0375,4.0399,4.0399,4.0399,3.9466,3.8916,3.9136,3.768,3.6139,3.481,3.3916,3.2886,3.1534,3.1475,3.1475,3.1475,3.1475,3.1475,3.1475,3.1475,3.1475,3.1475,3.1475,3.1475,3.1494,3.1699,3.1797,3.4278,3.5056,3.5519,3.5519,3.5519,3.531,3.4637,3.4503,3.4248,3.3395,0.0,3.2632,3.3036,3.2766,3.2916,3.4158,0.0,3.6716,3.7315,3.8554,3.9421,3.9511,4.0068,4.0457,4.0636,4.1703,4.244,4.253,4.2511,4.275,4.326,4.329,4.3319,4.3429,4.3409,4.3758,4.4436,4.4123,4.3965,4.3943,4.2978,4.2703,4.305,4.324,4.338,4.3456,4.2496,4.201,4.1764,4.0642,4.0109,3.9955,3.9955,3.9852,3.9697,3.9697,3.9697,3.9697,3.9697,3.9697,3.9622,3.917,3.9321,3.9697,3.9697,3.9697,3.9697,3.9697,3.9697,3.9697,3.9697,3.9697,3.9697,3.9697,3.9697,3.9697,3.9697,3.9747,3.9798,3.9798,3.9848,4.0074,4.0524,4.06,4.075,4.1227,4.1302,4.1327,4.1403,4.0926,4.0775,4.1252,4.1114,3.9843,3.6945,3.6515,3.5205,3.2361,3.2198,3.2198,3.2198,3.2198,3.2198,3.2198,3.2198,3.2198,3.2198,3.2198,3.2198,3.2198,3.2257,3.2276,3.4951,3.54,3.5519,3.5519,3.5519,3.531,3.4637,3.4503,0.0,0.0,3.2213,3.2183,3.121,3.1824,3.2751,3.3544,0.0,0.0,0.0,0.0,3.9601,0.0,0.0,0.0,0.0,0.0,0.0,0.0,4.313,4.319,4.329,4.329,4.3549,4.4117,4.4117,4.4446,4.5125,4.5594,4.5845,4.5845,4.6178,4.5851,4.4966,4.6013,4.5393,4.3551,4.4373,0.0,4.3146,4.293,4.223,4.1269,4.1269,4.0617,3.9697,3.9697,3.9697,3.9697,3.9697,3.9697,3.9672,3.9572,3.9622,3.9697,3.9697,3.9697,3.9697,3.9697,3.9697,3.9697,3.9697,3.9697,3.9697,3.9697,3.9697,3.9697,3.9697,4.0049,4.0349,4.0349,4.0725,4.1051,4.1152,4.1177,4.1175,4.1302,4.1302,4.1478,4.1984,4.153,4.1202,4.1275,4.0199,3.8745,3.6859,3.5591,3.4108,3.232,3.2198,3.2198,3.2198,3.2198,3.2198,3.2198,3.2198,3.2198,3.2198,3.2198,3.2198,3.2198,3.2519,3.2695,3.513,3.5519,3.5519,3.5519,3.5519,3.522,3.4218,0.0,0.0,0.0,3.1001,3.0881,3.0552,3.1316,0.0,3.3335,0.0,0.0,0.0,0.0,0.0,0.0,0.0,0.0,0.0,0.0,0.0,0.0,4.329,4.329,4.329,4.3638,4.4117,4.4796,4.5164,4.5493,4.5822,4.6501,4.6809,4.6809,4.716,4.6975,4.6388,4.7019,4.6638,4.5457,4.5411,0.0,4.4396,4.305,4.2157,4.1517,4.0869,4.0236,3.9697,3.9697,3.9697,3.9697,3.9697,3.9697,3.9697,3.9697,3.9697,3.9697,3.9697,3.9697,3.9697,3.9697,3.9697,3.9697,3.9697,3.9697,3.9772,4.0049,4.035,4.0524,4.0524,4.0725,4.0926,4.0926,4.1127,4.1403,4.1706,4.1756,4.1856,4.2158,4.2183,4.2283,4.2587,4.2359,4.2183,4.2183,4.1527,4.0475,3.889,3.7302,3.5755,3.4167,3.3287,3.2812,3.2812,3.2812,3.2812,3.2812,3.2812,3.2812,3.2812,3.2812,3.2812,3.2832,3.3027,3.3125,3.513,3.5519,3.5519,3.5519,3.5519,3.516,3.3814,3.2961,0.0,0.0,2.9937,2.9728,3.0223,0.0,3.1764,0.0,3.5086,3.6537,0.0,0.0,0.0,0.0,0.0,0.0,0.0,0.0,0.0,0.0,4.3409,4.3499,4.3499,4.4147,4.4825,4.5484,4.6031,4.636,4.651,4.704,4.7309,4.7309,4.7309,4.7309,4.7309,4.7309,4.7309,4.7244,4.6233,0.0,4.5666,4.3646,4.2665,4.2301,4.1319,4.0592,4.0109,4.0109,3.9929,3.9697,3.9697,3.9697,3.9697,3.9697,3.9697,3.9697,3.9697,3.9697,3.9697,3.9697,3.9772,3.9873,3.9873,3.9948,4.0149,4.0575,4.1001,4.1302,4.1302,4.1403,4.1478,4.1478,4.1578,4.1804,4.2286,4.2389,4.2512,4.2939,4.3014,4.3014,4.3014,4.3014,4.3014,4.3014,4.3014,4.2347,4.0736,3.9141,3.7506,3.5898,3.4289,3.3386,3.3386,3.3386,3.3386,3.3386,3.3386,3.3386,3.3386,3.3386,3.3386,3.3386,3.3386,3.3386,3.513,3.5519,3.5519,3.5519,3.5519,3.516,3.3814,0.0,0.0,3.0087,2.9638,2.9608,2.9668,3.0193,0.0,0.0,0.0,3.6028,0.0,0.0,0.0,0.0,0.0,0.0,0.0,0.0,0.0,4.329,4.3878,4.4207,4.4207,4.4855,4.5514,4.6181,4.6271,4.66,4.7219,4.7279,4.7309,4.7309,4.7309,4.7309,4.7309,4.7309,4.7309,4.7287,4.7171,0.0,0.0,4.6887,4.6099,4.5047,4.4932,4.3456,4.1444,4.1444,4.0693,3.9697,3.9697,3.9697,3.9697,3.9697,3.9697,3.9697,3.9697,3.9697,3.9697,3.9697,4.0049,4.0424,4.0424,4.0775,4.1177,4.1227,4.125,4.1302,4.1302,4.1731,4.211,4.211,4.2512,4.2864,4.2914,4.2939,4.2939,4.2989,4.3014,4.3014,4.3014,4.3014,4.3014,4.3014,4.3014,4.2347,4.0736,3.9141,3.7506,3.5898,3.4289,3.3386,3.3386,3.3386,3.3386,3.3386,3.3386,3.3386,3.3386,3.3386,3.3386,3.3386,3.3386,3.3386,3.4532,3.519,3.5519,3.5519,3.519,3.4667,3.3694,0.0,3.0971,2.9817,2.8963,2.8633,2.9442,2.9788,3.0582,3.2587,3.4023,0.0,3.6148,0.0,0.0,0.0,0.0,0.0,0.0,0.0,0.0,4.3878,4.4895,4.5493,4.5493,4.5762,4.6211,4.6869,4.6899,4.704,4.7309,4.7309,4.7309,4.7309,4.7309,4.7309,4.7309,4.7309,4.7309,4.7309,4.7309,0.0,0.0,4.6484,4.5846,4.5252,4.3717,4.2471,4.1518,4.0743,4.016,3.9697,3.9697,3.9898,4.0199,4.0199,4.04,4.06,4.03,4.0425,4.065,4.065,4.0826,4.0976,4.0976,4.143,4.1831,4.1831,4.2082,4.2333,4.2333,4.2512,4.2688,4.2688,4.2864,4.3014,4.3014,4.3014,4.3014,4.3014,4.3014,4.3014,4.3014,4.3014,4.3014,4.3014,4.3014,4.2737,4.2121,4.0563,3.8964,3.7355,3.5714,3.4394,3.3449,3.3386,3.3386,3.3386,3.3386,3.3386,3.3386,3.3386,3.3386,3.3386,3.3386,3.3386,3.4128,3.4997,3.5519,3.5519,3.4997,3.4308,0.0,0.0,3.0342,2.9728,2.8543,2.8004,2.9338,2.9608,3.0237,3.2183,3.3649,3.4787,3.5669,3.7285,0.0,0.0,0.0,0.0,0.0,4.3369,4.3878,4.4556,4.5642,4.639,4.66,4.66,4.6809,4.7309,4.7309,4.7309,4.7309,4.7309,4.7309,4.7309,4.7309,4.7309,4.7309,4.7309,4.7309,4.7309,4.7309,0.0,0.0,4.6322,4.5958,4.5779,4.3999,4.305,4.2617,4.1715,4.1023,4.0491,4.0491,4.0614,4.0725,4.0725,4.1102,4.1505,4.1128,4.1127,4.1302,4.1302,4.1428,4.1578,4.1754,4.2108,4.2436,4.2436,4.2738,4.3014,4.3014,4.3014,4.3014,4.3014,4.3014,4.3014,4.3014,4.3014,4.3014,4.3014,4.3014,4.3014,4.3014,4.3014,4.3014,4.3014,4.3014,4.3014,4.3014,4.1105,3.9405,3.8283,3.6234,3.4581,3.3449,3.3386,3.3386,3.3386,3.3386,3.3386,3.3386,3.3386,3.3386,3.3386,3.3386,3.3386,3.4128,3.4997,3.5519,3.5519,3.4997,3.4308,0.0,0.0,3.0342,2.9728,2.8543,2.8004,2.9338,2.9608,3.0237,3.2183,3.3649,3.4967,3.6314,3.7601,0.0,0.0,0.0,0.0,0.0,4.3539,4.4586,4.5244,4.5912,0.0,4.7249,4.7309,4.7309,4.7309,4.7309,4.7309,4.7309,4.7309,4.7309,4.7309,4.7309,4.7309,4.7309,4.7309,4.7309,4.7309,4.7309,4.7309,0.0,4.7287,4.7287,4.7287,4.7266,4.6484,4.5343,4.5343,4.4077,4.2386,4.2386,4.1905,4.1275,4.1275,4.1706,4.2213,4.2187,4.1756,4.1302,4.1302,4.1731,4.2286,4.2838,4.2989,4.2989,4.2989,4.2989,4.3014,4.3014,4.3014,4.3014,4.3014,4.3014,4.3014,4.3014,4.3014,4.3014,4.3014,4.3014,4.3014,4.3014,4.3014,4.3014,4.3014,4.3014,4.3014,4.3014,4.0071,3.8223,3.8194,3.5201,3.3418,3.3386,3.3386,3.3386,3.3386,3.3386,3.3386,3.3386,3.3386,3.3386,3.3386,3.3386,3.3386,3.2213,3.3275,3.4023,3.3559,3.329,3.2976,3.2303,3.0971,2.9698,2.9069,2.8201,2.8004,2.9338,2.9608,3.0237,3.2183,3.3649,3.4817,0.0,0.0,0.0,0.0,0.0,0.0,0.0,0.0,4.5274,4.5912,4.66,4.71,4.7309,4.7309,4.7309,4.7309,4.7309,4.7309,4.7309,4.7309,4.7309,4.7309,4.7309,4.7309,4.7309,4.7309,4.7309,0.0,4.7309,4.7309,4.7309,4.7309,4.7309,4.7222,4.6344,4.5756,4.5241,4.3877,4.2952,4.2312,4.1826,4.1753,4.1934,4.1934,4.2286,4.2738,4.2738,4.2612,4.2459,4.2459,4.2612,4.2788,4.2964,4.3014,4.3014,4.3014,4.3014,4.3014,4.3014,4.3014,4.3014,4.3014,4.3014,4.3014,4.3014,4.3014,4.3014,4.3014,4.3014,4.3014,4.3014,4.3014,4.3014,4.3014,4.3014,4.3014,4.3014,4.2093,4.0534,3.8342,3.7235,3.5704,3.3481,3.3386,3.3386,3.3386,3.3386,3.3386,3.3386,3.3386,3.3386,3.3386,3.3386,3.3386,0.0,3.2288,3.3095,3.2916,3.2512,0.0,3.16,3.0329,2.9099,2.8697,2.8081,2.8004,2.9338,2.9608,3.0147,3.1854,3.3245,3.4458,0.0,0.0,0.0,0.0,0.0,0.0,0.0,4.4766,4.5574,4.6241,4.6899,4.7309,4.7309,4.7309,4.7309,4.7309,4.7309,4.7309,4.7309,4.7309,4.7309,4.7309,4.7309,4.7309,4.7309,4.7309,4.7309,4.7309,4.7309,4.7309,0.0,4.7309,4.7309,4.7222,4.641,4.6268,4.6276,4.449,4.3805,4.3659,4.2707,4.2417,4.2487,4.2487,4.2738,4.3014,4.3014,4.3014,4.3014,4.3014,4.3014,4.3014,4.3014,4.3014,4.3014,4.3014,4.3014,4.3014,4.3014,4.3014,4.3014,4.3014,4.3014,4.3014,4.3014,4.3014,4.3014,4.3014,4.3014,4.3014,4.3014,4.3014,4.3014,4.3014,4.3014,4.3014,4.3014,4.2432,4.099,3.8372,3.7626,3.6112,3.3513,3.3386,3.3386,3.3386,3.3386,3.3386,3.3386,3.3386,3.3386,3.3386,3.3386,3.3386,0.0,3.1794,3.2422,3.3006,3.2243,3.1361,3.1301,2.991,0.0,2.8547,2.8021,2.8034,2.9398,2.9638,3.0057,3.1421,3.2721,3.4023,0.0,3.6806,0.0,0.0,4.1673,0.0,4.3399,4.4566,4.5603,4.633,4.6929,4.7309,4.7309,4.7309,4.7309,4.7309,4.7309,4.7309,4.7309,4.7309,4.7309,4.7309,4.7309,4.7309,4.7309,4.7309,4.7309,0.0,4.7309,4.7309,4.7309,4.7309,4.7309,4.7309,4.7369,4.7758,4.8134,4.6824,4.6244,4.5907,4.4597,4.366,4.3014,4.3014,4.3014,4.3014,4.3014,4.3014,4.3014,4.3014,4.3014,4.3014,4.3014,4.3014,4.3014,4.3014,4.3014,4.3014,4.3014,4.3014,4.3014,4.3014,4.3014,4.3014,4.3014,4.3014,4.3014,4.3014,4.3014,4.3014,4.3014,4.3014,4.3014,4.3014,4.3014,4.3014,4.3014,4.1505,3.9902,3.8313,3.669,3.5088,3.3481,3.3386,3.3386,3.3386,3.3386,3.3386,3.3386,3.3386,3.3386,3.3386,3.3386,3.3386,2.9026,0.0,3.0207,2.9834,2.9894,2.9894,0.0,2.8936,2.8457,0.0,0.0,2.8154,2.9953,2.9907,3.0356,3.2677,3.3724,3.4727,3.6074,0.0,0.0,4.1792,4.2611,4.3549,4.4736,4.5125,4.5783,4.698,4.7219,4.7309,4.7309,4.7309,4.7309,4.7309,4.7309,4.7309,4.7309,4.7309,4.7309,4.7309,4.7309,4.7309,4.7309,4.7309,4.7309,4.7309,4.7309,4.7309,4.7309,4.7309,4.7309,4.7369,4.7848,4.8147,4.8253,4.7858,4.7027,4.5962,4.5102,4.3997,4.3014,4.3014,4.3014,4.3014,4.3014,4.3014,4.3014,4.3014,4.3014,4.3014,4.3014,4.3014,4.3014,4.3014,4.3014,4.3014,4.3014,4.3014,4.3014,4.3014,4.3014,4.3014,4.3014,4.3014,4.3014,4.3014,4.3014,4.3014,4.3014,4.3014,4.3014,4.3014,4.3014,4.3014,4.3014,4.1505,3.9902,3.8313,3.669,3.5088,3.3481,3.3386,3.3386,3.3386,3.3386,3.3386,3.3386,3.3386,3.3386,3.3386,3.3386,3.3386,2.8051,2.8859,2.9578,2.9505,2.9548,2.9488,2.9129,0.0,0.0,0.0,0.0,2.8124,2.9788,3.0057,3.0672,3.2706,3.4113,0.0,0.0,0.0,0.0,4.2321,4.294,4.3818,0.0,4.5304,4.5843,4.7189,4.7309,4.7309,4.7309,4.7309,4.7309,4.7309,4.7309,4.7309,4.7309,4.7309,4.7309,4.7309,4.7309,4.7309,4.7309,4.7309,4.7309,4.7309,4.7309,4.7309,4.7309,4.7309,4.7489,4.7788,4.8147,4.8656,4.9096,4.8434,4.7476,4.6397,4.5369,4.4126,4.3014,4.3014,4.3014,4.3014,4.3014,4.3014,4.3014,4.3014,4.3014,4.3014,4.3014,4.3014,4.3014,4.3014,4.3014,4.3014,4.3014,4.3014,4.3014,4.3014,4.3014,4.3014,4.3014,4.3014,4.3014,4.3014,4.3014,4.3014,4.3014,4.3014,4.3014,4.3014,4.3014,4.3014,4.3014,4.1505,3.9902,3.8313,3.7363,3.5858,3.3513,3.3386,3.3386,3.3386,3.3386,3.3386,3.3386,3.3386,3.3386,3.3406,3.3633,3.3711,2.7735,2.871,2.9788,3.0013,2.9744,2.9458,2.9458,0.0,0.0,0.0,0.0,0.0,0.0,3.0372,0.0,0.0,0.0,0.0,3.9182,4.0606,4.1673,4.247,4.309,0.0,4.5185,4.5394,4.5963,4.7219,4.7309,4.7309,4.7309,4.7309,4.7309,4.7309,4.7309,4.7309,4.7309,4.7309,4.7309,4.7309,4.7309,4.7309,4.7309,4.7309,4.7309,4.7309,0.0,0.0,4.7309,4.7309,4.7698,4.8319,4.8409,4.9164,5.0057,4.8811,4.7836,4.6863,4.5262,4.3962,4.3014,4.3014,4.3014,4.3014,4.3014,4.3014,4.3014,4.3014,4.3014,4.3014,4.3014,4.3014,4.3014,4.3014,4.3014,4.3014,4.3014,4.3014,4.3014,4.3014,4.3014,4.3014,4.3014,4.3014,4.3014,4.3014,4.3014,4.3014,4.3014,4.3014,4.3014,4.3014,4.3014,4.3014,4.3014,4.1757,4.0274,3.8669,3.8342,3.6872,3.3902,3.3776,3.365,3.3386,3.3386,3.3425,3.3516,3.3516,3.3523,3.3633,3.4004,3.4192,2.8291,2.9385,2.9983,2.844,2.841,2.8757,2.8757,0.0,0.0,0.0,0.0,0.0,0.0,3.1675,3.2153,0.0,0.0,3.7836,0.0,0.0,4.1833,4.301,0.0,4.4446,4.5214,4.5813,4.645,4.7249,4.7309,4.7309,4.7309,4.7309,4.7309,4.7309,4.7309,4.7309,4.7309,4.7309,4.7309,4.7309,4.7309,4.7309,4.7309,4.7309,4.7309,4.7309,0.0,4.7309,4.7309,4.7309,4.7698,4.8379,4.8917,4.9583,5.0117,4.933,4.8229,4.6733,4.4182,4.3156,4.3014,4.3014,4.3014,4.3014,4.3014,4.3014,4.3014,4.3014,4.3014,4.3014,4.3014,4.3014,4.3014,4.3014,4.3014,4.3014,4.3014,4.3014,4.3014,4.3014,4.3014,4.3014,4.3014,4.3014,4.3014,4.3014,4.3014,4.3014,4.3014,4.3014,4.3014,4.3014,4.3014,4.3014,4.3014,4.2765,4.1927,4.0332,3.8964,3.7385,3.5499,3.5406,3.4798,3.3418,3.3386,3.3613,3.3997,3.3997,3.416,3.4512,3.457,3.4609,2.7961,2.9009,2.9788,2.8889,2.9684,3.0702,3.0702,0.0,0.0,0.0,0.0,0.0,0.0,0.0,3.3993,3.6626,0.0,3.908,4.0715,4.1523,4.2271,0.0,0.0,4.4556,4.5214,4.5912,4.657,4.7249,4.7309,4.7309,4.7309,4.7309,4.7309,4.7309,4.7309,4.7309,4.7309,4.7309,4.7309,4.7309,4.7309,4.7309,4.7309,4.7309,4.7309,4.7309,0.0,4.7309,4.7339,4.7698,4.8259,4.8887,4.9523,5.0159,5.0617,4.9587,4.8314,4.6811,4.4779,4.3602,4.3014,4.3014,4.3014,4.3014,4.3014,4.3014,4.3014,4.3014,4.3014,4.3014,4.3014,4.3014,4.3014,4.3014,4.3014,4.3014,4.3014,4.3014,4.3014,4.3014,4.3014,4.3014,4.3014,4.3014,4.3014,4.3014,4.3014,4.3014,4.3014,4.3014,4.3014,4.3014,4.3014,4.3014,4.3014,4.3014,4.2319,4.0707,3.9082,3.7476,3.5867,3.5806,3.518,3.3801,3.3769,3.3984,3.4414,3.4414,3.4512,3.4707,3.4961,3.5078,2.7794,2.88,2.9847,3.0027,0.0,3.2123,3.2422,0.0,0.0,0.0,0.0,0.0,0.0,3.4412,0.0,3.808,3.908,4.0068,4.1224,4.1991,4.2631,4.325,4.4027,4.4736,4.5244,4.6052,4.6749,4.7279,4.7309,4.7309,4.7309,4.7309,4.7309,4.7309,4.7309,4.7309,4.7309,4.7309,4.7309,4.7309,4.7309,4.7309,4.7309,4.7309,4.7309,4.7309,4.7309,4.7399,4.7578,4.8087,4.8798,4.9576,5.0009,5.0421,5.0603,4.9582,4.8114,4.6448,4.5369,4.4126,4.3014,4.3014,4.3014,4.3014,4.3014,4.3014,4.3014,4.3014,4.3014,4.3014,4.3014,4.3014,4.3014,4.3014,4.3014,4.3014,4.3014,4.3014,4.3014,4.3014,4.3014,4.3014,4.3014,4.3014,4.3014,4.3014,4.3014,4.3014,4.3014,4.3014,4.3014,4.3014,4.3014,4.3065,4.319,4.319,4.2708,4.161,3.9895,3.8201,3.6597,3.6264,3.5518,3.4264,3.4251,3.4466,3.4863,3.4863,3.4902,3.5019,3.5371,3.5547,2.8351,2.9475,3.0568,3.1212,3.1017,0.0,3.2213,0.0,0.0,0.0,0.0,0.0,0.0,3.6836,3.817,3.838,3.9469,4.0576,4.1313,0.0,4.2631,4.325,4.4436,4.5244,4.5304,4.6471,4.7249,4.7309,4.7309,4.7309,4.7309,4.7309,4.7309,4.7309,4.7309,4.7309,4.7309,4.7309,4.7309,4.7309,4.7309,4.7309,4.7309,4.7309,4.7309,4.7309,4.7309,4.7638,4.8207,4.8289,4.9045,5.0159,5.0166,4.9846,4.9333,4.9235,4.7478,4.5155,4.5048,4.4126,4.3014,4.3014,4.3014,4.3014,4.3014,4.3014,4.3014,4.3014,4.3014,4.3014,4.3014,4.3014,4.3014,4.3014,4.3014,4.3014,4.3014,4.3014,4.3014,4.3014,4.3014,4.3014,4.3014,4.3014,4.3014,4.3014,4.3014,4.3014,4.3014,4.3014,4.3014,4.3014,4.3014,4.3215,4.3689,4.374,4.3908,4.4294,4.2209,4.0277,3.8736,3.76,3.6254,3.4681,3.4648,3.4883,3.5351,3.5351,3.5547,3.5903,3.5923,3.5976,2.7914,2.9205,3.0552,3.0807,0.0,0.0,0.0,0.0,0.0,0.0,0.0,0.0,0.0,0.0,3.8679,3.9499,4.0427,4.1254,4.1931,4.2551,4.304,4.326,4.4476,4.5304,4.5304,4.6501,4.7309,4.7309,4.7309,4.7309,4.7309,4.7309,4.7309,4.7309,4.7309,4.7309,4.7309,4.7309,4.7309,4.7309,4.7309,4.7309,4.7309,4.7309,4.7309,4.7339,4.7728,4.8079,4.8379,4.9164,4.977,5.0226,5.0667,5.0655,5.043,5.043,4.8688,4.6291,4.6291,4.4833,4.3014,4.3014,4.3014,4.3014,4.3014,4.3014,4.3014,4.3014,4.3014,4.3014,4.3014,4.3014,4.3014,4.3014,4.3014,4.3014,4.3014,4.3014,4.3014,4.3014,4.3014,4.3014,4.3014,4.3014,4.3014,4.3014,4.3014,4.3014,4.3014,4.3291,4.3489,4.3489,4.379,4.4091,4.4292,4.4317,4.4364,4.4589,4.2826,4.1045,3.9442,3.7929,3.648,3.515,3.5137,3.5351,3.5781,3.5781,3.5859,3.5982,3.5982,3.5982,2.7914,2.9189,3.0538,0.0,0.0,0.0,0.0,0.0,0.0,0.0,0.0,0.0,0.0,0.0,0.0,0.0,4.1134,4.1901,4.2351,4.291,4.329,4.329,4.4476,4.5304,4.5304,4.6501,4.7309,4.7309,4.7309,4.7309,4.7309,4.7309,4.7309,4.7309,4.7309,4.7309,4.7309,4.7309,4.7309,4.7309,4.7309,4.7309,4.7309,4.7309,4.7309,4.7339,4.7997,4.8438,4.8708,4.977,5.0315,5.0578,5.1026,5.1206,5.1206,5.1206,4.9455,4.7094,4.7094,4.5289,4.3014,4.3014,4.3014,4.3014,4.3014,4.3014,4.3014,4.3014,4.3014,4.3014,4.3014,4.3014,4.3014,4.3014,4.3014,4.3014,4.3014,4.3014,4.3014,4.3014,4.3014,4.3014,4.3014,4.3014,4.3014,4.3014,4.3014,4.3065,4.324,4.3564,4.3865,4.4041,4.4364,4.4665,4.4895,4.4865,4.497,4.5116,4.3529,4.2019,4.0754,3.8698,3.7204,3.6416,3.5888,3.5742,3.5982,3.5982,3.5982,3.5982,3.5982,3.5982,2.8577,2.9535,3.0658,0.0,0.0,0.0,0.0,0.0,0.0,0.0,0.0,0.0,0.0,0.0,0.0,4.0397,4.1523,4.241,4.241,4.291,4.329,4.329,4.4496,4.5274,4.5304,4.6501,4.7309,4.7309,4.7309,4.7309,4.7309,4.7309,4.7309,4.7309,4.7309,4.7309,4.7309,4.7309,4.7309,4.7309,4.7309,4.7309,4.7309,4.7309,4.7309,4.7369,4.8019,4.8678,4.9366,4.9949,5.0607,5.1206,5.1206,5.1206,5.1206,5.1206,4.9431,4.7094,4.7069,4.5289,4.3014,4.3014,4.3014,4.3014,4.3014,4.3014,4.3014,4.3014,4.3014,4.3014,4.3014,4.3014,4.3014,4.3014,4.3014,4.3014,4.3014,4.3014,4.3014,4.3014,4.3014,4.3014,4.3014,4.3014,4.3014,4.3014,4.3014,4.3215,4.374,4.3815,4.4041,4.4564,4.4614,4.4869,4.5447,4.5497,4.5723,4.6276,4.4682,4.3493,4.2939,4.0144,3.8597,3.8597,3.689,3.5982,3.5982,3.5982,3.5982,3.5982,3.5982,3.5982,2.8021,2.9535,0.0,3.0867,0.0,0.0,0.0,0.0,0.0,0.0,0.0,0.0,0.0,0.0,0.0,4.1044,4.1822,4.2541,4.297,4.319,4.329,4.329,4.4057,4.4796,4.5244,4.6112,4.6779,4.7279,4.7309,4.7309,4.7309,4.7309,4.7309,4.7309,4.7309,4.7309,4.7309,4.7309,4.7309,4.7309,4.7309,4.7309,4.7309,4.7309,4.7549,4.8027,4.8708,4.9366,4.9979,5.0637,5.1026,5.1206,5.1206,5.1206,5.1082,5.0143,4.8638,4.6966,4.5978,4.4481,4.3014,4.3014,4.3014,4.3014,4.3014,4.3014,4.3014,4.3014,4.3014,4.3014,4.3014,4.3014,4.3014,4.3014,4.3014,4.3014,4.3014,4.3014,4.3014,4.3014,4.3014,4.3014,4.3014,4.3014,4.3014,4.3014,4.3313,4.3915,4.4869,4.4995,4.5196,4.5748,4.5824,4.5874,4.605,4.6075,4.6125,4.6301,4.5823,4.4909,4.3524,4.032,3.8597,3.8597,3.689,3.5982,3.5982,3.5982,3.5982,3.5982,3.5982,3.5982,2.9116,3.0478,0.0,3.2048,3.3604,3.531,3.6088,0.0,0.0,0.0,0.0,3.899,3.966,4.0337,0.0,4.1673,4.2331,4.288,4.325,4.329,4.329,4.329,4.3878,4.4556,4.5214,4.5912,4.657,4.7249,4.7309,4.7309,4.7309,4.7309,4.7309,4.7309,4.7309,4.7309,4.7309,4.7309,4.7309,4.7309,4.7309,4.7309,4.7309,4.7578,4.7908,4.8349,4.9254,5.0032,5.0637,5.1026,5.1206,5.1206,5.1206,5.1206,5.1082,5.0287,4.8763,4.6966,4.6135,4.4589,4.3014,4.3014,4.3014,4.3014,4.3014,4.3014,4.3014,4.3014,4.3014,4.3014,4.3014,4.3014,4.3014,4.3014,4.3014,4.3014,4.3014,4.3014,4.3014,4.3014,4.3014,4.3014,4.3014,4.3014,4.309,4.3291,4.3966,4.4719,4.5397,4.5673,4.5949,4.6276,4.6301,4.6301,4.6301,4.6301,4.6301,4.6301,4.6301,4.5525,4.3762,4.1085,3.9627,3.9627,3.724,3.5982,3.5982,3.5982,3.5982,3.5982,3.5982,3.5982,3.1046,0.0,0.0,3.4099,3.4578,0.0,3.7015,3.7973,3.8661,3.9272,0.0,3.966,4.0277,4.1014,4.1673,4.2291,4.291,4.329,4.329,4.329,4.329,4.329,4.3848,4.4496,4.5214,4.5852,4.651,4.7249,4.7309,4.7309,4.7309,4.7309,4.7309,4.7309,4.7309,4.7309,4.7309,4.7309,4.7309,4.7309,4.7309,4.7309,4.7339,4.7997,4.8356,4.8536,4.977,5.0637,5.1206,5.1206,5.1206,5.1206,5.1206,5.1206,5.1206,5.1058,4.9357,4.7069,4.694,4.5209,4.3014,4.3014,4.3014,4.3014,4.3014,4.3014,4.3014,4.3014,4.3014,4.3014,4.3014,4.3014,4.3014,4.3014,4.3014,4.3014,4.3014,4.3014,4.3014,4.3014,4.3014,4.3014,4.3014,4.3039,4.3263,4.3865,4.4819,4.5497,4.5547,4.5999,4.6301,4.6301,4.6301,4.6301,4.6301,4.6301,4.6301,4.6301,4.6301,4.5525,4.3762,4.2106,4.1117,4.0956,3.7709,3.5982,3.5982,3.5982,3.5982,3.5982,3.5982,3.5982,3.0043,3.1599,0.0,0.0,3.525,3.6896,3.7298,3.8332,3.9212,3.9361,3.9828,4.0217,4.0367,4.1373,4.2231,4.2381,4.291,4.329,4.329,4.329,4.329,4.329,4.3429,4.3997,4.5185,4.5424,4.6022,4.7219,4.7309,4.7309,4.7309,4.7309,4.7309,4.7309,4.7309,4.7309,4.7309,4.7309,4.7309,4.7309,4.7309,4.7309,4.7339,4.7997,4.8835,4.983,5.0637,5.1056,5.1206,5.1206,5.1206,5.1206,5.1206,5.1206,5.1058,5.0017,4.8564,4.694,4.5846,4.4372,4.3014,4.3014,4.3014,4.3014,4.3014,4.3014,4.3014,4.3014,4.3014,4.3014,4.3014,4.3014,4.3014,4.3014,4.3014,4.3014,4.3014,4.3014,4.3014,4.3014,4.3014,4.3014,4.3014,4.3338,4.3966,4.497,4.5321,4.5648,4.6075,4.6225,4.6301,4.6301,4.6301,4.6301,4.6301,4.6301,4.6301,4.6301,4.6301,4.5525,4.3762,4.2106,4.0569,3.919,3.7092,3.5982,3.5982,3.5982,3.5982,3.5982,3.5982,3.5982,3.0821,0.0,0.0,3.4292,0.0,3.7387,3.7387,3.8434,3.9391,3.9391,3.993,4.0487,4.0816,4.1703,4.25,4.2761,4.31,4.329,4.329,4.329,4.329,4.329,4.329,4.3698,4.4736,4.5095,4.5723,4.6719,4.713,4.7309,4.7309,4.7309,4.7309,4.7309,4.7309,4.7309,4.7309,4.7309,4.7309,4.7309,4.7309,4.7638,4.8289,4.8618,4.9464,5.0697,5.1056,5.1206,5.1206,5.1206,5.1206,5.1206,5.1206,5.1206,5.1105,5.0407,4.8837,4.6991,4.6239,4.4671,4.3014,4.3014,4.3014,4.3014,4.3014,4.3014,4.3014,4.3014,4.3014,4.3014,4.3014,4.3014,4.3014,4.3014,4.3014,4.3014,4.3014,4.3014,4.3014,4.3014,4.3014,4.309,4.3341,4.4066,4.4819,4.5397,4.5723,4.5974,4.6276,4.6301,4.6301,4.6301,4.6301,4.6301,4.6301,4.6301,4.6301,4.6301,4.6301,4.5525,4.3762,4.2864,4.1213,3.863,3.689,3.5982,3.5982,3.5982,3.5982,3.5982,3.5982,3.5982,3.1569,0.0,3.3814,3.516,3.6477,0.0,3.7387,3.8434,3.9391,3.9391,4.0038,4.0726,4.1313,4.2032,4.272,4.322,4.329,4.329,4.329,4.329,4.329,4.329,4.329,4.3579,4.4237,4.4915,4.5574,4.6241,4.6899,4.7309,4.7309,4.7309,4.7309,4.7309,4.7309,4.7309,4.7309,4.7309,4.7309,4.7309,4.7309,4.7997,4.9277,4.9277,4.9995,5.1206,5.1206,5.1206,5.1206,5.1206,5.1206,5.1206,5.1206,5.1206,5.1206,5.1206,4.9455,4.7094,4.7094,4.5289,4.3014,4.3014,4.3014,4.3014,4.3014,4.3014,4.3014,4.3014,4.3014,4.3014,4.3014,4.3014,4.3014,4.3014,4.3014,4.3014,4.3014,4.3014,4.3014,4.3014,4.309,4.3341,4.3991,4.4869,4.5522,4.5623,4.6024,4.6301,4.6301,4.6301,4.6301,4.6301,4.6301,4.6301,4.6301,4.6301,4.6301,4.6301,4.6301,4.5525,4.3762,4.37,4.2233,3.9125,3.7341,3.6302,3.5982,3.5982,3.5982,3.5982,3.5982,3.6021,0.0,0.0,3.3814,0.0,3.6477,3.7387,0.0,0.0,3.9391,0.0,4.0397,4.1283,4.1373,4.2372,4.322,4.329,4.329,4.329,4.329,4.329,4.329,4.329,4.329,4.3579,4.4237,4.4915,4.5574,4.6241,4.6899,4.7309,4.7309,4.7309,4.7309,4.7309,4.7309,4.7309,4.7309,4.7309,4.7309,4.7309,4.7309,4.7997,4.9277,4.9277,4.9995,5.1206,5.1206,5.1206,5.1206,5.1206,5.1206,5.1206,5.1206,5.1206,5.1206,5.1206,4.9455,4.7094,4.7094,4.5289,4.3014,4.3014,4.3014,4.3014,4.3014,4.3014,4.3014,4.3014,4.3014,4.3014,4.3014,4.3014,4.3014,4.3014,4.3014,4.3014,4.3014,4.3014,4.3014,4.3014,4.3363,4.4016,4.507,4.5397,4.5648,4.6125,4.625,4.6301,4.6301,4.6301,4.6301,4.6301,4.6301,4.6301,4.6301,4.6301,4.6301,4.6301,4.6301,4.5525,4.3762,4.37,4.2801,4.0892,3.9157,3.7508,3.5982,3.5982,3.5982,3.5982,3.5982,3.623,3.0821,3.2347,3.3814,0.0,3.6477,3.7387,3.7387,0.0,3.9391,3.9391,4.0457,4.1403,4.1403,4.2462,4.329,4.329,4.329,4.329,4.329,4.329,4.329,4.329,4.329,4.3429,4.3728,4.4706,4.5424,4.5723,4.6711,4.7309,4.7309,4.7309,4.7309,4.7309,4.7309,4.7309,4.7309,4.7309,4.7309,4.7309,4.7668,4.8379,4.9307,4.9643,5.0308,5.1206,5.1206,5.1206,5.1206,5.1206,5.1206,5.1206,5.1206,5.1206,5.1206,5.1206,4.9455,4.7094,4.7094,4.5289,4.3014,4.3014,4.3014,4.3014,4.3014,4.3014,4.3014,4.3014,4.3014,4.3014,4.3014,4.3014,4.3014,4.3014,4.3014,4.3014,4.3014,4.3014,4.309,4.3388,4.389,4.4518,4.5347,4.5748,4.6024,4.6276,4.6301,4.6301,4.6301,4.6301,4.6301,4.6301,4.6301,4.6301,4.6301,4.6301,4.6301,4.6301,4.6301,4.5969,4.519,4.5135,4.4343,4.2643,3.9986,3.8221,3.7441,3.6471,3.5982,3.6035,3.6269,3.6484,0.0,0.0,3.3095,3.4622,3.6088,3.7225,0.0,0.0,3.9391,0.0,4.0337,4.1194,4.1373,4.2462,4.329,4.329,4.329,4.329,4.329,4.329,4.329,4.329,4.329,4.329,4.329,4.4356,4.5125,4.5274,4.6381,4.713,4.7309,4.7309,4.7309,4.7309,4.7309,4.7309,4.7309,4.7309,4.7309,4.7309,4.7967,4.8648,4.9307,4.992,5.0578,5.1206,5.1206,5.1206,5.1206,5.1206,5.1206,5.1206,5.1206,5.1206,5.1182,5.0846,4.9186,4.7043,4.6682,4.4994,4.3014,4.3014,4.3014,4.3014,4.3014,4.3014,4.3014,4.3014,4.3014,4.3014,4.3014,4.3014,4.3014,4.3014,4.3014,4.3014,4.3014,4.3115,4.3338,4.389,4.4468,4.502,4.5598,4.605,4.6301,4.6301,4.6301,4.6301,4.6301,4.6301,4.6301,4.6301,4.6301,4.6301,4.6301,4.6301,4.6301,4.6301,4.6301,4.6301,4.6301,4.6301,4.5702,4.4405,4.1415,3.9464,3.8597,3.6856,3.604,3.6191,3.6558,3.6812,0.0,3.0193,0.0,3.3095,3.5086,0.0,0.0,0.0,3.9391,3.9391,3.996,4.0636,4.1283,4.2462,4.329,4.329,4.329,4.329,4.329,4.329,4.329,4.329,4.329,4.329,4.329,4.3938,4.4616,4.5244,4.5942,4.6629,4.7279,4.7309,4.7309,4.7309,4.7309,4.7309,4.7309,4.7309,4.7309,4.7309,4.7967,4.8648,4.9307,4.992,5.0578,5.1206,5.1206,5.1206,5.1206,5.1206,5.1206,5.1206,5.1206,5.1206,5.1035,4.9776,4.8364,4.6914,4.5555,4.4155,4.3014,4.3014,4.3014,4.3014,4.3014,4.3014,4.3014,4.3014,4.3014,4.3014,4.3014,4.3014,4.3014,4.3014,4.3014,4.3014,4.3014,4.3388,4.3915,4.4439,4.5045,4.5623,4.6175,4.6301,4.6301,4.6301,4.6301,4.6301,4.6301,4.6301,4.6301,4.6301,4.6301,4.6301,4.6301,4.6301,4.6301,4.6301,4.6301,4.6301,4.6301,4.6301,4.624,4.618,4.4374,4.1829,3.8597,3.6856,3.623,3.6675,3.6695,3.709,0.0,0.0,0.0,3.2377,3.4053,3.5506,3.6567,3.7823,3.8871,3.9302,3.993,4.0606,4.1283,4.2122,4.2851,4.325,4.329,4.329,4.329,4.329,4.329,4.329,4.329,4.329,4.329,4.3908,4.4586,4.5244,4.5912,4.66,4.7279,4.7309,4.7309,4.7309,4.7309,4.7309,4.7309,4.7309,4.7309,4.7309,4.8409,4.9067,4.9359,5.0391,5.0966,5.1206,5.1206,5.1206,5.1206,5.1206,5.1206,5.1206,5.1206,5.1206,5.1035,4.9703,4.8314,4.6888,4.5475,4.4126,4.3014,4.3014,4.3014,4.3014,4.3014,4.3014,4.3014,4.3014,4.3014,4.3014,4.3014,4.3014,4.3014,4.3014,4.3014,4.309,4.3438,4.3664,4.4066,4.4995,4.5347,4.5673,4.6225,4.6301,4.6301,4.6301,4.6301,4.6301,4.6301,4.6301,4.6301,4.6301,4.6301,4.6301,4.6301,4.6301,4.6301,4.6301,4.6301,4.6301,4.6301,4.6301,4.6301,4.6301,4.3513,4.1501,4.0278,3.8758,3.7596,3.6714,3.7226,3.7637,2.8693,0.0,0.0,0.0,0.0,3.4368,3.6357,0.0,3.8332,3.9212,3.975,4.0277,4.0954,4.1613,4.2331,4.316,4.329,4.329,4.329,4.329,4.329,4.329,4.329,4.329,4.329,4.3698,4.4326,4.5214,4.5723,0.0,4.7249,4.7309,4.7309,4.7309,4.7309,4.7309,4.7309,4.7309,4.7309,4.7309,4.8648,4.9277,4.9337,5.0631,5.1206,5.1206,5.1206,5.1206,5.1206,5.1206,5.1206,5.1206,5.1206,5.0917,5.0359,4.9014,4.758,4.6214,4.4806,4.3768,4.3014,4.3014,4.3014,4.3014,4.3014,4.3014,4.3014,4.3014,4.3014,4.3014,4.3014,4.3014,4.3014,4.3014,4.314,4.3413,4.3966,4.4091,4.4367,4.5296,4.5648,4.5874,4.625,4.6301,4.6301,4.6301,4.6301,4.6301,4.6301,4.6301,4.6301,4.6301,4.6301,4.6301,4.6301,4.6301,4.6301,4.6301,4.6301,4.6301,4.6301,4.6301,4.6301,4.6301,4.3482,4.1824,4.1395,3.9356,3.7932,3.7109,3.7656,3.7972,0.0,0.0,0.0,0.0,0.0,0.0,3.6537,3.7285,3.7674,3.9062,3.9331,3.9541,4.0277,4.0954,4.1803,4.307,4.329,4.329,4.329,4.329,4.329,4.329,4.329,4.329,4.329,4.329,4.3848,4.5185,4.5304,4.5873,4.7249,4.7309,4.7309,4.7309,4.7309,4.7309,4.7309,4.7309,4.7309,4.7309,4.8648,4.9277,4.9337,5.0631,5.1206,5.1206,5.1206,5.1206,5.1206,5.1206,5.1206,5.1206,5.1206,5.0359,4.9038,4.7605,4.6214,4.4806,4.3464,4.3014,4.3014,4.3014,4.3014,4.3014,4.3014,4.3014,4.3014,4.3014,4.3014,4.3014,4.3014,4.3014,4.3014,4.3014,4.3413,4.3966,4.4489,4.4614,4.479,4.5397,4.5949,4.6301,4.6301,4.6301,4.6301,4.6301,4.6301,4.6301,4.6301,4.6301,4.6301,4.6301,4.6301,4.6301,4.6301,4.6301,4.6301,4.6301,4.6301,4.6301,4.6301,4.6301,4.6326,4.6326,4.4552,4.3048,4.1845,3.8439,3.7179,3.7894,3.7894,3.8164,2.7585,0.0,0.0,0.0,0.0,0.0,3.3335,3.4233,3.522,3.7477,3.7956,3.8434,4.0098,4.0954,4.1673,4.2511,4.301,4.329,4.329,4.329,4.329,4.329,4.329,4.329,4.329,4.329,4.3848,0.0,4.5304,4.5873,4.7249,4.7309,4.7309,4.7309,4.7309,4.7309,4.7309,4.7309,4.7309,4.7309,4.8648,4.9277,4.9337,5.0631,5.1206,5.1206,5.1206,5.1206,5.1206,5.1206,5.1206,5.1206,5.1206,5.0359,4.9038,4.7605,4.6214,4.4806,4.3464,4.3014,4.3014,4.3014,4.3014,4.3014,4.3014,4.3014,4.3014,4.3014,4.3014,4.3014,4.3014,4.3014,4.3115,4.3489,4.3689,4.4066,4.5045,4.5246,4.5422,4.5974,4.62,4.6301,4.6301,4.6301,4.6301,4.6301,4.6301,4.6301,4.6301,4.6301,4.6301,4.6301,4.6301,4.6301,4.6301,4.6301,4.6301,4.6301,4.6301,4.6301,4.6301,4.6301,4.6471,4.6873,4.3868,4.2515,4.2873,4.0282,3.8641,3.7894,3.8242,3.8457,0.0,0.0,0.0,0.0,0.0,0.0,3.3125,3.3844,3.4757,3.7644,3.8225,3.8584,3.975,4.0516,4.1194,4.1852,4.2511,4.301,4.326,4.329,4.329,4.329,4.329,4.329,4.329,4.329,4.3758,4.4796,4.5125,4.5873,4.7249,4.7309,4.7309,4.7309,4.7309,4.7309,4.7309,4.7309,4.7309,4.7309,4.8648,4.9277,4.9337,5.0631,5.1206,5.1206,5.1206,5.1206,5.1206,5.1206,5.1206,5.1206,5.1206,5.0017,4.8239,4.7402,4.5846,4.4044,4.3268,4.3014,4.3014,4.3014,4.3014,4.3014,4.3014,4.3014,4.3014,4.3014,4.3014,4.3014,4.3014,4.3014,4.314,4.3664,4.3966,4.4392,4.5296,4.5673,4.5924,4.625,4.6301,4.6301,4.6301,4.6301,4.6301,4.6301,4.6301,4.6301,4.6301,4.6301,4.6301,4.6301,4.6301,4.6301,4.6301,4.6301,4.6301,4.6301,4.6301,4.6301,4.6301,4.6496,4.6772,4.7099,4.4579,4.2957,4.222,4.0091,3.8763,3.8203,3.8457,3.8611,0.0,0.0,0.0,0.0,0.0,0.0,3.4053,3.4472,3.5056,3.8105,3.8733,3.8823,3.9032,3.9619,4.0277,4.0954,4.1733,4.2541,4.32,4.329,4.329,4.329,4.329,4.329,4.329,4.329,4.3579,4.4237,4.5005,4.5963,4.7249,4.7309,4.7309,4.7309,4.7309,4.7309,4.7309,4.7309,4.7309,4.7309,4.8648,4.9277,4.9337,5.0631,5.1206,5.1206,5.1206,5.1206,5.1206,5.1206,5.1206,5.1206,5.1206,4.963,4.7325,4.7325,4.5581,4.3212,4.3212,4.3101,4.3014,4.3014,4.3014,4.3014,4.3014,4.3014,4.3014,4.3014,4.3014,4.3014,4.3014,4.3039,4.3212,4.3765,4.4317,4.4869,4.5447,4.5974,4.6301,4.6301,4.6301,4.6301,4.6301,4.6301,4.6301,4.6301,4.6301,4.6301,4.6301,4.6301,4.6301,4.6301,4.6301,4.6301,4.6301,4.6301,4.6301,4.6301,4.6301,4.6326,4.6401,4.6848,4.7174,4.7274,4.5941,4.3663,4.0459,3.8791,3.8203,3.8611,3.8611,3.8611,0.0,0.0,0.0,0.0,0.0,0.0,3.0686,3.145,3.2572,3.4292,3.4651,3.516,3.6776,3.7584,3.8212,3.8888,4.0445,4.1983,4.316,4.329,4.329,4.329,4.329,4.329,4.329,4.329,4.3579,4.4237,4.5403,4.645,4.7279,4.7309,4.7309,4.7309,4.7309,4.7309,4.7309,4.7309,4.7309,4.7309,4.8648,4.9277,4.9337,5.0631,5.1206,5.1206,5.1206,5.1206,5.1206,5.1206,5.1206,5.1206,5.1206,5.0215,4.8787,4.8787,4.7017,4.4616,4.4616,4.3907,4.3014,4.3014,4.3014,4.3014,4.3014,4.3014,4.3014,4.3014,4.3014,4.3014,4.3014,4.3313,4.379,4.4313,4.4895,4.5472,4.6024,4.6225,4.6301,4.6301,4.6301,4.6301,4.6301,4.6301,4.6301,4.6301,4.6301,4.6301,4.6301,4.6301,4.6301,4.6301,4.6301,4.6301,4.6301,4.6301,4.6301,4.6301,4.6301,4.6471,4.6923,4.7048,4.7525,4.8435,4.5757,4.2596,3.9017,3.8655,3.8496,3.8611,3.8611,3.8611,0.0,0.0,0.0,3.0119,0.0,0.0,0.0,3.1779,3.2572,3.4592,3.4711,3.4921,3.6254,3.6477,3.6776,3.7734,3.9038,4.0247,4.1216,4.2502,4.329,4.329,4.329,4.329,4.329,4.329,4.3728,4.4736,4.5424,4.6262,4.7249,4.7309,4.7309,4.7309,4.7309,4.7309,4.7309,4.7309,4.7459,4.7818,4.8828,4.9456,4.9793,5.0757,5.1206,5.1206,5.1206,5.1206,5.1206,5.1206,5.1206,5.1206,5.1206,5.0359,4.9112,4.8414,4.6811,4.4887,4.4209,4.3547,4.3014,4.3014,4.3014,4.3014,4.3014,4.3014,4.3014,4.3014,4.3014,4.3014,4.3014,4.3388,4.394,4.4464,4.507,4.5648,4.62,4.6301,4.6301,4.6301,4.6301,4.6301,4.6301,4.6301,4.6301,4.6301,4.6301,4.6301,4.6301,4.6301,4.6301,4.6301,4.6301,4.6301,4.6301,4.6301,4.6301,4.6301,4.6547,4.6823,4.7099,4.7657,4.79,4.7808,4.5375,4.2731,3.9962,3.9027,3.8611,3.8611,3.8611,3.8611,0.0,0.0,0.0,0.0,0.0,3.1569,0.0,0.0,0.0,3.513,3.51,0.0,0.0,0.0,0.0,0.0,0.0,0.0,0.0,4.0976,0.0,4.2741,4.307,4.325,4.313,4.301,4.3549,4.5005,4.5005,4.5574,4.704,4.7249,4.7309,4.7309,4.7309,4.7309,4.7309,4.7309,4.7638,4.8319,4.8977,4.9613,5.0226,5.0907,5.1206,5.1206,5.1206,5.1206,5.1206,5.1206,5.1206,5.1206,5.1206,5.0555,4.9406,4.8038,4.6604,4.5209,4.3852,4.3212,4.3014,4.3014,4.3014,4.3014,4.3014,4.3014,4.3014,4.3014,4.3014,4.3014,4.3014,4.3463,4.4066,4.4489,4.5146,4.5773,4.6225,4.6301,4.6301,4.6301,4.6301,4.6301,4.6301,4.6301,4.6301,4.6301,4.6301,4.6301,4.6301,4.6301,4.6301,4.6301,4.6301,4.6301,4.6301,4.6301,4.6301,4.6301,4.6798,4.7149,4.7249,4.8335,4.8099,4.6331,4.4846,4.301,4.0779,3.9297,3.8611,3.8611,3.8611,3.8611,0.0,0.0,0.0,0.0,3.2796,0.0,0.0,0.0,3.2422,3.2138,0.0,0.0,0.0,0.0,0.0,0.0,0.0,0.0,3.6823,3.8571,4.0049,4.0666,4.2263,4.31,4.2541,4.1972,4.2372,4.4267,4.3928,4.4436,4.63,4.698,4.7309,4.7309,4.7309,4.7309,4.7309,4.7309,4.7638,4.8319,4.8977,4.9613,5.0226,5.0907,5.1206,5.1206,5.1206,5.1206,5.1206,5.1206,5.1206,5.1206,5.1206,5.1105,5.0793,4.9455,4.8088,4.6656,4.5262,4.3989,4.3014,4.3014,4.3014,4.3014,4.3014,4.3014,4.3014,4.3014,4.3014,4.3014,4.3014,4.374,4.4514,4.4589,4.5417,4.6225,4.6301,4.6301,4.6301,4.6301,4.6301,4.6301,4.6301,4.6301,4.6301,4.6301,4.6301,4.6301,4.6301,4.6301,4.6301,4.6301,4.6301,4.6301,4.6301,4.6301,4.6301,4.6301,4.6798,4.7299,4.7807,4.8912,4.7913,4.4471,4.4197,4.2382,3.8918,3.872,3.8611,3.8611,3.8611,3.8611,0.0,0.0,0.0,0.0,0.0,0.0,3.2018,0.0,3.1959,0.0,0.0,0.0,0.0,0.0,0.0,0.0,3.3963,0.0,0.0,0.0,3.8242,0.0,0.0,0.0,4.1762,4.1553,4.2192,4.4147,4.3698,4.4207,4.6181,4.6929,4.7309,4.7309,4.7309,4.7309,4.7309,4.7309,4.7818,4.8887,4.9179,4.9845,5.0787,5.1056,5.1206,5.1206,5.1206,5.1206,5.1206,5.1206,5.1206,5.1206,5.1206,5.0722,4.9873,4.8489,4.7094,4.5687,4.4318,4.3464,4.3014,4.3014,4.3014,4.3014,4.3014,4.3014,4.3014,4.3014,4.3014,4.309,4.3363,4.4041,4.469,4.5045,4.5723,4.6301,4.6301,4.6301,4.6301,4.6301,4.6301,4.6301,4.6301,4.6301,4.6301,4.6301,4.6301,4.6301,4.6301,4.6301,4.6301,4.6301,4.6301,4.6301,4.6301,4.6301,4.6421,4.6747,4.7606,4.8335,4.8862,4.9339,4.8347,4.5727,4.4641,4.2801,4.0157,3.91,3.8611,3.8611,3.8611,3.8611,3.4518,0.0,0.0,0.0,0.0,0.0,0.0,0.0,0.0,0.0,0.0,0.0,0.0,0.0,0.0,0.0,0.0,3.3425,0.0,3.4637,0.0,0.0,0.0,0.0,0.0,4.0535,4.1175,4.3359,4.304,4.3728,4.5912,4.686,4.7309,4.7309,4.7309,4.7309,4.7309,4.7309,4.7967,4.9277,4.9277,4.9965,5.1206,5.1206,5.1206,5.1206,5.1206,5.1206,5.1206,5.1206,5.1206,5.1206,5.1206,5.0143,4.8489,4.7478,4.6214,4.4806,4.3464,4.3014,4.3014,4.3014,4.3014,4.3014,4.3014,4.3014,4.3014,4.3014,4.3014,4.314,4.3664,4.4217,4.474,4.5347,4.5899,4.6301,4.6301,4.6301,4.6301,4.6301,4.6301,4.6301,4.6301,4.6301,4.6301,4.6301,4.6301,4.6301,4.6301,4.6301,4.6301,4.6301,4.6301,4.6301,4.6301,4.6301,4.6572,4.7274,4.8234,4.9044,4.9565,4.959,4.873,4.6832,4.5016,4.3183,4.129,3.9478,3.8611,3.8611,3.8611,3.8611,0.0,0.0,0.0,3.4143,0.0,0.0,0.0,0.0,3.3275,0.0,0.0,0.0,0.0,0.0,0.0,0.0,0.0,0.0,0.0,0.0,0.0,0.0,0.0,0.0,0.0,3.8285,3.8631,0.0,4.1463,4.2601,4.5185,4.6591,4.7309,4.7309,4.7309,4.7309,4.7309,4.7309,4.7967,4.9277,4.9277,4.9965,5.1206,5.1206,5.1206,5.1206,5.1206,5.1206,5.1206,5.1206,5.1206,5.1206,5.1206,4.9557,4.7146,4.712,4.6214,4.4806,4.3464,4.3014,4.3014,4.3014,4.3014,4.3014,4.3014,4.3014,4.3014,4.3014,4.3014,4.314,4.3664,4.4217,4.474,4.5347,4.5899,4.6301,4.6301,4.6301,4.6301,4.6301,4.6301,4.6301,4.6301,4.6301,4.6301,4.6301,4.6301,4.6301,4.6301,4.6301,4.6301,4.6301,4.6301,4.6301,4.6301,4.6301,4.6753,4.7807,4.8466,4.9044,4.9565,4.959,4.873,4.6832,4.5016,4.3183,4.129,3.9478,3.8611,3.8611,3.8611,3.8611,0.0,0.0,3.7524,3.537,0.0,0.0,0.0,0.0,0.0,0.0,0.0,0.0,0.0,0.0,0.0,0.0,0.0,0.0,0.0,0.0,0.0,0.0,0.0,0.0,0.0,0.0,0.0,0.0,4.2192,0.0,4.5214,4.6561,4.7309,4.7309,4.7309,4.7309,4.7309,4.7309,4.7967,4.9277,4.9277,4.9965,5.1206,5.1206,5.1206,5.1206,5.1206,5.1206,5.1206,5.1206,5.1206,5.1206,5.1206,4.9504,4.7094,4.7094,4.5661,4.3602,4.3156,4.3014,4.3014,4.3014,4.3014,4.3014,4.3014,4.3014,4.3014,4.3014,4.3266,4.3639,4.4192,4.4769,4.5347,4.5899,4.6175,4.6301,4.6301,4.6301,4.6301,4.6301,4.6301,4.6301,4.6301,4.6301,4.6301,4.6301,4.6301,4.6301,4.6301,4.6301,4.6301,4.6301,4.6301,4.6301,4.6301,4.6954,4.7682,4.8435,4.9012,4.9389,4.959,4.959,4.9307,4.8673,4.5649,4.3806,4.3149,4.0105,3.8611,3.8611,3.8611,3.8611,3.7949,3.8063,0.0,3.6267,3.5848,0.0,3.3634,0.0,0.0,0.0,0.0,0.0,0.0,0.0,0.0,0.0,0.0,0.0,0.0,3.2362,0.0,0.0,0.0,0.0,0.0,0.0,0.0,0.0,0.0,0.0,0.0,4.6232,4.707,4.7309,4.7309,4.7309,4.7309,4.7309,4.7967,4.9277,4.9277,4.9965,5.1206,5.1206,5.1206,5.1206,5.1206,5.1206,5.1206,5.1206,5.1206,5.1129,5.0674,4.9112,4.7094,4.7094,4.5342,4.3014,4.3014,4.3014,4.3014,4.3014,4.3014,4.3014,4.3014,4.3014,4.3039,4.324,4.3539,4.3966,4.4744,4.5221,4.5623,4.6175,4.6301,4.6301,4.6301,4.6301,4.6301,4.6301,4.6301,4.6301,4.6301,4.6301,4.6301,4.6301,4.6301,4.6301,4.6301,4.6301,4.6301,4.6301,4.6301,4.6401,4.6572,4.7581,4.8385,4.8768,4.9289,4.959,4.959,4.959,4.9274,4.8608,4.5649,4.3749,4.3092,4.0069,3.8611,3.8611,3.8611,3.8611]}]]